Date StartTime U_cm/s V_cm/s W_cm/s Ustd_cm/s Vstd_cm/s Wstd_cm/s Uvar_(cm/s)^2 Vvar_(cm/s)^2 Wvar_(cm/s)^2 KE_(m/s)^2 TurbulentKE_(m/s)^2 HorizWindSpeed_cm/s FrictionSpeec_cm/s DragCoef SpeedOfSound_m/s SonicTemperature_C Pressure_mb 
07/03/2014  00:00:00     -278.683      -38.711       -3.972      118.123       71.042       57.818    13953.148     5046.912     3342.870        5.076        1.117      281.359       67.321        0.057      346.722       25.170      861.113
07/03/2014  00:01:00     -219.577      -35.285      -14.674       90.128       73.221       46.924     8123.143     5361.381     2201.867        3.268        0.784      222.394       38.692        0.030      346.658       25.060      861.108
07/03/2014  00:02:00     -236.797      -38.755        1.961      108.699       64.108       51.928    11815.444     4109.893     2696.488        3.810        0.931      239.948       53.967        0.051      346.641       25.030      861.109
07/03/2014  00:03:00     -217.760      -90.522        3.980      146.756      100.891       58.615    21537.364    10178.952     3435.748        4.538        1.758      235.825       72.423        0.094      346.614       24.986      861.124
07/03/2014  00:04:00     -282.376      -45.736       -6.447      112.664       98.211       50.606    12693.118     9645.389     2560.944        5.338        1.245      286.055       56.609        0.039      346.671       25.083      861.121
07/03/2014  00:05:00     -174.391      -76.033       -4.236      115.957       79.924       50.548    13446.044     6387.799     2555.057        2.930        1.119      190.245       49.158        0.067      346.633       25.018      861.125
07/03/2014  00:06:00     -248.423      -81.972      -13.217       97.688      100.489       49.582     9543.040    10098.076     2458.341        4.535        1.105      261.598       47.825        0.033      346.679       25.097      861.123
07/03/2014  00:07:00     -177.146      -87.285        6.412      141.073       78.256       50.785    19901.543     6124.029     2579.128        3.382        1.430      197.482       56.850        0.083      346.585       24.936      861.130
07/03/2014  00:08:00     -246.438     -108.804       -0.491       81.397       74.321       45.682     6625.391     5523.678     2086.872        4.340        0.712      269.388       42.380        0.025      346.586       24.937      861.124
07/03/2014  00:09:00     -204.809      -60.799        0.720      116.197       81.199       50.071    13501.775     6593.212     2507.127        3.412        1.130      213.643       54.549        0.065      346.599       24.960      861.112
07/03/2014  00:10:00     -107.607      -68.245       -2.923      102.393       91.025       46.264    10484.311     8285.531     2140.328        1.857        1.046      127.423       50.403        0.156      346.570       24.912      861.105
07/03/2014  00:11:00     -201.576     -125.243       -9.587       82.797       72.959       46.843     6855.268     5322.999     2194.268        3.539        0.719      237.316       41.851        0.031      346.573       24.914      861.104
07/03/2014  00:12:00     -190.668     -108.325      -16.577       99.445       64.398       45.581     9889.248     4147.155     2077.613        3.224        0.806      219.291       37.402        0.029      346.528       24.836      861.096
07/03/2014  00:13:00     -238.528      -72.734      -19.634       58.725       79.215       43.354     3448.582     6275.089     1879.539        3.709        0.580      249.371       35.087        0.020      346.530       24.839      861.084
07/03/2014  00:14:00     -126.193      -24.360       13.973       83.910       66.395       41.438     7040.921     4408.329     1717.085        1.494        0.658      128.523       46.025        0.128      346.406       24.630      861.078
07/03/2014  00:15:00     -212.620     -119.365       -2.609       78.573       80.037       46.987     6173.757     6405.982     2207.745        3.712        0.739      243.834       39.940        0.027      346.454       24.710      861.082
07/03/2014  00:16:00     -163.017     -108.989      -15.892       89.530       71.718       40.762     8015.653     5143.461     1661.509        2.676        0.741      196.095       47.977        0.060      346.384       24.591      861.097
07/03/2014  00:17:00     -194.729      -82.447       -3.421       70.681       62.488       30.189     4995.784     3904.786      911.397        2.727        0.491      211.464       31.696        0.022      346.380       24.582      861.105
07/03/2014  00:18:00     -191.876     -122.811       -9.085       94.720       71.057       42.874     8971.948     5049.100     1838.185        3.392        0.793      227.813       39.710        0.030      346.332       24.499      861.108
07/03/2014  00:19:00     -178.991      -65.004       -0.969       58.373       58.068       35.885     3407.426     3371.865     1287.728        2.216        0.403      190.429       31.525        0.027      346.302       24.450      861.106
07/03/2014  00:20:00     -193.279      -99.486       -6.749       80.886       83.008       43.543     6542.537     6890.341     1896.017        3.131        0.766      217.381       40.094        0.034      346.294       24.435      861.119
07/03/2014  00:21:00     -217.392      -74.759       -9.256      114.240       73.554       48.443    13050.811     5410.139     2346.755        3.687        1.040      229.887       52.278        0.052      346.307       24.457      861.118
07/03/2014  00:22:00     -190.175      -42.862      -10.613       72.247       53.048       34.800     5219.700     2814.104     1211.017        2.368        0.462      194.945       39.770        0.042      346.242       24.345      861.107
07/03/2014  00:23:00     -230.595      -79.786      -15.761       50.285       53.069       34.921     2528.631     2816.333     1219.472        3.318        0.328      244.008       29.937        0.015      346.266       24.387      861.098
07/03/2014  00:24:00     -171.649      -59.159       -3.793       78.794       62.752       32.434     6208.493     3937.795     1051.993        2.209        0.560      181.558       33.498        0.034      346.212       24.295      861.089
07/03/2014  00:25:00     -191.331      -51.891        0.704       81.610       65.400       43.476     6660.245     4277.157     1890.141        2.606        0.641      198.243       42.621        0.046      346.224       24.315      861.068
07/03/2014  00:26:00     -141.255      -69.339       -2.566      109.682       54.706       43.623    12030.175     2992.749     1902.949        2.084        0.846      157.355       54.052        0.118      346.211       24.292      861.062
07/03/2014  00:27:00     -148.516      -86.319        6.127       82.390       55.787       38.377     6788.075     3112.208     1472.815        2.046        0.569      171.779       41.195        0.058      346.184       24.247      861.064
07/03/2014  00:28:00     -191.098      -59.220       -5.446       79.261       64.402       31.253     6282.334     4147.581      976.753        2.573        0.570      200.063       39.645        0.039      346.201       24.277      861.062
07/03/2014  00:29:00     -163.446      -65.584        0.486       61.475       45.562       29.282     3779.232     2075.917      857.437        1.886        0.336      176.113       31.272        0.032      346.141       24.173      861.064
07/03/2014  00:30:00     -196.083      -79.804       -6.436       69.678       69.258       36.459     4854.965     4796.665     1329.284        2.792        0.549      211.701       35.407        0.028      346.150       24.186      861.069
07/03/2014  00:31:00     -154.076      -68.062        5.265       79.732       53.403       38.018     6357.271     2851.925     1445.355        1.953        0.533      168.440       42.575        0.064      346.126       24.147      861.071
07/03/2014  00:32:00     -186.585     -153.353       -5.988       68.164       72.108       41.050     4646.348     5199.560     1685.064        3.495        0.577      241.518       41.231        0.029      346.122       24.139      861.078
07/03/2014  00:33:00     -137.565      -60.038       -3.246       74.878       49.333       31.691     5606.783     2433.731     1004.323        1.579        0.452      150.095       34.094        0.052      346.037       23.994      861.089
07/03/2014  00:34:00     -167.995      -32.616        4.269       79.405       63.646       34.262     6305.098     4050.790     1173.879        2.042        0.576      171.132       34.703        0.041      346.004       23.938      861.094
07/03/2014  00:35:00     -185.786      -80.633       -2.655       47.816       67.866       31.946     2286.368     4605.778     1020.519        2.447        0.396      202.530       26.255        0.017      346.014       23.954      861.099
07/03/2014  00:36:00     -131.271       -9.939        3.427       58.702       54.470       36.554     3445.905     2966.975     1336.211        1.254        0.387      131.647       35.188        0.071      345.924       23.804      861.126
07/03/2014  00:37:00     -182.413        3.282       -7.550       53.117       47.968       28.751     2821.423     2300.964      826.618        1.964        0.297      182.442       20.217        0.012      346.012       23.953      861.145
07/03/2014  00:38:00     -141.234      -25.870       -3.157       66.280       49.293       27.022     4392.976     2429.797      730.176        1.409        0.378      143.583       27.994        0.038      345.956       23.858      861.156
07/03/2014  00:39:00      -90.296        2.493       -2.499       40.832       41.854       24.236     1667.249     1751.785      587.385        0.609        0.200       90.330       11.386        0.016      345.916       23.790      861.169
07/03/2014  00:40:00      -95.882       39.859       -5.957       35.361       17.821       13.088     1250.370      317.596      171.304        0.628        0.087      103.836        7.919        0.006      345.967       23.877      861.201
07/03/2014  00:41:00      -63.962       79.713      -15.594       22.221       29.591       16.471      493.790      875.614      271.306        0.616        0.082      102.202       12.282        0.014      345.931       23.814      861.229
07/03/2014  00:42:00      -61.338       79.305       -9.603       21.722       29.285       20.706      471.852      857.618      428.759        0.595        0.088      100.258       14.862        0.022      345.941       23.831      861.244
07/03/2014  00:43:00      -46.255       72.581      -14.867       17.431       13.491       12.640      303.854      182.003      159.758        0.414        0.032       86.067        4.664        0.003      345.976       23.891      861.249
07/03/2014  00:44:00      -38.174       66.067      -14.717       19.764       30.519       14.871      390.625      931.397      221.141        0.379        0.077       76.303       12.739        0.028      345.994       23.923      861.256
07/03/2014  00:45:00      -38.050       45.695      -11.196       17.129       20.766       14.005      293.404      431.232      196.147        0.229        0.046       59.463       12.822        0.046      345.988       23.911      861.241
07/03/2014  00:46:00      -19.820       27.141       -7.900       11.759       18.868        6.862      138.284      356.014       47.087        0.087        0.027       33.607        7.033        0.044      346.069       24.049      861.227
07/03/2014  00:47:00      -26.960       -9.793       -6.450       13.172       14.497        7.725      173.492      210.162       59.679        0.065        0.022       28.683        6.095        0.045      346.033       23.990      861.233
07/03/2014  00:48:00      -48.230      -34.897       -3.427       32.487       27.809       11.953     1055.387      773.331      142.884        0.276        0.099       59.531       10.145        0.029      346.071       24.054      861.245
07/03/2014  00:49:00      -34.329       -7.199        2.138       13.798       22.173        7.756      190.380      491.630       60.149        0.099        0.037       35.076        7.587        0.047      345.852       23.679      861.254
07/03/2014  00:50:00      -70.447       -2.835      -12.517       25.955       19.634       10.026      673.670      385.501      100.523        0.314        0.058       70.504       12.227        0.030      345.968       23.878      861.264
07/03/2014  00:51:00      -31.647       47.339       -8.728       23.845       61.168       18.833      568.600     3741.465      354.693        0.399        0.233       56.943       19.303        0.115      346.102       24.108      861.261
07/03/2014  00:52:00      -46.475       24.997       -1.515       26.827       42.596       20.333      719.714     1814.451      413.413        0.287        0.147       52.771       17.150        0.106      346.238       24.341      861.252
07/03/2014  00:53:00      -18.755      -15.083      -16.141       25.051       26.716       11.866      627.557      713.750      140.792        0.116        0.074       24.068       12.760        0.281      346.050       24.019      861.247
07/03/2014  00:54:00      -22.565       11.395        5.916       18.911       18.383       12.889      357.620      337.945      166.120        0.077        0.043       25.279       12.144        0.231      345.875       23.719      861.254
07/03/2014  00:55:00      -18.423      -10.384        0.351       28.317       17.211       14.560      801.861      296.217      211.998        0.088        0.066       21.148       15.423        0.532      345.773       23.543      861.251
07/03/2014  00:56:00      -51.001      -32.238        0.091       34.929       30.620       14.295     1220.053      937.590      204.348        0.300        0.118       60.336       17.969        0.089      345.751       23.506      861.245
07/03/2014  00:57:00      -42.801      -41.693       10.427       33.402       30.248       25.332     1115.722      914.967      641.703        0.318        0.134       59.752       13.435        0.051      345.822       23.627      861.247
07/03/2014  00:58:00       -5.013      -37.615       15.391       46.613       29.991       27.141     2172.784      899.444      736.617        0.274        0.190       37.948       29.537        0.606      345.864       23.699      861.247
07/03/2014  00:59:00      -49.414      -48.131        1.368       38.137       39.992       22.428     1454.464     1599.335      503.003        0.416        0.178       68.981       20.376        0.087      345.860       23.691      861.240
07/03/2014  01:00:00     -105.529      -72.183        2.472       48.484       29.419       21.871     2350.685      865.485      478.332        1.002        0.185      127.854       22.541        0.031      345.881       23.728      861.237
07/03/2014  01:01:00      -62.826      -79.025       10.878       70.047       38.533       32.239     4906.530     1484.773     1039.358        0.887        0.372      100.956       33.981        0.113      345.850       23.676      861.230
07/03/2014  01:02:00      -46.687      -68.890        5.135       31.003       40.826       23.621      961.207     1666.776      557.963        0.507        0.159       83.219       16.276        0.038      345.849       23.673      861.214
07/03/2014  01:03:00      -80.703      -73.414        2.678       41.436       35.090       26.015     1716.906     1231.332      676.757        0.777        0.181      109.099       20.409        0.035      345.831       23.643      861.220
07/03/2014  01:04:00     -100.029      -77.115        4.065       47.898       37.100       23.148     2294.247     1376.444      535.819        1.009        0.210      126.303       25.296        0.040      345.867       23.705      861.211
07/03/2014  01:05:00      -90.205      -79.015        1.156       46.250       38.564       20.777     2139.018     1487.165      431.682        0.922        0.203      119.918       22.795        0.036      345.813       23.611      861.206
07/03/2014  01:06:00      -82.728      -93.245        3.042       34.455       36.764       27.393     1187.119     1351.596      750.360        0.942        0.164      124.654       20.334        0.027      345.801       23.590      861.200
07/03/2014  01:07:00      -95.688      -77.963       -5.080       39.601       29.487       22.247     1568.222      869.504      494.937        0.910        0.147      123.428       20.626        0.028      345.756       23.515      861.198
07/03/2014  01:08:00      -84.506      -46.950       -5.724       28.158       30.529       13.733      792.875      932.001      188.594        0.565        0.096       96.673       10.531        0.012      345.812       23.610      861.201
07/03/2014  01:09:00     -131.722      -69.250       -0.414       37.173       21.749       15.108     1381.828      473.008      228.259        1.211        0.104      148.816        8.280        0.003      345.679       23.383      861.206
07/03/2014  01:10:00      -99.637      -72.242       10.795       60.611       44.351       28.897     3673.646     1966.994      835.051        1.087        0.324      123.071       25.643        0.043      345.590       23.231      861.218
07/03/2014  01:11:00     -131.899     -114.326        1.513       65.638       50.834       28.678     4308.376     2584.125      822.408        1.909        0.386      174.550       22.878        0.017      345.693       23.404      861.214
07/03/2014  01:12:00     -124.779      -92.027        2.002       70.506       43.828       29.819     4971.088     1920.917      889.202        1.591        0.389      155.044       29.936        0.037      345.783       23.558      861.217
07/03/2014  01:13:00     -145.303     -133.315       -0.713       70.079       57.365       36.689     4911.002     3290.777     1346.067        2.422        0.477      197.195       36.078        0.033      345.780       23.554      861.205
07/03/2014  01:14:00     -170.643      -95.704       -0.864       62.584       72.391       38.582     3916.804     5240.386     1488.547        2.446        0.532      195.649       36.337        0.034      345.802       23.591      861.207
07/03/2014  01:15:00     -106.779      -54.812        2.361       59.769       38.357       28.165     3572.357     1471.294      793.278        1.012        0.292      120.026       27.863        0.054      345.691       23.403      861.201
07/03/2014  01:16:00     -131.054      -42.573       -1.501       46.221       44.313       25.496     2136.388     1963.633      650.024        1.187        0.238      137.795       23.782        0.030      345.650       23.332      861.187
07/03/2014  01:17:00     -140.798      -41.629        2.557       55.565       52.006       29.796     3087.504     2704.654      887.791        1.412        0.334      146.824       27.422        0.035      345.570       23.195      861.182
07/03/2014  01:18:00     -170.938      -93.296        4.868       53.095       49.090       26.829     2819.068     2409.850      719.771        2.195        0.297      194.741       25.181        0.017      345.695       23.409      861.181
07/03/2014  01:19:00     -142.688      -50.052        7.762       77.729       67.001       33.936     6041.842     4489.196     1151.635        1.730        0.584      151.212       33.150        0.048      345.564       23.183      861.180
07/03/2014  01:20:00     -184.799      -69.016        4.055       68.962       59.179       32.324     4755.721     3502.189     1044.840        2.411        0.465      197.266       37.802        0.037      345.520       23.105      861.178
07/03/2014  01:21:00      -98.966      -36.799        5.870       66.450       52.465       29.870     4415.585     2752.579      892.207        0.962        0.403      105.586       21.613        0.042      345.470       23.022      861.178
07/03/2014  01:22:00     -114.063      -42.207        4.333       47.988       46.806       26.929     2302.828     2190.796      725.146        1.001        0.261      121.622       26.894        0.049      345.333       22.788      861.185
07/03/2014  01:23:00     -130.431      -27.747       -3.493       40.892       28.474       20.100     1672.150      810.752      404.011        1.034        0.144      133.350       19.943        0.022      345.315       22.757      861.200
07/03/2014  01:24:00     -105.505      -51.707        7.882       77.194       37.004       31.849     5958.940     1369.324     1014.355        1.110        0.417      117.494       32.820        0.078      345.253       22.650      861.210
07/03/2014  01:25:00     -177.375      -50.064        3.984       64.896       47.356       37.647     4211.537     2242.608     1417.328        2.093        0.394      184.305       39.833        0.047      345.276       22.688      861.224
07/03/2014  01:26:00     -151.775      -28.150        4.322       57.669       26.061       23.095     3325.759      679.200      533.384        1.419        0.227      154.363       25.026        0.026      345.140       22.458      861.229
07/03/2014  01:27:00     -159.507      -61.369        0.924       42.475       32.153       19.736     1804.100     1033.839      389.501        1.622        0.161      170.906       17.034        0.010      345.100       22.388      861.235
07/03/2014  01:28:00     -189.711      -72.957       -0.947       43.436       45.490       28.281     1886.694     2069.351      799.822        2.303        0.238      203.256       27.390        0.018      345.127       22.433      861.244
07/03/2014  01:29:00     -158.183      -47.728       -0.347       57.751       43.434       25.045     3335.171     1886.545      627.264        1.657        0.292      165.226       20.580        0.016      345.141       22.459      861.239
07/03/2014  01:30:00     -128.007      -31.117        2.259       48.769       42.471       30.062     2378.437     1803.801      903.708        1.122        0.254      131.735       28.128        0.046      344.980       22.184      861.242
07/03/2014  01:31:00     -132.895      -70.512        4.522       79.858       39.483       33.794     6377.300     1558.922     1142.027        1.586        0.454      150.443       37.337        0.062      344.998       22.215      861.248
07/03/2014  01:32:00     -199.304      -68.674       -2.123       76.426       44.920       30.890     5840.911     2017.788      954.188        2.663        0.441      210.804       33.477        0.025      345.110       22.403      861.240
07/03/2014  01:33:00     -178.395      -64.077       -1.474       59.509       46.408       34.464     3541.343     2153.691     1187.773        2.141        0.344      189.553       26.541        0.020      345.124       22.428      861.222
07/03/2014  01:34:00     -171.948      -20.767      -16.112       57.914       25.486       24.487     3353.990      649.514      599.611        1.743        0.230      173.198       23.216        0.018      345.047       22.297      861.220
07/03/2014  01:35:00     -130.472      -17.846       -8.876       65.505       30.891       22.973     4290.902      954.232      527.749        1.160        0.289      131.687       30.500        0.054      344.959       22.148      861.221
07/03/2014  01:36:00     -129.827       14.707       -9.081       41.109       38.789       21.449     1689.954     1504.583      460.077        1.040        0.183      130.658       19.259        0.022      344.917       22.076      861.218
07/03/2014  01:37:00     -141.067       -6.196       -9.067       66.348       48.960       27.480     4402.087     2397.099      755.135        1.379        0.378      141.203       29.125        0.043      344.946       22.124      861.215
07/03/2014  01:38:00     -176.410        7.939      -18.043       40.713       30.068       19.699     1657.531      904.067      388.064        1.723        0.147      176.588       18.313        0.011      345.193       22.548      861.208
07/03/2014  01:39:00     -170.623       -3.610      -18.919       36.204       33.968       20.385     1310.761     1153.831      415.558        1.618        0.144      170.661       21.929        0.017      345.187       22.538      861.203
07/03/2014  01:40:00     -154.977      -61.905        0.847       49.377       28.755       24.769     2438.068      826.845      613.527        1.586        0.194      166.883       22.164        0.018      345.025       22.260      861.214
07/03/2014  01:41:00     -117.237      -46.771       -1.921       44.901       42.229       27.092     2016.133     1783.270      734.000        1.023        0.227      126.223       24.442        0.037      344.978       22.181      861.227
07/03/2014  01:42:00      -80.520      -53.353       -2.364       38.864       27.039       24.384     1510.439      731.099      594.560        0.609        0.142       96.592       20.278        0.044      344.985       22.192      861.226
07/03/2014  01:43:00      -72.608        9.520       -1.332       33.564       16.694       18.678     1126.536      278.697      348.872        0.356        0.088       73.229       17.355        0.056      344.913       22.070      861.222
07/03/2014  01:44:00      -96.431      -13.438       -3.297       53.678       32.165       23.490     2881.352     1034.606      551.790        0.698        0.223       97.363       24.146        0.062      344.964       22.157      861.234
07/03/2014  01:45:00      -52.682      -33.099        5.199       46.166       30.942       18.121     2131.342      957.434      328.355        0.366        0.171       62.217       24.500        0.155      344.934       22.106      861.232
07/03/2014  01:46:00      -54.217      -30.479       -8.889       35.365       32.979       15.167     1250.696     1087.626      230.038        0.326        0.128       62.197        8.687        0.020      345.063       22.326      861.232
07/03/2014  01:47:00      -33.571      -24.367      -11.068       29.994       28.053       14.586      899.615      786.990      212.762        0.187        0.095       41.482       12.295        0.088      345.109       22.406      861.231
07/03/2014  01:48:00       -4.383      -15.105        1.134       17.547       17.442       10.010      307.885      304.232      100.205        0.048        0.036       15.728        6.331        0.162      345.124       22.430      861.220
07/03/2014  01:49:00       -1.651      -17.266        7.962       15.762       12.994        9.184      248.442      168.837       84.349        0.043        0.025       17.345        6.695        0.149      345.118       22.419      861.235
07/03/2014  01:50:00      -10.026      -43.560       -0.420       15.027       10.605       11.316      225.817      112.470      128.043        0.123        0.023       44.699        1.136        0.001      345.122       22.429      861.237
07/03/2014  01:51:00       -7.705      -50.613      -11.558       15.067       22.256       13.188      227.026      495.334      173.926        0.183        0.045       51.196       10.255        0.040      345.068       22.336      861.238
07/03/2014  01:52:00       11.410      -47.600        0.969       17.076       21.406       11.116      291.574      458.227      123.562        0.163        0.044       48.949        8.441        0.030      345.127       22.437      861.246
07/03/2014  01:53:00        2.012        4.919       11.541        8.470       16.018        7.967       71.746      256.568       63.469        0.028        0.020        5.315        2.538        0.228      344.871       21.998      861.251
07/03/2014  01:54:00       10.533       -4.745        6.800       13.740       22.231       15.055      188.778      494.233      226.640        0.054        0.045       11.553       13.299        1.325      344.644       21.610      861.243
07/03/2014  01:55:00       11.999       14.641       30.707       16.191       19.366       16.473      262.154      375.033      271.362        0.110        0.045       18.930       14.590        0.594      344.636       21.595      861.236
07/03/2014  01:56:00      -11.905       46.289       72.499       13.933       33.881       22.338      194.117     1147.895      498.979        0.469        0.092       47.796       24.340        0.259      344.668       21.651      861.223
07/03/2014  01:57:00       -9.667      -13.063       25.368       12.512       29.598       16.936      156.544      876.012      286.836        0.111        0.066       16.250       17.980        1.224      344.628       21.582      861.235
07/03/2014  01:58:00      -10.431       18.219       30.748       18.684       18.430       15.644      349.102      339.670      244.724        0.116        0.047       20.994        7.010        0.111      344.590       21.517      861.239
07/03/2014  01:59:00      -16.097      -19.641       14.514       24.065       21.006       15.873      579.137      441.235      251.955        0.106        0.064       25.394       13.996        0.304      344.610       21.551      861.243
07/03/2014  02:00:00      -15.357       -0.965        6.567       27.193       34.954       18.946      739.473     1221.755      358.941        0.130        0.116       15.387       12.992        0.713      344.631       21.587      861.242
07/03/2014  02:01:00      -12.606      -50.492       -5.570       28.788       28.840       21.666      828.728      831.749      469.407        0.243        0.106       52.042       12.008        0.053      344.709       21.720      861.251
07/03/2014  02:02:00       15.341        4.345        7.479       21.173       24.350       20.053      448.310      592.941      402.115        0.088        0.072       15.945       14.422        0.818      344.606       21.544      861.262
07/03/2014  02:03:00        8.053       37.582        5.028       26.970       35.931       21.869      727.361     1291.002      478.258        0.200        0.125       38.436       14.935        0.151      344.467       21.304      861.267
07/03/2014  02:04:00       14.471       84.721       -8.984       21.253       26.603       18.338      451.670      707.711      336.283        0.448        0.075       85.948       17.518        0.042      344.344       21.096      861.289
07/03/2014  02:05:00       35.072       70.842      -16.901       18.401       25.423       15.106      338.609      646.337      228.180        0.387        0.061       79.049       16.072        0.041      344.618       21.563      861.305
07/03/2014  02:06:00       77.525       43.351       16.954       17.679       23.627       28.613      312.546      558.230      818.716        0.493        0.084       88.822       19.985        0.051      344.841       21.947      861.289
07/03/2014  02:07:00       78.487       57.609       43.302       67.874       44.643       37.481     4606.932     1992.971     1404.815        0.968        0.400       97.360       38.437        0.156      344.737       21.769      861.250
07/03/2014  02:08:00       -0.754       31.125       39.597       18.411       35.395       22.726      338.964     1252.773      516.460        0.232        0.105       31.134       23.417        0.566      344.464       21.302      861.229
07/03/2014  02:09:00       55.837      -87.960        1.578       39.129       44.534       23.406     1531.103     1983.315      547.831        0.746        0.203      104.186       21.130        0.041      345.014       22.241      861.219
07/03/2014  02:10:00       -8.054      -80.713      -12.024       56.775       39.300       19.667     3223.434     1544.511      386.794        0.594        0.258       81.114       14.318        0.031      344.847       21.957      861.214
07/03/2014  02:11:00       -0.314      -54.393        9.073       10.562       19.674       16.524      111.558      387.059      273.049        0.191        0.039       54.394        8.642        0.025      344.678       21.669      861.222
07/03/2014  02:12:00       35.785      -40.335        2.315       37.561       31.371       25.118     1410.806      984.167      630.933        0.297        0.151       53.921       24.398        0.205      345.020       22.253      861.218
07/03/2014  02:13:00       16.462      -51.869       -2.315       46.275       46.147       20.743     2141.402     2129.558      430.265        0.383        0.235       54.419       10.137        0.035      344.977       22.180      861.228
07/03/2014  02:14:00      -54.808      -30.894       -0.765       27.646       29.174       20.546      764.304      851.095      422.143        0.300        0.102       62.915       17.138        0.074      344.784       21.848      861.232
07/03/2014  02:15:00      -36.302      -25.159       -5.950       31.115       26.487        9.649      968.157      701.574       93.112        0.187        0.088       44.168        8.773        0.039      344.868       21.992      861.233
07/03/2014  02:16:00       44.271        1.159        8.573       15.926       19.904       13.708      253.633      396.150      187.907        0.144        0.042       44.286       10.227        0.053      344.822       21.914      861.235
07/03/2014  02:17:00       21.625       13.956       21.280       16.188       14.329        9.578      262.058      205.316       91.741        0.084        0.028       25.737        4.691        0.033      344.846       21.955      861.235
07/03/2014  02:18:00       21.731        8.791        6.080       10.464       17.736       10.937      109.504      314.560      119.627        0.057        0.027       23.442        8.471        0.131      344.768       21.820      861.234
07/03/2014  02:19:00       10.052        7.488        3.481       10.667        9.870        7.008      113.777       97.421       49.107        0.021        0.013       12.535        3.795        0.092      344.830       21.928      861.249
07/03/2014  02:20:00      -68.535      -33.947      -18.930       27.195       24.839       11.296      739.582      616.999      127.598        0.385        0.074       76.482       11.494        0.023      344.506       21.375      861.266
07/03/2014  02:21:00     -101.329      -43.703       -0.082       37.631       21.990       15.587     1416.117      483.547      242.959        0.716        0.107      110.352       19.947        0.033      344.320       21.055      861.279
07/03/2014  02:22:00     -107.147      -34.909        7.813       42.128       34.302       19.605     1774.732     1176.649      384.360        0.805        0.167      112.690       21.447        0.036      344.288       21.003      861.287
07/03/2014  02:23:00      -77.420       -9.715       -3.452       36.539       15.799       15.052     1335.115      249.601      226.577        0.396        0.091       78.028       17.146        0.048      344.298       21.017      861.294
07/03/2014  02:24:00      -17.701       -2.889       -1.243       15.127        9.924        8.179      228.827       98.486       66.901        0.036        0.020       17.935        7.706        0.185      344.223       20.889      861.285
07/03/2014  02:25:00        9.066        6.789        1.395       10.293        6.014       10.226      105.943       36.163      104.569        0.019        0.012       11.326        6.993        0.381      344.279       20.984      861.270
07/03/2014  02:26:00      -10.093       18.658       -5.708        6.603        6.491        5.672       43.599       42.134       32.172        0.030        0.006       21.213        4.213        0.039      344.732       21.761      861.260
07/03/2014  02:27:00      -28.612       22.676       -1.283       16.169        6.702        6.395      261.431       44.915       40.900        0.084        0.017       36.508        7.219        0.039      344.807       21.888      861.259
07/03/2014  02:28:00      -74.327       40.860      -14.028       16.317       14.139        9.392      266.238      199.914       88.209        0.397        0.028       84.818        8.669        0.010      344.518       21.395      861.265
07/03/2014  02:29:00      -76.045       11.992       -8.101       15.460       18.421        5.946      239.010      339.337       35.356        0.330        0.031       76.985        2.747        0.001      344.453       21.282      861.271
07/03/2014  02:30:00      -39.930      -10.781       -7.401       21.123       10.083        7.179      446.188      101.659       51.534        0.118        0.030       41.360       10.218        0.061      344.213       20.871      861.272
07/03/2014  02:31:00       10.195       19.932       -0.400       25.829       23.288        6.958      667.154      542.315       48.412        0.088        0.063       22.388        7.894        0.124      344.595       21.524      861.270
07/03/2014  02:32:00       26.207       34.607       -2.611        9.578       16.880        6.448       91.737      284.943       41.579        0.115        0.021       43.410        7.271        0.028      344.843       21.952      861.271
07/03/2014  02:33:00       12.442       19.527       -4.898       14.899       17.983       12.181      221.968      323.399      148.377        0.063        0.035       23.154       11.838        0.261      344.758       21.803      861.276
07/03/2014  02:34:00      -44.938        5.218       -7.589       17.256       26.176        6.586      297.757      685.159       43.369        0.157        0.051       45.240        5.126        0.013      344.501       21.364      861.288
07/03/2014  02:35:00      -46.431      -18.466       -8.883       16.346       12.454        9.511      267.187      155.112       90.460        0.154        0.026       49.968        5.285        0.011      344.136       20.740      861.297
07/03/2014  02:36:00      -14.987      -29.958       -0.789       11.577        9.662        6.631      134.017       93.353       43.969        0.070        0.014       33.497        5.111        0.023      344.295       21.012      861.284
07/03/2014  02:37:00       -2.825      -49.985       -1.451       15.129       19.957       17.163      228.893      398.271      294.559        0.171        0.046       50.065       12.153        0.059      344.709       21.721      861.253
07/03/2014  02:38:00       -4.950      -61.561       -4.270       27.212       24.108       16.785      740.516      581.200      281.722        0.272        0.080       61.760       16.685        0.073      344.869       21.993      861.237
07/03/2014  02:39:00      -91.155      -16.725       -4.601       22.118       19.098       14.388      489.185      364.749      207.006        0.484        0.053       92.677       13.151        0.020      344.300       21.020      861.244
07/03/2014  02:40:00      -75.128      -54.532        6.301       43.331       26.159       18.551     1877.579      684.286      344.157        0.578        0.145       92.833       17.045        0.034      344.050       20.593      861.242
07/03/2014  02:41:00      -44.285      -76.717       -1.874       23.692       28.088       16.338      561.299      788.915      266.930        0.473        0.081       88.581       11.440        0.017      344.456       21.287      861.231
07/03/2014  02:42:00      -42.493     -111.900       -8.442       12.459       13.812        8.510      155.225      190.769       72.413        0.741        0.021      119.696        3.377        0.001      344.925       22.092      861.209
07/03/2014  02:43:00      -81.897      -72.215       -3.904       39.326       51.701       23.501     1546.503     2673.013      552.278        0.835        0.239      109.189       22.193        0.041      344.754       21.797      861.224
07/03/2014  02:44:00     -110.916      -20.597        0.392       45.636       39.280       23.505     2082.612     1542.903      552.482        0.845        0.209      112.812       18.171        0.026      344.401       21.192      861.239
07/03/2014  02:45:00     -118.919      -12.891        3.572       59.792       34.795       25.447     3575.139     1210.680      647.568        0.988        0.272      119.616       28.065        0.055      344.124       20.719      861.254
07/03/2014  02:46:00      -51.291      -11.459        1.305       22.614       19.959       11.369      511.412      398.357      129.256        0.190        0.052       52.555       10.840        0.043      344.167       20.794      861.248
07/03/2014  02:47:00      -64.020      -29.056       -1.690       15.797       14.058       11.032      249.553      197.637      121.698        0.276        0.028       70.305        7.152        0.010      344.358       21.119      861.256
07/03/2014  02:48:00      -72.901       -8.909        1.014       24.170       17.298       12.833      584.172      299.214      164.685        0.322        0.052       73.444       11.667        0.025      344.187       20.827      861.282
07/03/2014  02:49:00      -83.607       -3.349       -0.369       25.165       20.647       13.575      633.273      426.288      184.281        0.412        0.062       83.675       10.174        0.015      344.085       20.653      861.288
07/03/2014  02:50:00      -59.745       16.483      -11.886       13.352       16.557       14.602      178.274      274.122      213.226        0.232        0.033       61.977        7.184        0.013      344.083       20.650      861.292
07/03/2014  02:51:00      -48.783       -8.664      -13.194       13.784       19.083       10.723      189.986      364.150      114.983        0.165        0.033       49.547       10.290        0.043      344.101       20.681      861.279
07/03/2014  02:52:00      -29.994      -37.809        3.887       22.812       17.230       19.720      520.395      296.869      388.864        0.178        0.060       48.261       16.921        0.123      344.226       20.894      861.259
07/03/2014  02:53:00      -23.330      -35.457       17.526       39.042       29.117       22.559     1524.250      847.823      508.886        0.249        0.144       42.444       22.117        0.272      344.191       20.833      861.237
07/03/2014  02:54:00      -90.826      -96.177        7.899       67.984       58.588       36.506     4621.859     3432.597     1332.707        1.347        0.469      132.286       40.626        0.094      344.397       21.186      861.224
07/03/2014  02:55:00      -85.947      -80.991        5.718       50.042       53.188       28.329     2504.241     2828.931      802.513        1.006        0.307      118.095       29.955        0.064      344.172       20.802      861.222
07/03/2014  02:56:00     -129.963      -93.446        1.366       66.257       35.160       28.937     4389.984     1236.217      837.329        1.604        0.323      160.071       32.928        0.042      344.134       20.738      861.218
07/03/2014  02:57:00     -134.842      -90.330        0.946       66.559       48.167       33.812     4430.045     2320.105     1143.241        1.712        0.395      162.302       37.056        0.052      344.084       20.650      861.215
07/03/2014  02:58:00     -165.708     -118.555       -4.818       47.125       33.924       25.748     2220.770     1150.856      662.973        2.279        0.202      203.751       24.496        0.014      344.253       20.936      861.204
07/03/2014  02:59:00     -157.579      -79.056       -1.093       59.351       49.044       28.147     3522.589     2405.279      792.252        1.890        0.336      176.298       27.092        0.024      344.162       20.783      861.216
07/03/2014  03:00:00     -122.134      -86.261       11.791       71.918       50.375       38.829     5172.215     2537.669     1507.729        1.586        0.461      149.525       38.915        0.068      344.144       20.753      861.224
07/03/2014  03:01:00     -105.256      -89.449       -7.731       43.144       33.179       23.200     1861.388     1100.831      538.257        1.132        0.175      138.130       18.835        0.019      344.189       20.830      861.221
07/03/2014  03:02:00      -57.942      -57.355        3.923       42.494       31.411       27.746     1805.713      986.650      769.859        0.511        0.178       81.529       23.229        0.081      344.153       20.770      861.234
07/03/2014  03:03:00      -73.174       -3.532        0.006       36.793       21.116       19.684     1353.741      445.868      387.476        0.378        0.109       73.259       20.363        0.077      344.101       20.681      861.257
07/03/2014  03:04:00      -50.316       25.365       -1.040       20.612       19.859       15.040      424.862      394.372      226.205        0.211        0.052       56.347        9.612        0.029      343.981       20.477      861.267
07/03/2014  03:05:00      -32.535       29.722       -2.285       20.331       19.016       13.406      413.342      361.612      179.731        0.145        0.048       44.067       13.333        0.092      343.926       20.382      861.267
07/03/2014  03:06:00      -42.845       38.067       -7.656       17.876       17.091       13.027      319.553      292.098      169.710        0.206        0.039       57.313        6.691        0.014      343.987       20.487      861.278
07/03/2014  03:07:00      -71.608        7.550       -3.747       24.842       16.206       10.429      617.135      262.630      108.770        0.309        0.049       72.005        7.214        0.010      343.923       20.376      861.304
07/03/2014  03:08:00      -75.056       -7.938       -1.098       26.801       18.262       14.044      718.316      333.517      197.225        0.347        0.062       75.475       14.084        0.035      343.760       20.099      861.310
07/03/2014  03:09:00      -45.738      -19.173        1.566       12.856       14.316        8.158      165.285      204.947       66.555        0.145        0.022       49.594        5.355        0.012      343.715       20.020      861.318
07/03/2014  03:10:00      -45.741        2.633       -5.268       20.674        9.313        8.335      427.423       86.740       69.476        0.136        0.029       45.817        4.740        0.011      343.910       20.354      861.330
07/03/2014  03:11:00       12.321        0.895        8.080       11.777        8.079        6.074      138.693       65.263       36.894        0.023        0.012       12.354        5.001        0.164      343.830       20.219      861.330
07/03/2014  03:12:00       46.169       28.433        7.344       12.762       13.052        6.817      162.861      170.360       46.470        0.169        0.019       54.222        7.758        0.020      343.868       20.283      861.325
07/03/2014  03:13:00       63.532       34.847        9.572       19.926       14.892       22.707      397.060      221.765      515.603        0.324        0.057       72.462        8.042        0.012      343.805       20.176      861.346
07/03/2014  03:14:00       83.647       50.810       29.148       21.566       24.100       24.346      465.100      580.791      592.724        0.603        0.082       97.870       11.652        0.014      343.579       19.790      861.357
07/03/2014  03:15:00      120.509       49.350        9.556       56.678       44.491       33.113     3212.368     1979.460     1096.438        1.167        0.314      130.223       22.237        0.029      343.331       19.366      861.364
07/03/2014  03:16:00       79.303       41.268        8.772       53.251       36.550       27.058     2835.644     1335.883      732.118        0.649        0.245       89.398       24.447        0.075      343.270       19.262      861.368
07/03/2014  03:17:00       79.310       45.542        9.728       20.348       19.885       16.955      414.045      395.418      287.472        0.478        0.055       91.456       10.261        0.013      343.314       19.339      861.380
07/03/2014  03:18:00       34.691       35.739        2.625       27.529       25.616       18.884      757.820      656.192      356.599        0.213        0.089       49.807       11.744        0.056      343.430       19.535      861.389
07/03/2014  03:19:00        9.741       74.332      -10.194       19.535       19.807        7.563      381.632      392.299       57.202        0.328        0.042       74.968        6.929        0.009      343.714       20.020      861.389
07/03/2014  03:20:00      -34.218        8.496       -7.889       18.121       42.284        7.178      328.387     1787.896       51.522        0.174        0.108       35.257        4.588        0.017      343.536       19.718      861.381
07/03/2014  03:21:00      -48.643      -39.865       -9.554       11.293       12.359        9.323      127.538      152.737       86.924        0.221        0.018       62.892        6.095        0.009      343.486       19.630      861.371
07/03/2014  03:22:00      -45.343      -32.793       -5.017       12.393       15.722       10.453      153.585      247.168      109.260        0.183        0.026       55.959        5.483        0.010      343.774       20.121      861.358
07/03/2014  03:23:00      -60.480      -23.711       -9.539       13.070       11.354        8.804      170.833      128.906       77.516        0.234        0.019       64.962        7.545        0.013      343.701       19.999      861.346
07/03/2014  03:24:00     -100.940      -18.276       -8.095       12.658       14.442       11.305      160.215      208.571      127.813        0.554        0.025      102.581        6.623        0.004      343.507       19.667      861.338
07/03/2014  03:25:00      -65.870       -1.246       -7.299       15.890       11.333        9.003      252.487      128.432       81.060        0.243        0.023       65.881       10.168        0.024      343.753       20.087      861.347
07/03/2014  03:26:00      -20.562      -17.631       -3.822       16.669        7.556        6.386      277.842       57.097       40.782        0.056        0.019       27.086        3.632        0.018      343.717       20.026      861.355
07/03/2014  03:27:00      -43.127        1.839       -0.167       19.974       18.463        9.926      398.974      340.876       98.531        0.135        0.042       43.166       11.801        0.075      343.666       19.937      861.349
07/03/2014  03:28:00      -18.030       17.033        8.743       34.355       31.936       13.317     1180.295     1019.908      177.339        0.153        0.119       24.804       14.736        0.353      343.631       19.879      861.346
07/03/2014  03:29:00      -31.077      -10.280       -6.325       12.263       21.728       10.182      150.382      472.095      103.671        0.092        0.036       32.733       10.775        0.108      343.737       20.060      861.370
07/03/2014  03:30:00      -16.454      -15.928       -2.032       11.752       18.585        8.026      138.101      345.387       64.423        0.054        0.027       22.900        8.057        0.124      343.731       20.050      861.378
07/03/2014  03:31:00       -7.633      -16.431        1.723       12.366       11.576        5.507      152.927      134.000       30.331        0.032        0.016       18.118        5.686        0.098      343.800       20.169      861.386
07/03/2014  03:32:00      -20.243        4.050       -1.993        9.882        9.078        7.406       97.662       82.411       54.849        0.033        0.012       20.644        5.448        0.070      343.839       20.234      861.402
07/03/2014  03:33:00       43.703        0.608        9.805       39.894       24.217       16.611     1591.506      586.440      275.918        0.223        0.123       43.707       11.645        0.071      343.528       19.704      861.421
07/03/2014  03:34:00       36.719      -51.150       -3.592       31.251       25.332       16.873      976.611      641.698      284.685        0.294        0.095       62.965       15.427        0.060      343.638       19.891      861.413
07/03/2014  03:35:00       29.845      -29.724      -11.195       14.175       21.467       19.123      200.930      460.831      365.704        0.146        0.051       42.122       12.281        0.085      343.368       19.431      861.405
07/03/2014  03:36:00       43.609       -7.300       21.597       27.779       24.337       19.539      771.659      592.290      381.755        0.208        0.087       44.216       16.964        0.147      343.212       19.165      861.407
07/03/2014  03:37:00       25.254      -15.867        7.039       23.339       20.861       22.721      544.716      435.191      516.225        0.122        0.075       29.825       16.876        0.320      343.296       19.308      861.414
07/03/2014  03:38:00       15.819      -29.787       -2.961       16.002       15.776       13.677      256.058      248.874      187.049        0.092        0.035       33.727        6.774        0.040      343.332       19.369      861.408
07/03/2014  03:39:00      -26.946        2.333        3.953       31.174       20.543       14.154      971.836      422.014      200.336        0.117        0.080       27.047       18.661        0.476      343.233       19.200      861.395
07/03/2014  03:40:00      -26.814      -17.831       -0.784        9.715        9.522        4.831       94.388       90.669       23.342        0.062        0.010       32.202        3.351        0.011      343.688       19.976      861.401
07/03/2014  03:41:00      -48.074      -49.234        0.382       21.043       16.290       10.097      442.804      265.367      101.954        0.277        0.041       68.812       10.008        0.021      343.956       20.433      861.391
07/03/2014  03:42:00      -34.313      -34.244        0.451       25.964       18.094       16.061      674.130      327.407      257.961        0.180        0.063       48.477       15.745        0.105      343.611       19.846      861.374
07/03/2014  03:43:00      -39.458        2.672       -6.119       19.974       13.926        6.892      398.970      193.947       47.493        0.112        0.032       39.548        5.540        0.020      343.404       19.491      861.379
07/03/2014  03:44:00      -70.781      -12.138       -8.838        9.647       11.315        8.477       93.067      128.029       71.854        0.276        0.015       71.814        4.534        0.004      343.293       19.303      861.384
07/03/2014  03:45:00      -85.735      -15.530       -3.965       28.850       23.411       14.379      832.351      548.089      206.743        0.460        0.079       87.131       12.685        0.021      342.905       18.642      861.383
07/03/2014  03:46:00      -70.081      -15.324        3.499       32.913       28.205       14.206     1083.267      795.501      201.820        0.362        0.104       71.737       13.494        0.035      342.939       18.699      861.375
07/03/2014  03:47:00      -69.429      -22.360        1.825       25.289       29.811       15.646      639.553      888.671      244.784        0.355        0.089       72.940       12.112        0.028      342.821       18.498      861.371
07/03/2014  03:48:00     -104.048      -18.873      -18.386       18.062       18.928       14.887      326.242      358.274      221.609        0.621        0.045      105.746       11.064        0.011      342.850       18.548      861.383
07/03/2014  03:49:00      -77.418      -17.032       -3.364       33.174       21.806       14.559     1100.539      475.518      211.952        0.404        0.089       79.269       17.039        0.046      342.897       18.630      861.375
07/03/2014  03:50:00      -84.010      -23.645       -2.696       30.303       17.858       15.203      918.267      318.909      231.119        0.455        0.073       87.274       12.985        0.022      342.865       18.574      861.368
07/03/2014  03:51:00      -90.158      -22.584       -5.663       30.515       23.270       13.244      931.151      541.482      175.393        0.516        0.082       92.944       13.654        0.022      342.770       18.412      861.380
07/03/2014  03:52:00      -88.234       -8.107       -5.750       33.142       15.676       15.816     1098.389      245.752      250.144        0.474        0.080       88.606       17.113        0.037      342.802       18.468      861.374
07/03/2014  03:53:00      -62.221      -13.180       -1.913       21.009       15.665       12.137      441.362      245.384      147.298        0.244        0.042       63.602        8.562        0.018      342.876       18.592      861.362
07/03/2014  03:54:00      -87.580      -36.003       -4.366       14.032       17.194        8.855      196.903      295.617       78.416        0.478        0.029       94.691        2.845        0.001      343.063       18.911      861.379
07/03/2014  03:55:00      -84.932      -37.895        1.673       32.913       20.692       17.723     1083.274      428.142      314.106        0.524        0.091       93.003       13.928        0.022      343.060       18.907      861.387
07/03/2014  03:56:00      -72.076      -49.498        5.387       28.083       25.858       16.951      788.644      668.647      287.348        0.471        0.087       87.435        9.322        0.011      343.056       18.900      861.388
07/03/2014  03:57:00      -38.260      -65.467        0.924       37.213       45.756       18.922     1384.783     2093.626      358.023        0.479        0.192       75.827       20.129        0.070      343.158       19.072      861.399
07/03/2014  03:58:00      -90.387     -104.987       -7.185       39.809       42.499       23.356     1584.738     1806.166      545.518        1.159        0.197      138.536       21.876        0.025      343.220       19.177      861.395
07/03/2014  03:59:00      -93.460      -69.613        8.693       57.373       43.148       29.976     3291.709     1861.735      898.575        0.985        0.303      116.537       31.928        0.075      343.147       19.054      861.391
07/03/2014  04:00:00      -81.801      -77.875       -0.042       44.357       46.993       22.196     1967.562     2208.310      492.662        0.871        0.233      112.942       25.910        0.053      343.182       19.115      861.396
07/03/2014  04:01:00      -63.733      -57.838        4.197       35.197       23.273       18.813     1238.798      541.627      353.934        0.478        0.107       86.065       17.464        0.041      343.172       19.096      861.405
07/03/2014  04:02:00      -42.136      -69.740       -6.653       22.919       36.165       14.794      525.297     1307.880      218.860        0.437        0.103       81.481       12.728        0.024      343.297       19.310      861.398
07/03/2014  04:03:00      -42.073      -51.052       -0.754       25.162       38.705       13.653      633.106     1498.071      186.409        0.335        0.116       66.155        4.493        0.005      343.217       19.173      861.388
07/03/2014  04:04:00      -29.024     -106.689       -2.745       26.474       32.840       17.277      700.863     1078.493      298.503        0.715        0.104      110.567       12.535        0.013      343.372       19.437      861.391
07/03/2014  04:05:00      -15.767      -65.705       -1.982       27.691       31.321       19.839      766.792      981.007      393.593        0.336        0.107       67.570       18.324        0.074      343.440       19.552      861.381
07/03/2014  04:06:00       13.098      -22.643       -4.710        9.143       15.077       11.082       83.601      227.316      122.803        0.057        0.022       26.159        7.539        0.083      343.264       19.253      861.377
07/03/2014  04:07:00       -5.643      -38.652        2.078       35.569       24.523       17.481     1265.130      601.394      305.597        0.185        0.109       39.062       11.977        0.094      343.312       19.336      861.368
07/03/2014  04:08:00      -53.702       14.141       -0.526       32.826       18.306       15.093     1077.568      335.115      227.797        0.236        0.082       55.533       16.534        0.089      342.851       18.549      861.369
07/03/2014  04:09:00      -56.949      -16.987        0.594       37.145       21.255       14.429     1379.748      451.756      208.190        0.279        0.102       59.428       16.030        0.073      342.570       18.072      861.376
07/03/2014  04:10:00      -74.283       -2.833       -2.909       22.653       26.010       14.232      513.145      676.495      202.536        0.346        0.070       74.337        8.010        0.012      342.519       17.986      861.372
07/03/2014  04:11:00      -75.729      -18.691        0.632       40.643       22.623       13.654     1651.833      511.781      186.432        0.422        0.118       78.002       17.181        0.049      342.686       18.270      861.363
07/03/2014  04:12:00      -99.611      -68.499       -9.229       42.649       31.099       22.576     1818.924      967.179      509.676        0.900        0.165      120.890       22.524        0.035      342.537       18.015      861.370
07/03/2014  04:13:00     -119.118      -22.691       -8.792       53.670       36.488       16.681     2880.486     1331.357      278.240        0.963        0.225      121.260       22.979        0.036      342.346       17.691      861.374
07/03/2014  04:14:00      -71.096       -5.313        2.609       39.748       19.668       22.022     1579.896      386.832      484.967        0.377        0.123       71.294       22.387        0.099      342.362       17.718      861.336
07/03/2014  04:15:00      -80.065      -53.937        8.870       50.720       37.088       19.014     2572.557     1375.500      361.513        0.685        0.215       96.538       21.004        0.047      342.434       17.841      861.315
07/03/2014  04:16:00     -176.788     -100.622       -3.018       38.271       33.533       24.076     1464.701     1124.481      579.665        2.228        0.158      203.418       12.782        0.004      342.526       17.997      861.324
07/03/2014  04:17:00     -166.694      -84.431       -2.559       56.243       44.431       27.894     3163.235     1974.082      778.065        2.042        0.296      186.856       27.582        0.022      342.661       18.225      861.318
07/03/2014  04:18:00      -88.348      -64.116        5.746       51.276       30.149       22.036     2629.203      908.940      485.594        0.799        0.201      109.161       23.500        0.046      342.870       18.583      861.305
07/03/2014  04:19:00     -133.367      -79.755       -3.246       50.044       44.380       25.767     2504.366     1969.550      663.947        1.465        0.257      155.395       20.323        0.017      342.875       18.591      861.290
07/03/2014  04:20:00     -195.946      -54.339       -1.566       57.119       48.964       32.992     3262.560     2397.485     1088.456        2.405        0.337      203.341       28.818        0.020      342.855       18.555      861.298
07/03/2014  04:21:00      -84.271      -71.406       -4.958       48.833       46.175       33.030     2384.672     2132.125     1090.993        0.892        0.280      110.455       21.514        0.038      342.852       18.549      861.293
07/03/2014  04:22:00      -61.796     -120.633        0.127       49.803       34.198       26.182     2480.342     1169.509      685.521        1.135        0.217      135.540       21.318        0.025      343.015       18.828      861.275
07/03/2014  04:23:00      -75.179     -104.978        1.150       46.836       50.010       29.553     2193.605     2500.994      873.390        1.112        0.278      129.121       26.578        0.042      342.947       18.713      861.281
07/03/2014  04:24:00     -128.072      -90.171       -0.327       64.158       55.292       34.306     4116.221     3057.185     1176.876        1.644        0.418      156.631       33.805        0.047      342.939       18.699      861.294
07/03/2014  04:25:00      -81.872      -48.658        8.107       46.835       31.768       26.880     2193.554     1009.198      722.528        0.653        0.196       95.240       22.687        0.057      342.781       18.431      861.298
07/03/2014  04:26:00      -64.164      -41.128        3.220       27.654       22.313       20.647      764.742      497.855      426.309        0.375        0.084       76.214       16.319        0.046      342.754       18.385      861.289
07/03/2014  04:27:00     -106.324      -50.953        4.240       52.628       37.108       23.802     2769.675     1376.980      566.553        0.932        0.236      117.902       28.201        0.057      342.713       18.313      861.300
07/03/2014  04:28:00     -117.379      -39.438        2.149       46.934       35.422       22.962     2202.818     1254.748      527.266        0.966        0.199      123.827       22.636        0.033      342.733       18.349      861.312
07/03/2014  04:29:00      -65.595      -33.835       -1.056       24.060       17.521       14.014      578.894      306.984      196.394        0.327        0.054       73.807        6.513        0.008      342.788       18.443      861.325
07/03/2014  04:30:00      -41.969      -11.826        2.841       22.393       21.686       15.319      501.435      470.301      234.668        0.156        0.060       43.604       12.476        0.082      342.775       18.420      861.341
07/03/2014  04:31:00      -37.992       -0.286        7.139       25.751       16.590       10.702      663.139      275.219      114.526        0.127        0.053       37.993       10.384        0.075      342.639       18.190      861.345
07/03/2014  04:32:00       13.373       23.798       15.262       17.600        9.810       11.795      309.767       96.235      139.126        0.076        0.027       27.298       10.045        0.135      342.496       17.948      861.359
07/03/2014  04:33:00       23.017       27.908      -10.784       19.738       18.613       13.023      389.592      346.459      169.594        0.117        0.045       36.175       10.807        0.089      342.250       17.528      861.394
07/03/2014  04:34:00       18.655       38.296        0.064       11.541       15.058       12.702      133.184      226.738      161.332        0.117        0.026       42.598        7.400        0.030      342.203       17.450      861.405
07/03/2014  04:35:00        1.937       17.111       -1.740        9.785       14.157        4.742       95.754      200.409       22.487        0.031        0.016       17.220        2.782        0.026      342.260       17.546      861.414
07/03/2014  04:36:00       11.667       22.405       -1.868        8.892       16.637        8.654       79.065      276.781       74.885        0.054        0.022       25.261        8.018        0.101      342.331       17.664      861.426
07/03/2014  04:37:00       19.580        6.375       10.016       11.106       12.837        7.388      123.350      164.779       54.589        0.043        0.017       20.592        3.935        0.037      342.414       17.807      861.410
07/03/2014  04:38:00       23.055      -23.678        8.962       39.076       20.897       15.834     1526.960      436.702      250.712        0.169        0.111       33.048        6.160        0.035      342.509       17.966      861.420
07/03/2014  04:39:00      -46.092      -32.294        8.611       29.249       20.267       16.866      855.488      410.750      284.448        0.240        0.078       56.279       15.675        0.078      342.475       17.912      861.434
07/03/2014  04:40:00      -37.309      -44.310        4.285       35.415       20.017       16.392     1254.251      400.677      268.693        0.265        0.096       57.925       13.656        0.056      342.603       18.127      861.441
07/03/2014  04:41:00      -28.698      -58.146        2.156       42.131       40.851       24.930     1775.008     1668.806      621.524        0.414        0.203       64.842       18.868        0.085      342.666       18.234      861.437
07/03/2014  04:42:00      -41.329      -68.559        3.035       38.924       35.607       27.471     1515.044     1267.875      754.648        0.498        0.177       80.053       27.093        0.115      342.656       18.220      861.432
07/03/2014  04:43:00      -79.921     -118.561        1.568       49.839       43.452       31.840     2483.920     1888.115     1013.802        1.292        0.269      142.983       30.630        0.046      342.506       17.962      861.427
07/03/2014  04:44:00     -104.401      -85.306      -12.980       28.753       35.234       19.886      826.718     1241.445      395.469        1.040        0.123      134.821        6.639        0.002      342.421       17.819      861.431
07/03/2014  04:45:00     -111.205      -72.608       -1.508       31.676       44.661       21.799     1003.346     1994.564      475.185        1.056        0.174      132.810       18.493        0.019      342.371       17.733      861.429
07/03/2014  04:46:00     -108.162      -41.803        1.402       57.828       22.692       17.856     3344.033      514.913      318.824        0.881        0.209      115.959       17.949        0.024      342.362       17.719      861.443
07/03/2014  04:47:00     -110.366      -90.464       -8.292       57.703       58.780       29.907     3329.656     3455.133      894.416        1.405        0.384      142.704       30.997        0.047      342.466       17.894      861.447
07/03/2014  04:48:00     -125.111      -43.931        1.194       49.399       50.365       27.826     2440.261     2536.602      774.285        1.167        0.288      132.600       24.273        0.034      342.426       17.827      861.433
07/03/2014  04:49:00      -95.966      -22.753        9.345       47.891       42.754       31.497     2293.573     1827.899      992.038        0.746        0.256       98.626       28.058        0.081      342.325       17.654      861.413
07/03/2014  04:50:00     -154.375      -58.859        4.855       45.315       43.112       29.304     2053.409     1858.618      858.715        1.604        0.239      165.215       26.651        0.026      342.300       17.612      861.410
07/03/2014  04:51:00     -133.972      -27.445       -0.804       57.104       50.984       31.713     3260.827     2599.388     1005.692        1.278        0.343      136.754       30.739        0.051      342.207       17.455      861.394
07/03/2014  04:52:00     -110.599      -27.387        2.654       50.074       37.618       26.259     2507.423     1415.138      689.518        0.880        0.231      113.939       28.010        0.060      342.044       17.179      861.374
07/03/2014  04:53:00     -113.318      -25.414        0.664       46.434       44.341       27.770     2156.126     1966.084      771.152        0.919        0.245      116.133       24.249        0.044      342.012       17.125      861.377
07/03/2014  04:54:00     -107.042      -10.360        7.078       54.347       42.371       29.982     2953.616     1795.271      898.903        0.863        0.282      107.542       28.139        0.068      341.973       17.058      861.368
07/03/2014  04:55:00     -111.175      -25.182        3.104       85.647       36.764       31.710     7335.445     1351.609     1005.556        1.135        0.485      113.991       41.181        0.131      342.030       17.155      861.364
07/03/2014  04:56:00     -129.140       -2.830       -1.675       52.308       42.646       28.197     2736.162     1818.657      795.048        1.102        0.267      129.171       27.186        0.044      342.035       17.162      861.377
07/03/2014  04:57:00     -170.195      -13.189       -1.025       70.182       53.678       31.240     4925.453     2881.288      975.935        1.896        0.439      170.706       31.755        0.035      342.046       17.178      861.380
07/03/2014  04:58:00     -156.757      -31.284       -5.895       55.495       43.628       31.348     3079.720     1903.424      982.667        1.577        0.298      159.848       26.050        0.027      342.087       17.249      861.370
07/03/2014  04:59:00     -183.927       -1.499      -16.226       35.354       32.362       24.053     1249.875     1047.290      578.562        1.848        0.144      183.933       19.313        0.011      342.025       17.146      861.363
07/03/2014  05:00:00     -184.352        8.863      -13.954       40.222       41.269       28.632     1617.798     1703.092      819.769        1.920        0.207      184.565       21.262        0.013      341.906       16.944      861.378
07/03/2014  05:01:00     -183.081       35.135       -9.826       47.157       37.725       23.917     2223.800     1423.149      572.007        1.953        0.211      186.422       24.367        0.017      341.887       16.910      861.370
07/03/2014  05:02:00     -155.965       27.077      -10.463       38.442       36.985       23.008     1477.799     1367.873      529.352        1.427        0.169      158.298       10.252        0.004      341.907       16.944      861.362
07/03/2014  05:03:00     -172.267       15.420      -12.851       49.007       40.933       28.221     2401.708     1675.485      796.413        1.748        0.244      172.956       29.003        0.028      341.979       17.068      861.380
07/03/2014  05:04:00     -212.750       47.127      -12.627       46.279       38.912       22.464     2141.705     1514.155      504.616        2.590        0.208      217.907       16.649        0.006      341.972       17.053      861.387
07/03/2014  05:05:00     -123.115       10.470       -8.819       50.493       41.173       24.339     2549.511     1695.187      592.403        1.009        0.242      123.559       27.356        0.049      341.953       17.023      861.393
07/03/2014  05:06:00     -128.396        1.989      -11.085       60.897       46.464       28.966     3708.451     2158.936      839.032        1.166        0.335      128.412       33.880        0.070      341.993       17.090      861.403
07/03/2014  05:07:00     -102.093      -17.502       -5.958       52.097       35.700       22.173     2714.110     1274.498      491.642        0.762        0.224      103.582       21.774        0.044      341.964       17.042      861.403
07/03/2014  05:08:00      -45.745      -10.317       -8.986       25.291       14.263       14.783      639.640      203.441      218.546        0.167        0.053       46.894       11.192        0.057      341.970       17.053      861.432
07/03/2014  05:09:00      -57.044       31.362      -19.224       20.577       32.341       16.907      423.398     1045.925      285.846        0.318        0.088       65.097       12.942        0.040      342.123       17.313      861.431
07/03/2014  05:10:00      -60.652      -12.953      -13.039       15.770       23.044       14.986      248.692      531.041      224.572        0.251        0.050       62.020        7.651        0.015      342.102       17.277      861.437
07/03/2014  05:11:00      -48.723       16.107       -0.689       34.951       28.202       21.617     1221.585      795.362      467.290        0.256        0.124       51.316       18.675        0.132      342.124       17.314      861.464
07/03/2014  05:12:00      -42.418      -19.826      -15.323       20.121       21.896       14.993      404.854      479.446      224.790        0.177        0.055       46.822        5.951        0.016      342.294       17.604      861.474
07/03/2014  05:13:00      -43.239       -6.562      -10.083       24.464       11.435       11.937      598.489      130.769      142.481        0.144        0.044       43.734       11.323        0.067      341.979       17.069      861.496
07/03/2014  05:14:00      -18.153      -18.555       -3.706       17.249       12.357        8.829      297.542      152.708       77.951        0.061        0.026       25.958        5.947        0.052      341.963       17.042      861.501
07/03/2014  05:15:00      -66.536      -37.139       -6.092       26.052       14.951       11.710      678.717      223.533      137.135        0.344        0.052       76.199        8.694        0.013      341.955       17.027      861.495
07/03/2014  05:16:00      -46.772      -19.716       -6.630       18.494       12.336        9.360      342.018      152.182       87.616        0.160        0.029       50.757        7.432        0.021      341.958       17.032      861.503
07/03/2014  05:17:00      -38.113      -21.773       -1.587       27.196       17.295       12.273      739.628      299.104      150.638        0.156        0.059       43.894       11.077        0.064      341.983       17.076      861.507
07/03/2014  05:18:00      -32.711      -18.404        0.290       13.270       11.881        9.131      176.097      141.149       83.381        0.090        0.020       37.533        7.496        0.040      342.013       17.126      861.508
07/03/2014  05:19:00      -61.672      -30.938       -5.492       27.190       16.495        7.063      739.299      272.088       49.880        0.293        0.053       68.997        5.607        0.007      342.040       17.172      861.521
07/03/2014  05:20:00      -78.068       -4.822       -8.970       24.918       15.031       10.394      620.897      225.921      108.028        0.358        0.048       78.217       10.386        0.018      341.988       17.083      861.521
07/03/2014  05:21:00      -86.567      -27.490       -9.780       14.441       15.795        8.029      208.530      249.496       64.457        0.443        0.026       90.827        4.817        0.003      341.919       16.966      861.516
07/03/2014  05:22:00      -85.570      -35.574       -3.838       19.525       20.520       11.234      381.242      421.086      126.203        0.477        0.046       92.670        7.635        0.007      341.925       16.975      861.517
07/03/2014  05:23:00      -71.041       -9.325       -8.635       21.895       21.546       13.189      479.380      464.225      173.940        0.316        0.056       71.650        9.897        0.019      341.863       16.870      861.524
07/03/2014  05:24:00     -118.312      -47.075      -12.441       18.503       18.146       13.162      342.376      329.261      173.232        0.861        0.042      127.334        9.587        0.006      341.844       16.839      861.525
07/03/2014  05:25:00      -61.259       -7.492       -5.453       38.046       20.547       13.244     1447.491      422.199      175.409        0.294        0.102       61.716       16.662        0.073      341.764       16.704      861.516
07/03/2014  05:26:00      -61.570      -20.046       -1.292       43.422       26.998       14.161     1885.463      728.888      200.534        0.350        0.141       64.752       13.386        0.043      341.785       16.739      861.511
07/03/2014  05:27:00      -78.123      -55.555       -0.930       63.742       18.834       22.503     4063.075      354.703      506.369        0.706        0.246       95.862       32.475        0.115      341.847       16.843      861.520
07/03/2014  05:28:00     -122.708      -54.312      -12.192       26.517       19.443       16.079      703.143      378.042      258.537        0.975        0.067      134.191       12.833        0.009      341.837       16.826      861.527
07/03/2014  05:29:00      -70.507      -29.325      -10.944       20.352       18.452       10.774      414.217      340.480      116.086        0.341        0.044       76.362        8.251        0.012      341.891       16.917      861.527
07/03/2014  05:30:00     -115.590       -2.648      -16.530       32.030       26.901       15.511     1025.898      723.686      240.603        0.782        0.100      115.620       13.891        0.014      341.835       16.824      861.525
07/03/2014  05:31:00     -100.780      -35.057        1.921       50.575       24.373       18.985     2557.808      594.064      360.436        0.745        0.176      106.703       18.425        0.030      341.750       16.681      861.521
07/03/2014  05:32:00      -69.542      -14.456        1.871       31.973       25.106       14.974     1022.254      630.332      224.223        0.346        0.094       71.029       13.994        0.039      341.704       16.602      861.524
07/03/2014  05:33:00      -68.196      -19.568        1.018       26.520       20.559       15.221      703.329      422.674      231.684        0.320        0.068       70.948       14.230        0.040      341.667       16.540      861.534
07/03/2014  05:34:00      -99.012      -24.913        0.005       27.983       25.508       17.181      783.066      650.647      295.184        0.608        0.086      102.098       14.612        0.020      341.858       16.862      861.546
07/03/2014  05:35:00      -76.180      -17.342        4.094       34.910       34.994       21.023     1218.729     1224.569      441.947        0.450        0.144       78.130       18.574        0.057      341.705       16.603      861.543
07/03/2014  05:36:00      -53.025       -1.200       -1.315       28.021       31.776       20.692      785.150     1009.743      428.144        0.252        0.111       53.039       16.224        0.094      341.618       16.456      861.538
07/03/2014  05:37:00      -28.869       -0.802       -3.551       15.140        9.734       12.419      229.225       94.743      154.237        0.066        0.024       28.880        6.469        0.050      341.778       16.727      861.539
07/03/2014  05:38:00      -14.253      -17.662       -2.775       51.674       20.207       15.411     2670.238      408.318      237.495        0.192        0.166       22.695       20.557        0.820      341.845       16.841      861.554
07/03/2014  05:39:00      -90.148      -15.979      -11.053       27.678       11.859       12.335      766.093      140.628      152.157        0.478        0.053       91.553        7.879        0.007      341.651       16.509      861.554
07/03/2014  05:40:00     -101.370      -49.078      -12.064       22.813       23.114       13.036      520.412      534.249      169.925        0.703        0.061      112.625       13.371        0.014      341.671       16.544      861.555
07/03/2014  05:41:00     -115.937      -22.964      -13.049       35.268       32.248       18.375     1243.867     1039.946      337.656        0.838        0.131      118.190       14.605        0.015      341.553       16.344      861.557
07/03/2014  05:42:00     -114.451       -2.604       -6.305       25.671       18.383       16.825      658.995      337.940      283.092        0.721        0.064      114.480       13.613        0.014      341.596       16.418      861.549
07/03/2014  05:43:00      -95.196      -17.143      -11.932       10.006       18.417        9.264      100.122      339.185       85.817        0.501        0.026       96.728        3.346        0.001      341.654       16.517      861.551
07/03/2014  05:44:00     -112.640      -47.931      -14.776       19.746       21.176       12.563      389.892      448.406      157.839        0.810        0.050      122.414        8.886        0.005      341.553       16.344      861.555
07/03/2014  05:45:00     -109.346      -47.525      -17.759       31.261       30.553       18.852      977.231      933.473      355.413        0.840        0.113      119.228       17.953        0.023      341.506       16.264      861.561
07/03/2014  05:46:00      -45.990      -40.058        6.131       33.408       31.447       22.188     1116.116      988.898      492.314        0.318        0.130       60.989       20.577        0.114      341.492       16.239      861.550
07/03/2014  05:47:00     -130.129      -30.287      -14.797       28.603       24.891       15.315      818.144      619.574      234.540        0.987        0.084      133.607       10.440        0.006      341.492       16.242      861.548
07/03/2014  05:48:00     -110.728      -36.454      -13.497       24.084       21.766       19.253      580.050      473.779      370.692        0.760        0.071      116.574        6.608        0.003      341.489       16.237      861.561
07/03/2014  05:49:00      -68.711      -29.609       -3.552       31.072       24.277       16.630      965.498      589.356      276.558        0.372        0.092       74.819       14.326        0.037      341.513       16.277      861.571
07/03/2014  05:50:00      -78.227      -20.868      -14.064       11.525       14.282        9.677      132.830      203.989       93.635        0.359        0.022       80.962        5.130        0.004      341.596       16.418      861.582
07/03/2014  05:51:00      -50.011      -22.141       -9.814       16.800       17.083       11.271      282.229      291.830      127.029        0.189        0.035       54.693       11.485        0.044      341.686       16.573      861.591
07/03/2014  05:52:00      -74.736      -21.339      -12.126       14.483       21.797       12.938      209.762      475.104      167.384        0.352        0.043       77.723       11.148        0.021      341.613       16.447      861.615
07/03/2014  05:53:00      -44.103      -10.131       -3.375       25.241       23.589       10.089      637.085      556.434      101.796        0.168        0.065       45.251       10.355        0.052      341.578       16.387      861.636
07/03/2014  05:54:00      -37.770       -8.623      -10.594       18.874       21.599       13.822      356.245      466.513      191.035        0.131        0.051       38.742        9.596        0.061      341.705       16.603      861.646
07/03/2014  05:55:00      -52.140      -23.717      -10.705       14.567       18.205       12.281      212.202      331.405      150.825        0.204        0.035       57.281        6.462        0.013      341.716       16.621      861.651
07/03/2014  05:56:00      -46.064      -23.035       -8.615       14.297       13.919        9.960      204.416      193.748       99.192        0.161        0.025       51.502        3.980        0.006      341.676       16.554      861.655
07/03/2014  05:57:00      -67.615       -6.723      -11.322       11.883       10.356        7.390      141.198      107.243       54.613        0.252        0.015       67.949        4.726        0.005      341.721       16.631      861.654
07/03/2014  05:58:00      -64.403      -19.239      -11.520       16.893       18.352       12.188      285.369      336.806      148.557        0.271        0.039       67.216        8.296        0.015      341.640       16.493      861.663
07/03/2014  05:59:00      -42.118      -38.244       -5.962       23.092       19.924       16.413      533.242      396.959      269.397        0.224        0.060       56.891        2.392        0.002      341.528       16.304      861.682
07/03/2014  06:00:00      -52.304      -43.851       -7.996       25.002       24.825       16.938      625.090      616.267      286.907        0.313        0.076       68.254       13.186        0.037      341.506       16.266      861.698
07/03/2014  06:01:00      -75.023      -25.493      -10.975       21.309       19.987       13.344      454.063      399.481      178.051        0.372        0.052       79.236       10.376        0.017      341.544       16.330      861.697
07/03/2014  06:02:00      -66.366       -2.982       -6.544       17.468       19.323       13.428      305.144      373.390      180.308        0.266        0.043       66.433       10.091        0.023      341.469       16.203      861.697
07/03/2014  06:03:00      -65.549       -1.359      -16.624       19.452       11.658        9.143      378.373      135.903       83.590        0.259        0.030       65.563        9.164        0.020      341.507       16.266      861.697
07/03/2014  06:04:00      -67.325       10.755      -14.443       16.969       21.763       14.159      287.951      473.636      200.478        0.291        0.048       68.179        7.035        0.011      341.517       16.284      861.691
07/03/2014  06:05:00      -79.476      -14.234      -10.176       27.965       20.132       16.564      782.069      405.281      274.358        0.404        0.073       80.740       12.930        0.026      341.554       16.347      861.687
07/03/2014  06:06:00      -81.363       -4.920       -5.852       35.300       24.449       19.536     1246.109      597.742      381.668        0.445        0.111       81.512       17.054        0.044      341.486       16.233      861.689
07/03/2014  06:07:00      -61.542       -3.820      -11.577       34.620       25.640       14.803     1198.575      657.404      219.120        0.301        0.104       61.660        8.657        0.020      341.561       16.358      861.691
07/03/2014  06:08:00      -72.592       -9.903       -5.829       37.600       25.982       16.593     1413.768      675.040      275.330        0.388        0.118       73.264       17.834        0.059      341.627       16.473      861.690
07/03/2014  06:09:00      -33.326      -14.135       -1.168       37.173       22.710       17.468     1381.821      515.761      305.145        0.176        0.110       36.200       18.638        0.265      341.663       16.530      861.700
07/03/2014  06:10:00      -79.788      -24.073      -10.328       19.701       20.026       13.691      388.125      401.060      187.445        0.401        0.049       83.340       10.475        0.016      341.668       16.540      861.708
07/03/2014  06:11:00      -54.874      -22.380       -0.760       19.620       21.616       15.529      384.932      467.249      241.148        0.230        0.055       59.262        7.903        0.018      341.678       16.557      861.714
07/03/2014  06:12:00      -18.434      -17.101       -0.473       25.557       18.521       12.843      653.179      343.022      164.955        0.090        0.058       25.144       13.854        0.304      341.849       16.848      861.713
07/03/2014  06:13:00       -8.299      -15.937        1.324        7.730       15.295        8.689       59.752      233.945       75.497        0.035        0.018       17.968        8.812        0.241      341.932       16.987      861.719
07/03/2014  06:14:00      -63.603      -47.261       -8.768       22.119       16.814       13.897      489.271      282.704      193.123        0.366        0.048       79.240        9.636        0.015      341.872       16.887      861.730
07/03/2014  06:15:00      -46.126      -18.766      -10.946       17.485       12.600       10.445      305.736      158.759      109.090        0.159        0.029       49.798       10.273        0.043      341.847       16.842      861.733
07/03/2014  06:16:00      -53.913      -37.249       -1.854       21.217       24.844       14.100      450.158      617.236      198.799        0.278        0.063       65.529        9.363        0.020      341.877       16.894      861.747
07/03/2014  06:17:00      -75.764      -38.777        2.934       30.135       21.334       14.146      908.126      455.131      200.105        0.441        0.078       85.111       12.456        0.021      341.945       17.010      861.764
07/03/2014  06:18:00      -10.220      -32.068        9.593       18.303       16.320       15.227      335.005      266.328      231.851        0.103        0.042       33.657       10.806        0.103      342.019       17.136      861.768
07/03/2014  06:19:00      -18.557      -29.764        3.487       19.425       14.638       10.908      377.315      214.272      118.981        0.098        0.036       35.075        6.178        0.031      342.003       17.108      861.776
07/03/2014  06:20:00      -12.588      -23.254        5.306       18.372       17.049       13.967      337.535      290.671      195.085        0.078        0.041       26.443        9.660        0.133      342.109       17.289      861.791
07/03/2014  06:21:00      -31.644      -36.940        2.486       18.050       14.237       10.021      325.798      202.681      100.419        0.150        0.031       48.641        9.644        0.039      342.245       17.520      861.809
07/03/2014  06:22:00      -54.393      -15.370        0.713        9.639       12.787        8.320       92.903      163.509       69.225        0.176        0.016       56.522        8.259        0.021      342.218       17.474      861.810
07/03/2014  06:23:00      -37.323      -21.166        3.590       21.860       12.493       10.780      477.844      156.082      116.208        0.130        0.038       42.907       10.247        0.057      342.150       17.359      861.820
07/03/2014  06:24:00      -13.557      -10.538        2.753       14.148       13.827       10.985      200.167      191.193      120.672        0.041        0.026       17.171        9.164        0.285      342.274       17.569      861.833
07/03/2014  06:25:00      -30.496      -20.941       -0.248       13.846        8.728       10.181      191.711       76.170      103.663        0.087        0.019       36.993        7.584        0.042      342.149       17.357      861.841
07/03/2014  06:26:00      -49.697      -25.242       -7.285        9.307        7.617        9.861       86.629       58.015       97.235        0.170        0.012       55.740        4.717        0.007      342.202       17.447      861.853
07/03/2014  06:27:00      -48.454      -32.510       -4.402       11.118        8.467        5.585      123.607       71.693       31.197        0.183        0.011       58.350        3.844        0.004      342.190       17.425      861.875
07/03/2014  06:28:00      -36.387      -38.295        1.655        8.902       10.748        8.545       79.244      115.527       73.014        0.153        0.013       52.825        6.007        0.013      342.248       17.525      861.878
07/03/2014  06:29:00      -19.423      -16.326       -4.095       19.492       17.682       10.760      379.938      312.656      115.767        0.073        0.040       25.374        7.167        0.080      342.348       17.694      861.892
07/03/2014  06:30:00       -6.752      -12.064        5.495       13.950       12.932       13.165      194.612      167.234      173.316        0.038        0.027       13.825        7.666        0.307      342.535       18.013      861.898
07/03/2014  06:31:00      -27.813      -28.097        1.611       17.414       13.914       12.395      303.233      193.601      153.626        0.111        0.033       39.535       11.902        0.091      342.308       17.627      861.893
07/03/2014  06:32:00      -37.276      -27.970       -2.857       16.857       11.966       10.971      284.172      143.189      120.362        0.136        0.027       46.603        6.832        0.021      342.299       17.610      861.905
07/03/2014  06:33:00        6.591       -3.757        2.090       10.871       11.121       11.571      118.175      123.684      133.883        0.022        0.019        7.586        7.022        0.857      342.525       17.995      861.903
07/03/2014  06:34:00        3.818       -2.526        8.273       11.114       11.055       11.014      123.518      122.224      121.303        0.023        0.018        4.578        5.959        1.694      342.704       18.300      861.909
07/03/2014  06:35:00       -5.667        3.639        6.170       16.765       12.649       12.426      281.063      160.010      154.417        0.034        0.030        6.735        6.817        1.025      342.858       18.562      861.912
07/03/2014  06:36:00       13.385       10.696        8.241       18.966       11.625       13.920      359.713      135.146      193.760        0.052        0.034       17.134       10.434        0.371      343.008       18.817      861.925
07/03/2014  06:37:00       25.045        3.099        5.125       14.721       10.148       10.759      216.700      102.975      115.746        0.055        0.022       25.236        9.494        0.142      342.859       18.564      861.935
07/03/2014  06:38:00        1.943        0.993       14.131       14.280        9.865        9.320      203.922       97.322       86.857        0.030        0.019        2.182        8.117       13.836      343.107       18.985      861.946
07/03/2014  06:39:00       19.807       18.995        6.844       22.842       14.115       12.718      521.752      199.234      161.737        0.084        0.044       27.443        8.814        0.103      342.914       18.657      861.944
07/03/2014  06:40:00       52.457       33.209        1.580       15.863       13.640       11.155      251.641      186.048      124.443        0.221        0.028       62.085        4.028        0.004      342.748       18.374      861.946
07/03/2014  06:41:00       45.476       30.272        5.593       12.788       11.294       12.923      163.534      127.559      166.999        0.174        0.023       54.630        6.532        0.014      342.803       18.469      861.946
07/03/2014  06:42:00       27.418       26.380        9.529       19.300       11.244       16.694      372.492      126.422      278.679        0.116        0.039       38.048       13.999        0.135      342.930       18.683      861.944
07/03/2014  06:43:00       20.280       30.876        9.237       15.609       16.901       14.287      243.645      285.654      204.127        0.109        0.037       36.941        5.453        0.022      342.880       18.599      861.949
07/03/2014  06:44:00       33.114       40.215        6.706       22.007       10.977       12.382      484.298      120.485      153.314        0.176        0.038       52.094        8.351        0.026      342.780       18.428      861.939
07/03/2014  06:45:00       34.689       40.951       14.156       22.330       19.675       17.700      498.630      387.089      313.283        0.214        0.060       53.669        9.943        0.034      342.815       18.489      861.945
07/03/2014  06:46:00       13.327       16.079        4.729       13.301       12.587       13.524      176.911      158.433      182.887        0.049        0.026       20.884        8.806        0.178      342.912       18.653      861.949
07/03/2014  06:47:00       13.363       29.064        0.711       11.727       13.353       16.024      137.518      178.305      256.779        0.080        0.029       31.989       11.346        0.126      342.903       18.640      861.949
07/03/2014  06:48:00       28.837       24.550        4.412       20.529       20.237       14.675      421.430      409.554      215.359        0.125        0.052       37.872        4.162        0.012      342.998       18.800      861.938
07/03/2014  06:49:00       20.019       24.961        6.399       15.628       15.420       12.268      244.233      237.778      150.511        0.085        0.032       31.997        9.277        0.084      342.913       18.656      861.924
07/03/2014  06:50:00       34.044       17.334       16.456       18.679       11.953       14.472      348.913      142.863      209.430        0.122        0.035       38.203        7.109        0.035      343.035       18.863      861.924
07/03/2014  06:51:00       37.629       33.475        8.677       13.574        9.547       13.061      184.251       91.143      170.602        0.153        0.022       50.364        4.351        0.007      342.932       18.686      861.924
07/03/2014  06:52:00       27.624       20.036       -3.065       14.665       11.198       11.636      215.049      125.391      135.393        0.082        0.024       34.125        7.568        0.049      342.993       18.792      861.920
07/03/2014  06:53:00       29.660       26.713       -0.838       15.533       11.935        9.058      241.280      142.433       82.056        0.103        0.023       39.916        5.766        0.021      342.952       18.724      861.916
07/03/2014  06:54:00       37.013       13.597        5.762       12.738        9.513       10.071      162.268       90.501      101.423        0.097        0.018       39.432        7.518        0.036      343.056       18.900      861.919
07/03/2014  06:55:00       26.713       23.381       14.916       14.755       14.858       13.648      217.698      220.752      186.255        0.105        0.031       35.500        4.070        0.013      343.125       19.017      861.916
07/03/2014  06:56:00       34.952       24.781        2.833       13.001       15.078       11.343      169.032      227.332      128.659        0.118        0.026       42.845        4.792        0.013      343.002       18.807      861.924
07/03/2014  06:57:00       43.032       26.208        9.106       12.702       14.432       13.095      161.333      208.272      171.472        0.158        0.027       50.384        8.879        0.031      343.034       18.860      861.941
07/03/2014  06:58:00       34.539       19.400        5.221       15.746       20.262       12.903      247.935      410.553      166.481        0.121        0.041       39.615        9.556        0.058      343.149       19.057      861.954
07/03/2014  06:59:00       54.047       48.046       16.003       14.104       11.744       15.605      198.921      137.929      243.507        0.303        0.029       72.315        7.865        0.012      343.014       18.828      861.967
07/03/2014  07:00:00       26.553       26.610       40.742       19.269       22.267       12.599      371.292      495.819      158.732        0.205        0.051       37.592        8.992        0.057      343.369       19.432      861.970
07/03/2014  07:01:00        2.082       19.548       24.724       28.049       24.225       21.244      786.749      586.841      451.299        0.141        0.091       19.658       11.834        0.362      343.389       19.465      861.971
07/03/2014  07:02:00       13.103      -35.204       18.189       22.036       38.579       30.235      485.577     1488.376      914.149        0.231        0.144       37.564       20.854        0.308      343.499       19.653      861.987
07/03/2014  07:03:00       12.194        2.291       26.817       21.602       27.674       27.522      466.640      765.869      757.443        0.143        0.099       12.407       12.759        1.058      343.747       20.076      861.982
07/03/2014  07:04:00        0.482      -19.819       24.761       19.492       35.716       19.117      379.957     1275.604      365.476        0.151        0.101       19.825       21.234        1.147      343.693       19.984      861.982
07/03/2014  07:05:00        0.700      -21.296       29.842       18.427       29.077       18.402      339.546      845.475      338.635        0.143        0.076       21.307       14.179        0.443      343.873       20.293      861.987
07/03/2014  07:06:00       33.079      -48.422        9.492       18.155       30.349       23.307      329.609      921.056      543.208        0.266        0.090       58.642       19.798        0.114      343.580       19.791      862.005
07/03/2014  07:07:00       19.256      -26.100       16.896       29.637       38.337       29.211      878.372     1469.693      853.274        0.227        0.160       32.435       28.632        0.779      343.785       20.142      862.016
07/03/2014  07:08:00        0.549      -17.531       13.112       32.242       35.473       19.675     1039.528     1258.321      387.099        0.158        0.134       17.540       20.196        1.326      343.569       19.775      862.012
07/03/2014  07:09:00       11.107        0.886       31.323       27.187       21.238       19.464      739.110      451.057      378.838        0.134        0.078       11.143       12.648        1.288      343.829       20.218      862.021
07/03/2014  07:10:00       12.240       -1.215       24.111       27.360       26.081       23.243      748.544      680.226      540.248        0.135        0.098       12.300       18.897        2.360      343.842       20.239      862.026
07/03/2014  07:11:00       14.955      -12.920       20.330       22.102       29.641       26.979      488.505      878.586      727.879        0.145        0.105       19.763       14.989        0.575      343.876       20.296      862.023
07/03/2014  07:12:00       -0.285      -20.078       27.577       30.655       20.842       16.245      939.720      434.391      263.897        0.140        0.082       20.080       13.687        0.465      343.827       20.214      862.033
07/03/2014  07:13:00      -20.557      -11.706        6.965       12.396        9.892       10.479      153.654       97.860      109.809        0.048        0.018       23.656        5.205        0.048      343.588       19.805      862.025
07/03/2014  07:14:00      -10.861       -1.166        4.294       25.280       17.731       18.079      639.079      314.385      326.864        0.071        0.064       10.923       14.984        1.882      343.724       20.038      862.017
07/03/2014  07:15:00       -9.134       16.269       37.857       12.574       21.347       20.248      158.102      455.706      409.982        0.140        0.051       18.657       14.542        0.608      344.201       20.851      862.011
07/03/2014  07:16:00      -12.622        9.848       40.373       10.987       14.444       13.449      120.717      208.628      180.862        0.120        0.026       16.009       10.971        0.470      344.367       21.137      862.002
07/03/2014  07:17:00      -17.548        6.979       28.328       14.422       13.847       12.058      208.002      191.743      145.398        0.085        0.027       18.885        9.916        0.276      344.091       20.664      862.009
07/03/2014  07:18:00      -11.131        4.510       25.216       12.528       11.968       15.872      156.947      143.241      251.928        0.067        0.028       12.010        7.186        0.358      344.417       21.223      861.997
07/03/2014  07:19:00      -10.304        5.461       18.048       12.535       11.206       15.095      157.124      125.583      227.863        0.049        0.026       11.661        8.379        0.516      344.188       20.830      862.001
07/03/2014  07:20:00      -22.649       -2.478       -2.010       12.486       10.515       10.365      155.906      110.555      107.441        0.045        0.019       22.784        6.499        0.081      343.628       19.874      861.999
07/03/2014  07:21:00       -9.786      -12.524       12.524       14.826       11.731       12.898      219.814      137.606      166.346        0.047        0.026       15.894       11.531        0.526      344.060       20.612      862.009
07/03/2014  07:22:00      -15.189       -8.346        7.030       11.880       11.946        8.223      141.136      142.701       67.620        0.035        0.018       17.331        6.513        0.141      343.822       20.205      862.008
07/03/2014  07:23:00      -55.389      -46.123        4.841       28.346       31.895       18.403      803.510     1017.319      338.654        0.369        0.108       72.078       14.350        0.040      343.678       19.959      862.015
07/03/2014  07:24:00      -65.249      -50.150        1.649       28.877       23.385       16.069      833.880      546.847      258.206        0.421        0.082       82.295       12.696        0.024      343.507       19.667      862.024
07/03/2014  07:25:00      -58.256      -55.237        1.438       25.644       22.381       12.423      657.598      500.899      154.342        0.388        0.066       80.281       12.927        0.026      343.562       19.762      862.029
07/03/2014  07:26:00      -50.153      -74.454       -0.146       30.689       30.955       19.338      941.815      958.199      373.955        0.517        0.114       89.770       13.717        0.023      343.629       19.876      862.029
07/03/2014  07:27:00      -38.085      -74.651       -1.004       30.872       27.747       17.437      953.099      769.911      304.049        0.453        0.101       83.805       17.027        0.041      343.655       19.919      862.026
07/03/2014  07:28:00      -46.896      -58.147        9.729       51.162       43.263       23.468     2617.599     1871.699      550.745        0.536        0.252       74.702       34.224        0.210      343.871       20.289      862.014
07/03/2014  07:29:00      -99.871      -84.915      -12.188       26.016       22.787       16.726      676.835      519.239      279.770        0.940        0.074      131.090       10.170        0.006      343.627       19.874      862.010
07/03/2014  07:30:00      -88.593      -64.513        2.493       36.609       37.753       20.372     1340.195     1425.276      415.018        0.760        0.159      109.593       12.243        0.012      343.641       19.895      862.014
07/03/2014  07:31:00      -92.311      -52.306        0.161       56.960       32.999       24.585     3244.428     1088.958      604.417        0.810        0.247      106.100       23.732        0.050      343.777       20.128      862.018
07/03/2014  07:32:00      -96.705      -41.008        7.785       53.402       40.059       20.397     2851.741     1604.686      416.041        0.798        0.244      105.041       23.062        0.048      343.784       20.140      862.016
07/03/2014  07:33:00      -53.305      -64.182        3.493       32.349       30.774       18.279     1046.468      947.069      334.110        0.465        0.116       83.431       19.740        0.056      343.808       20.181      862.014
07/03/2014  07:34:00      -42.085      -60.671       10.609       30.782       26.658       17.684      947.561      710.656      312.713        0.377        0.099       73.838       11.163        0.023      343.740       20.064      862.001
07/03/2014  07:35:00      -57.526      -78.615       -7.280       19.368       15.330       14.157      375.139      234.994      200.407        0.518        0.041       97.414        8.280        0.007      343.743       20.071      861.994
07/03/2014  07:36:00      -57.496      -80.918        1.689       27.767       29.451       20.045      771.031      867.366      401.798        0.595        0.102       99.265       12.029        0.015      343.829       20.218      861.995
07/03/2014  07:37:00      -44.434      -52.604        3.441       35.671       25.121       22.297     1272.442      631.089      497.153        0.358        0.120       68.859       20.698        0.090      343.889       20.319      861.986
07/03/2014  07:38:00      -34.276      -73.037       -3.400       18.000       26.501       11.492      323.992      702.296      132.066        0.384        0.058       80.680        4.979        0.004      343.830       20.217      861.989
07/03/2014  07:39:00      -75.034      -28.613       -0.239       39.969       24.017       17.306     1597.493      576.810      299.481        0.446        0.124       80.305       18.917        0.055      343.904       20.345      861.995
07/03/2014  07:40:00      -94.526        2.611       -0.835       39.374       28.651       19.999     1550.335      820.884      399.967        0.586        0.139       94.562       13.943        0.022      343.879       20.301      861.993
07/03/2014  07:41:00      -51.554      -61.820        7.981       31.198       28.689       23.210      973.308      823.085      538.683        0.444        0.117       80.496       14.651        0.033      343.942       20.409      861.998
07/03/2014  07:42:00      -36.574      -62.976        6.535       22.815       36.897       16.922      520.531     1361.414      286.351        0.376        0.108       72.826       20.351        0.078      344.026       20.551      862.008
07/03/2014  07:43:00      -31.447      -54.794        5.723       28.141       30.328       17.287      791.925      919.781      298.830        0.302        0.101       63.177       19.745        0.098      344.061       20.613      862.004
07/03/2014  07:44:00      -57.351      -44.295        0.921       24.318       24.533       12.385      591.379      601.878      153.387        0.330        0.067       72.465        7.964        0.012      344.056       20.603      862.009
07/03/2014  07:45:00      -47.013      -59.911       -3.809       22.651       20.392       15.613      513.056      415.817      243.780        0.349        0.059       76.155       13.084        0.030      344.091       20.666      862.006
07/03/2014  07:46:00      -35.312      -33.491        1.720       18.148       24.627       15.023      329.334      606.472      225.696        0.177        0.058       48.668       10.124        0.043      344.246       20.929      862.006
07/03/2014  07:47:00      -29.956       -9.365        8.584       14.487       28.492       11.321      209.883      811.789      128.171        0.110        0.057       31.385        7.255        0.053      344.268       20.967      862.000
07/03/2014  07:48:00      -30.700      -31.668        2.101       18.984       20.603       14.850      360.390      424.490      220.537        0.148        0.050       44.106       11.764        0.071      344.245       20.927      861.999
07/03/2014  07:49:00      -14.918      -23.324       -1.220       12.701       14.805        9.598      161.323      219.175       92.114        0.062        0.024       27.687        6.386        0.053      344.434       21.251      861.997
07/03/2014  07:50:00      -27.210      -32.596        3.349       22.288       14.444       11.646      496.758      208.624      135.628        0.133        0.042       42.461        7.385        0.030      344.333       21.078      861.981
07/03/2014  07:51:00      -34.272      -31.415       -6.439       10.267        7.817        9.645      105.408       61.099       93.033        0.123        0.013       46.492        5.562        0.014      344.211       20.870      861.975
07/03/2014  07:52:00      -31.648      -16.138       -5.987       15.430       11.704        6.695      238.080      136.976       44.820        0.086        0.021       35.525        7.231        0.041      344.285       20.996      861.977
07/03/2014  07:53:00       -4.104      -15.621        5.357        9.272        9.400        8.776       85.963       88.364       77.025        0.027        0.013       16.151        2.937        0.033      344.541       21.434      861.988
07/03/2014  07:54:00      -13.491       -5.060       10.673        6.969        6.397        8.939       48.573       40.925       79.904        0.025        0.008       14.409        5.968        0.172      344.793       21.864      861.994
07/03/2014  07:55:00      -12.252      -39.672        4.549       16.391       21.806       16.921      268.678      475.509      286.312        0.139        0.052       41.520       14.919        0.129      344.642       21.607      861.999
07/03/2014  07:56:00      -13.547      -57.442       -0.062       10.682       10.161        9.381      114.116      103.243       88.012        0.189        0.015       59.017        4.923        0.007      344.335       21.082      862.002
07/03/2014  07:57:00      -24.090      -55.220        3.148       10.711       17.151        9.986      114.730      294.166       99.711        0.207        0.025       60.246        8.430        0.020      344.423       21.231      862.013
07/03/2014  07:58:00        4.696      -48.077        4.338       10.154       12.498       10.727      103.097      156.199      115.074        0.136        0.019       48.306        3.369        0.005      344.447       21.270      862.021
07/03/2014  07:59:00      -44.649      -55.844       -1.570       21.738       19.726       11.888      472.556      389.098      141.326        0.306        0.050       71.499       10.738        0.023      344.507       21.374      862.021
07/03/2014  08:00:00      -43.797       -6.790        1.840       15.027       18.382       10.754      225.819      337.890      115.638        0.132        0.034       44.321       10.258        0.054      344.565       21.473      862.021
07/03/2014  08:01:00      -32.205       10.986       -4.694       10.824       11.037        9.134      117.160      121.816       83.422        0.075        0.016       34.028        6.003        0.031      344.570       21.482      862.022
07/03/2014  08:02:00      -13.745       11.021       11.836       19.325       10.883       17.383      373.437      118.442      302.160        0.062        0.040       17.618        3.799        0.047      345.214       22.585      862.031
07/03/2014  08:03:00      -26.527       -2.975        3.683       10.725        9.404       12.421      115.030       88.434      154.280        0.054        0.018       26.693        8.210        0.095      344.749       21.789      862.041
07/03/2014  08:04:00      -39.608      -36.891       -8.699       25.344       23.164       14.637      642.297      536.581      214.243        0.220        0.070       54.127        5.751        0.011      344.691       21.690      862.046
07/03/2014  08:05:00      -47.702     -119.773        5.633       28.853       38.304       20.261      832.508     1467.203      410.492        0.968        0.136      128.923       25.045        0.038      344.652       21.622      862.051
07/03/2014  08:06:00      -21.478      -70.782        5.823       21.539       30.933       20.860      463.914      956.871      435.152        0.368        0.093       73.969       15.673        0.045      344.801       21.876      862.059
07/03/2014  08:07:00      -29.314      -89.696        3.122       25.195       37.894       22.792      634.792     1435.988      519.489        0.575        0.130       94.365       16.547        0.031      344.738       21.769      862.059
07/03/2014  08:08:00      -41.802      -75.940       -4.631       18.227       26.747       15.475      332.232      715.380      239.478        0.441        0.064       86.685       11.492        0.018      344.683       21.675      862.075
07/03/2014  08:09:00      -17.023      -74.799       -3.361       27.977       30.386       13.576      782.735      923.284      184.311        0.389        0.095       76.711        5.364        0.005      344.726       21.749      862.084
07/03/2014  08:10:00      -33.441      -57.149       -3.567       31.959       18.892       15.782     1021.387      356.913      249.067        0.301        0.081       66.214       12.708        0.037      344.782       21.846      862.095
07/03/2014  08:11:00      -53.007     -130.625        4.366       31.178       38.896       21.392      972.042     1512.860      457.604        1.142        0.147      140.971       19.125        0.018      344.784       21.847      862.103
07/03/2014  08:12:00      -47.225     -161.174        0.369       33.250       51.921       22.937     1105.567     2695.815      526.093        1.627        0.216      167.950       14.447        0.007      344.801       21.876      862.102
07/03/2014  08:13:00      -83.465     -120.078      -16.606       41.913       37.674       22.478     1756.665     1419.322      505.259        1.267        0.184      146.237       16.392        0.013      344.845       21.952      862.102
07/03/2014  08:14:00      -48.176      -51.651       -0.892       46.678       37.929       25.953     2178.821     1438.644      673.559        0.464        0.215       70.631       25.640        0.132      345.186       22.539      862.102
07/03/2014  08:15:00      -81.907      -68.028        9.735       76.543       39.398       27.380     5858.891     1552.238      749.682        0.979        0.408      106.474       29.385        0.076      345.070       22.339      862.103
07/03/2014  08:16:00      -65.080      -88.703        5.464       29.545       48.041       19.976      872.927     2307.933      399.044        0.786        0.179      110.017       10.483        0.009      344.802       21.878      862.099
07/03/2014  08:17:00      -66.777     -137.220       -7.592       29.342       29.146       21.314      860.939      849.489      454.266        1.276        0.108      152.605       15.970        0.011      344.738       21.768      862.111
07/03/2014  08:18:00      -77.170     -101.162        0.721       37.421       37.284       20.387     1400.331     1390.067      415.612        0.970        0.160      127.235       19.635        0.024      344.808       21.890      862.113
07/03/2014  08:19:00      -70.264      -60.527       -0.294       35.084       28.591       15.068     1230.919      817.472      227.053        0.544        0.114       92.739       14.879        0.026      344.881       22.013      862.128
07/03/2014  08:20:00      -81.970      -18.122       -2.950       23.201       18.218       11.367      538.304      331.881      129.200        0.403        0.050       83.949       10.865        0.017      344.810       21.892      862.127
07/03/2014  08:21:00      -29.209       -7.302        5.081       16.366       12.850       15.434      267.848      165.121      238.223        0.080        0.034       30.108       12.788        0.180      345.233       22.618      862.132
07/03/2014  08:22:00      -25.960       -2.377       20.623       33.422       17.943       19.355     1117.026      321.958      374.628        0.146        0.091       26.069       21.632        0.689      345.796       23.585      862.134
07/03/2014  08:23:00      -21.965      -13.746       20.789       18.028       25.285       16.234      325.017      639.313      263.536        0.117        0.061       25.912       14.894        0.330      345.638       23.313      862.137
07/03/2014  08:24:00      -20.289       -8.379       33.160       20.673       28.533       19.180      427.355      814.160      367.881        0.160        0.080       21.951       19.220        0.767      346.024       23.976      862.141
07/03/2014  08:25:00      -26.559        1.801       18.336       28.099       25.568       23.592      789.579      653.740      556.559        0.152        0.100       26.620       18.091        0.462      345.922       23.802      862.148
07/03/2014  08:26:00        2.608       -1.816       30.807       18.386       22.432       24.460      338.030      503.190      598.304        0.120        0.072        3.178        9.733        9.383      346.262       24.383      862.148
07/03/2014  08:27:00       -1.527       33.060       72.469       29.601       49.087       33.527      876.212     2409.572     1124.036        0.538        0.220       33.095       32.696        0.976      345.869       23.709      862.154
07/03/2014  08:28:00      -66.668      -31.759        5.075       22.492       19.654       14.394      505.891      386.265      207.197        0.329        0.055       73.846       10.463        0.020      345.183       22.531      862.155
07/03/2014  08:29:00      -51.626      -54.758        4.708       51.063       54.227       27.075     2607.462     2940.574      733.075        0.598        0.314       75.257       33.910        0.203      345.348       22.816      862.154
07/03/2014  08:30:00      -64.679      -88.196       -2.457       33.335       41.712       26.471     1111.209     1739.850      700.720        0.776        0.178      109.370       18.833        0.030      345.002       22.222      862.150
07/03/2014  08:31:00      -61.137      -53.743        1.866       26.610       24.376       17.385      708.111      594.176      302.229        0.412        0.080       81.400        8.678        0.011      345.008       22.232      862.144
07/03/2014  08:32:00      -50.501      -31.763       -2.162       22.486       22.155       15.693      505.640      490.846      246.260        0.240        0.062       59.659       13.381        0.050      345.021       22.254      862.152
07/03/2014  08:33:00      -57.702      -35.744        3.104       38.352       35.223       20.440     1470.875     1240.637      417.805        0.387        0.156       67.876       19.554        0.083      345.118       22.421      862.143
07/03/2014  08:34:00      -57.214      -58.227        7.352       62.082       29.520       29.121     3854.136      871.444      848.026        0.614        0.279       81.632       35.570        0.190      345.162       22.495      862.150
07/03/2014  08:35:00      -80.863      -47.100       -0.989       23.376       22.689       12.466      546.431      514.794      155.409        0.499        0.061       93.580       10.745        0.013      344.997       22.214      862.146
07/03/2014  08:36:00      -89.668      -39.849        3.668       34.030       26.289       16.662     1158.037      691.126      277.609        0.588        0.106       98.124       14.675        0.022      345.018       22.248      862.151
07/03/2014  08:37:00      -76.142       -0.909       -1.155       26.520       21.601       17.423      703.303      466.599      303.572        0.364        0.074       76.148       12.919        0.029      345.070       22.338      862.157
07/03/2014  08:38:00      -65.371      -34.610       -3.724       35.098       22.956       18.721     1231.838      526.995      350.471        0.380        0.105       73.968       11.463        0.024      345.142       22.461      862.143
07/03/2014  08:39:00      -62.908      -28.017       14.297       39.576       34.461       23.301     1566.260     1187.552      542.930        0.412        0.165       68.865       18.724        0.074      345.405       22.913      862.149
07/03/2014  08:40:00      -41.896      -28.810       17.928       39.041       31.919       25.725     1524.171     1018.831      661.767        0.306        0.160       50.845       23.546        0.214      345.791       23.574      862.143
07/03/2014  08:41:00       -9.652        1.671       31.417       19.261       27.922       16.069      370.984      779.658      258.229        0.125        0.070        9.796       12.058        1.515      346.451       24.708      862.146
07/03/2014  08:42:00      -12.666        0.499        9.882       17.097       22.743       21.249      292.293      517.239      451.539        0.076        0.063       12.676       13.758        1.178      345.884       23.736      862.154
07/03/2014  08:43:00      -11.700       -0.952       33.268       21.419       35.897       19.905      458.763     1288.623      396.228        0.169        0.107       11.739       18.636        2.520      346.183       24.249      862.147
07/03/2014  08:44:00       81.845      -76.928       -5.465       37.796       46.452       24.956     1428.549     2157.763      622.823        0.843        0.210      112.323       25.017        0.050      345.590       23.230      862.161
07/03/2014  08:45:00       18.249       16.021       19.342       24.956       33.681       38.999      622.826     1134.434     1520.911        0.212        0.164       24.284       28.892        1.416      346.026       23.978      862.144
07/03/2014  08:46:00       -7.577       17.882       14.034       24.661       22.764       22.757      608.163      518.191      517.866        0.111        0.082       19.421       10.055        0.268      345.969       23.880      862.148
07/03/2014  08:47:00       12.978       25.188       25.990       25.520       23.703       17.653      651.295      561.842      311.616        0.150        0.076       28.335       11.417        0.162      346.282       24.418      862.143
07/03/2014  08:48:00       26.324       36.646       44.929       45.731       31.164       24.843     2091.302      971.218      617.172        0.387        0.184       45.121       20.230        0.201      346.432       24.675      862.149
07/03/2014  08:49:00       41.393       31.927       37.919       27.358       25.510       31.166      748.457      650.747      971.323        0.327        0.119       52.275        7.793        0.022      346.249       24.361      862.151
07/03/2014  08:50:00       11.070       13.775       27.086       33.814       15.904       14.788     1143.374      252.952      218.689        0.133        0.081       17.672        7.859        0.198      346.188       24.256      862.151
07/03/2014  08:51:00        2.874       -3.626       28.040       34.032       24.996       19.464     1158.159      624.823      378.839        0.148        0.108        4.627       21.613       21.823      346.165       24.217      862.158
07/03/2014  08:52:00      -15.019      -13.895       22.037       32.686       17.195       22.054     1068.352      295.685      486.383        0.138        0.093       20.460       22.241        1.182      346.149       24.190      862.154
07/03/2014  08:53:00      -15.205      -21.927       -1.870       17.171        9.952       11.955      294.835       99.049      142.932        0.063        0.027       26.683        6.329        0.056      345.599       23.244      862.157
07/03/2014  08:54:00       -1.502       -9.270       22.749       22.248       24.603       23.503      494.959      605.322      552.368        0.113        0.083        9.391       12.654        1.816      346.652       25.054      862.159
07/03/2014  08:55:00      -11.842       18.709       66.677       23.110       61.241       33.166      534.082     3750.446     1100.013        0.516        0.269       22.141       34.680        2.453      346.768       25.253      862.151
07/03/2014  08:56:00       50.419      -29.276       26.626       77.986       74.257       56.736     6081.769     5514.166     3219.013        0.946        0.741       58.303       63.018        1.168      346.572       24.916      862.153
07/03/2014  08:57:00       14.337       38.932       61.734       38.174       50.698       44.550     1457.257     2570.250     1984.683        0.577        0.301       41.488       39.850        0.923      346.451       24.707      862.150
07/03/2014  08:58:00        9.556     -105.330        5.048       41.896       51.039       35.860     1755.283     2605.007     1285.904        0.843        0.282      105.762       24.305        0.053      346.113       24.127      862.155
07/03/2014  08:59:00       -0.755      -43.544       38.754       22.837       63.843       37.641      521.508     4075.891     1416.870        0.471        0.301       43.551       41.999        0.930      346.359       24.550      862.161
07/03/2014  09:00:00       14.968        7.998       39.059       25.642       31.030       22.268      657.494      962.870      495.867        0.196        0.106       16.971       17.333        1.043      346.526       24.837      862.169
07/03/2014  09:01:00       32.268      -51.872       19.818       33.276       48.317       29.970     1107.301     2334.485      898.211        0.423        0.217       61.089       24.171        0.157      346.335       24.510      862.173
07/03/2014  09:02:00       19.975       23.311       48.181       49.119       38.147       32.770     2412.694     1455.230     1073.880        0.410        0.247       30.698       28.845        0.883      346.049       24.017      862.174
07/03/2014  09:03:00       58.449       43.046       78.499       43.501       47.106       27.703     1892.375     2219.007      767.444        0.815        0.244       72.590       29.800        0.169      346.012       23.953      862.179
07/03/2014  09:04:00       39.756       65.445       45.423       35.312       48.136       34.214     1246.968     2317.114     1170.612        0.633        0.237       76.574       30.508        0.159      345.732       23.472      862.190
07/03/2014  09:05:00       14.789       -6.378       25.847       27.762       36.764       23.517      770.736     1351.611      553.070        0.180        0.134       16.105       25.394        2.486      346.096       24.098      862.184
07/03/2014  09:06:00       53.017       21.057       59.755       63.133       65.237       50.181     3985.765     4255.931     2518.136        0.879        0.538       57.046       46.276        0.658      346.110       24.122      862.181
07/03/2014  09:07:00       66.261       -5.560       37.561       62.728       48.314       43.869     3934.781     2334.253     1924.530        0.701        0.410       66.493       39.987        0.362      346.000       23.935      862.183
07/03/2014  09:08:00       40.250      -31.554       32.822       52.162       75.338       45.636     2720.924     5675.834     2082.639        0.708        0.524       51.144       56.037        1.201      346.609       24.980      862.183
07/03/2014  09:09:00       48.959      -54.101        0.809       50.207       57.722       51.533     2520.763     3331.791     2655.661        0.691        0.425       72.965       36.870        0.255      346.319       24.481      862.191
07/03/2014  09:10:00       44.763      -48.617        3.879       72.212       69.907       54.395     5214.512     4886.964     2958.863        0.872        0.653       66.086       55.736        0.711      346.386       24.596      862.190
07/03/2014  09:11:00       36.736      -13.059       32.373       56.056       62.283       45.818     3142.327     3879.209     2099.330        0.584        0.456       38.988       44.114        1.280      346.258       24.376      862.195
07/03/2014  09:12:00       22.139      -19.747       24.297       41.595       50.338       45.054     1730.132     2533.883     2029.851        0.388        0.315       29.666       34.110        1.322      346.320       24.484      862.184
07/03/2014  09:13:00       74.412      -70.027        2.820       72.743       74.127       59.382     5291.529     5494.743     3526.261        1.238        0.716      102.181       53.539        0.275      346.389       24.602      862.185
07/03/2014  09:14:00       19.485      -17.549       32.015       50.299       48.979       51.646     2530.005     2398.981     2667.341        0.465        0.380       26.222       38.799        2.189      346.685       25.112      862.190
07/03/2014  09:15:00       24.295      -44.479       33.273       36.871       56.069       37.749     1359.439     3143.760     1425.016        0.480        0.296       50.681       34.026        0.451      346.791       25.292      862.197
07/03/2014  09:16:00       57.740      -55.731       22.689       48.756       77.224       46.830     2377.183     5963.581     2193.047        0.874        0.527       80.249       52.502        0.428      346.523       24.833      862.185
07/03/2014  09:17:00       37.450       37.906       55.613       50.364       43.763       33.495     2536.495     1915.211     1121.904        0.575        0.279       53.285       27.537        0.267      346.282       24.419      862.184
07/03/2014  09:18:00       49.317      -48.952       16.578       49.225       65.363       43.235     2423.116     4272.351     1869.286        0.683        0.428       69.487       43.845        0.398      346.355       24.545      862.174
07/03/2014  09:19:00       32.699       28.296       58.921       47.299       36.603       31.762     2237.158     1339.785     1008.794        0.496        0.229       43.242       32.978        0.582      346.492       24.780      862.166
07/03/2014  09:20:00       -4.654      -49.285       22.060       48.115       68.116       39.768     2315.083     4639.777     1581.464        0.574        0.427       49.505       31.118        0.395      346.549       24.877      862.152
07/03/2014  09:21:00       27.398      -48.036        7.895       37.056       67.574       43.204     1373.172     4566.286     1866.625        0.546        0.390       55.300       37.303        0.455      346.658       25.063      862.147
07/03/2014  09:22:00       20.873      -51.131       13.192       47.562       73.548       41.454     2262.172     5409.338     1718.420        0.631        0.469       55.227       37.985        0.473      346.585       24.937      862.145
07/03/2014  09:23:00       -0.875        5.002       47.638       18.292       34.543       17.432      334.610     1193.231      303.878        0.206        0.092        5.078       17.982       12.538      347.185       25.971      862.132
07/03/2014  09:24:00      -13.605      -28.076       13.017       23.044       24.205       21.496      531.020      585.873      462.094        0.136        0.079       31.199       11.682        0.140      346.813       25.331      862.134
07/03/2014  09:25:00      -10.398        4.298       18.381       30.763       27.401       43.461      946.344      750.803     1888.895        0.202        0.179       11.251       22.516        4.005      347.264       26.110      862.132
07/03/2014  09:26:00       38.888      -26.948       26.667       40.665       48.942       32.841     1653.619     2395.336     1078.556        0.404        0.256       47.312       27.250        0.332      346.463       24.730      862.113
07/03/2014  09:27:00       13.760        8.504       21.872       37.331       43.538       31.152     1393.611     1895.586      970.453        0.250        0.213       16.176       28.103        3.018      346.412       24.642      862.101
07/03/2014  09:28:00       39.415      -63.872       -2.226       52.818       51.420       37.547     2789.704     2644.061     1409.760        0.624        0.342       75.054       33.397        0.198      346.675       25.095      862.092
07/03/2014  09:29:00       15.784       69.024      101.600       53.955       70.212       37.569     2911.103     4929.704     1411.395        1.229        0.463       70.806       40.863        0.333      347.085       25.800      862.070
07/03/2014  09:30:00       10.248       20.116       78.663       33.366       88.423       46.312     1113.279     7818.644     2144.784        0.889        0.554       22.576       52.681        5.445      347.167       25.940      862.056
07/03/2014  09:31:00       22.828      -62.265       23.761       37.089       58.987       37.011     1375.594     3479.472     1369.808        0.559        0.311       66.318       30.408        0.210      347.376       26.303      862.051
07/03/2014  09:32:00       15.685      -38.812       29.723       41.633       70.086       39.393     1733.324     4912.039     1551.814        0.542        0.410       41.861       47.718        1.299      347.539       26.582      862.041
07/03/2014  09:33:00       -8.379       -5.630       37.732       19.001       43.419       24.409      361.022     1885.250      595.820        0.218        0.142       10.095       28.414        7.923      347.939       27.273      862.031
07/03/2014  09:34:00        1.925      -19.756       38.949       43.842       66.844       42.525     1922.131     4468.131     1808.398        0.505        0.410       19.849       44.061        4.928      347.410       26.359      862.022
07/03/2014  09:35:00      -28.139      -10.757       26.746       31.964       47.696       29.349     1021.667     2274.955      861.350        0.289        0.208       30.125       19.373        0.414      347.607       26.701      862.024
07/03/2014  09:36:00      -52.373       -0.487       14.354       37.952       35.504       25.368     1440.385     1260.565      643.528        0.315        0.167       52.375       25.229        0.232      347.288       26.151      862.017
07/03/2014  09:37:00      -22.297      -21.449        0.334       21.740       26.749       21.663      472.637      715.487      469.268        0.131        0.083       30.939       11.520        0.139      347.203       26.002      861.997
07/03/2014  09:38:00      -21.772       -7.296       30.942       29.588       36.790       30.710      875.449     1353.485      943.103        0.233        0.159       22.962       29.811        1.686      347.783       27.004      861.998
07/03/2014  09:39:00       50.917      -62.432        5.378       69.803       64.106       51.671     4872.481     4109.635     2669.894        0.908        0.583       80.562       47.464        0.347      347.372       26.293      861.983
07/03/2014  09:40:00       60.099     -118.019      -11.030       61.261       75.282       49.380     3752.942     5667.446     2438.369        1.476        0.593      132.440       45.274        0.117      347.159       25.928      861.972
07/03/2014  09:41:00       67.953      -41.185       29.144       89.942       81.472       69.247     8089.554     6637.623     4795.133        1.334        0.976       79.460       67.834        0.729      347.467       26.457      861.970
07/03/2014  09:42:00       31.670      -19.814       46.809       63.201       80.264       56.377     3994.327     6442.277     3178.315        0.860        0.681       37.357       60.757        2.645      347.654       26.781      861.974
07/03/2014  09:43:00       46.713       -5.567       25.724       19.319       30.471       29.839      373.235      928.467      890.392        0.253        0.110       47.043       12.768        0.074      347.242       26.068      861.980
07/03/2014  09:44:00      -12.109        1.988       27.179       18.422       14.799       11.932      339.363      219.002      142.366        0.079        0.035       12.271        3.986        0.106      348.079       27.515      861.952
07/03/2014  09:45:00      -15.735        9.214       26.893       20.437       16.297       17.724      417.670      265.588      314.150        0.103        0.050       18.234       14.328        0.617      348.122       27.590      861.948
07/03/2014  09:46:00        4.109      -54.032       20.816       33.141       71.807       43.028     1098.294     5156.185     1851.439        0.574        0.405       54.188       34.959        0.416      347.886       27.182      861.927
07/03/2014  09:47:00       19.273     -100.893       20.739       40.452       61.808       55.303     1636.390     3820.271     3058.414        0.975        0.426      102.717       39.811        0.150      347.414       26.366      861.922
07/03/2014  09:48:00        8.765      -61.157       26.612       26.419       53.173       38.643      697.989     2827.419     1493.280        0.477        0.251       61.782       33.608        0.296      347.715       26.886      861.920
07/03/2014  09:49:00       52.751      -99.532        1.399       65.654       58.163       50.577     4310.455     3382.896     2558.018        1.147        0.513      112.646       43.323        0.148      347.470       26.462      861.906
07/03/2014  09:50:00       49.416      -28.067       16.517       56.655       56.532       52.078     3209.759     3195.828     2712.095        0.631        0.456       56.831       39.147        0.474      347.698       26.856      861.898
07/03/2014  09:51:00       20.533        7.455       48.720       37.650       34.576       34.530     1417.546     1195.508     1192.303        0.333        0.190       21.844        9.932        0.207      348.166       27.665      861.890
07/03/2014  09:52:00       13.900       41.333       52.011       46.197       38.591       29.945     2134.175     1489.277      896.697        0.456        0.226       43.608       22.168        0.258      347.813       27.055      861.886
07/03/2014  09:53:00       -3.076      -25.775       15.137       22.564       61.958       42.252      509.136     3838.807     1785.234        0.352        0.307       25.958       41.745        2.586      347.604       26.694      861.862
07/03/2014  09:54:00       12.789       40.724       72.059       35.690       67.758       43.759     1273.767     4591.081     1914.851        0.740        0.389       42.685       49.048        1.320      348.034       27.438      861.853
07/03/2014  09:55:00       31.618       39.295       55.098       68.051       68.821       41.421     4630.883     4736.305     1715.740        0.833        0.554       50.437       34.310        0.463      347.730       26.911      861.833
07/03/2014  09:56:00       31.421       13.159       79.591       48.331       68.193       46.771     2335.931     4650.287     2187.562        0.833        0.459       34.065       40.952        1.445      348.113       27.574      861.833
07/03/2014  09:57:00      115.876       52.313       57.978       51.499       49.443       48.958     2652.113     2444.645     2396.899        1.351        0.375      127.138       42.408        0.111      347.288       26.149      861.826
07/03/2014  09:58:00       48.508       -5.237       27.153       93.657       94.244       42.229     8771.580     8881.977     1783.323        1.127        0.972       48.790       28.823        0.349      347.552       26.604      861.817
07/03/2014  09:59:00       45.047       86.626       90.390       58.110       50.826       44.823     3376.720     2583.281     2009.083        1.284        0.398       97.639       41.357        0.179      347.705       26.870      861.805
07/03/2014  10:00:00       29.671       20.866       35.713       47.040       59.957       36.484     2212.787     3594.860     1331.090        0.486        0.357       36.274       11.982        0.109      347.592       26.673      861.800
07/03/2014  10:01:00        7.503       17.953       50.114       40.939       39.244       33.415     1675.996     1540.072     1116.557        0.361        0.217       19.458       33.678        2.996      348.446       28.148      861.794
07/03/2014  10:02:00      -52.219      -95.043       15.162       42.243       53.481       36.441     1784.487     2860.168     1327.950        0.898        0.299      108.443       31.976        0.087      347.722       26.898      861.786
07/03/2014  10:03:00       -8.264     -102.322        1.416       58.471       66.412       44.201     3418.842     4410.599     1953.730        1.016        0.489      102.655       42.114        0.168      347.874       27.159      861.783
07/03/2014  10:04:00       43.449        2.693       39.805       30.523       83.126       42.559      931.634     6910.007     1811.299        0.656        0.483       43.532       36.465        0.702      347.933       27.262      861.787
07/03/2014  10:05:00       62.836       36.062        4.388       26.799       19.144       31.036      718.198      366.491      963.258        0.366        0.102       72.449       20.209        0.078      347.295       26.161      861.784
07/03/2014  10:06:00       36.762       38.487       14.886       21.288       28.914       27.451      453.159      836.035      753.536        0.255        0.102       53.223       14.531        0.075      347.807       27.044      861.790
07/03/2014  10:07:00       24.679       -2.487       15.987       33.561       26.907       21.496     1126.327      723.964      462.074        0.159        0.116       24.804       16.419        0.438      348.029       27.426      861.790
07/03/2014  10:08:00       20.799      -15.258       10.086       31.802       32.493       33.235     1011.376     1055.792     1104.533        0.197        0.159       25.795       26.064        1.021      348.320       27.931      861.782
07/03/2014  10:09:00       56.972      -72.993      -13.503       58.337       85.319       46.079     3403.244     7279.273     2123.263        1.078        0.640       92.595       49.980        0.291      348.279       27.860      861.777
07/03/2014  10:10:00       25.787      -85.787       -8.220       61.796       73.078       45.730     3818.705     5340.370     2091.243        0.967        0.563       89.579       37.743        0.178      348.089       27.530      861.754
07/03/2014  10:11:00       12.897      -31.296       48.627       42.312      115.566       62.888     1790.277    13355.437     3954.899        1.130        0.955       33.849       77.327        5.219      348.346       27.976      861.751
07/03/2014  10:12:00       53.469     -153.891      -19.579       74.779       75.964       50.833     5591.969     5770.575     2583.971        2.043        0.697      162.915       33.585        0.042      347.874       27.158      861.739
07/03/2014  10:13:00       84.493      -61.938       14.475       98.415      129.222       81.080     9685.610    16698.240     6574.028        2.207        1.648      104.764       98.437        0.883      348.170       27.670      861.731
07/03/2014  10:14:00       44.144     -103.687       -5.286       68.554      122.918       70.836     4699.609    15108.740     5017.765        1.877        1.241      112.693       70.457        0.391      348.179       27.683      861.704
07/03/2014  10:15:00      111.350     -128.520      -27.455       91.022      102.529       73.564     8284.933    10512.115     5411.627        2.694        1.210      170.048       77.251        0.206      348.099       27.546      861.708
07/03/2014  10:16:00       71.432       27.415       81.082       74.343       97.272       80.822     5526.814     9461.795     6532.252        1.697        1.076       76.513       77.076        1.015      348.286       27.870      861.703
07/03/2014  10:17:00       84.141      105.343      106.889       68.607       63.577       56.868     4706.983     4042.071     3233.926        2.079        0.599      134.822       48.927        0.132      348.081       27.515      861.709
07/03/2014  10:18:00        9.872       80.858       92.749       47.275       54.397       40.293     2234.897     2959.025     1623.553        1.103        0.341       81.458       35.052        0.185      348.435       28.129      861.712
07/03/2014  10:19:00       69.461       58.411       36.608       44.201       43.910       33.951     1953.753     1928.086     1152.699        0.730        0.252       90.756       18.321        0.041      348.389       28.050      861.700
07/03/2014  10:20:00       27.449        3.193       36.626       32.643       27.072       30.502     1065.589      732.901      930.384        0.242        0.136       27.634       14.203        0.264      348.745       28.667      861.690
07/03/2014  10:21:00       31.643      -38.471       22.182       35.912       62.592       33.755     1289.656     3917.775     1139.388        0.466        0.317       49.812       20.982        0.177      348.551       28.331      861.693
07/03/2014  10:22:00       35.483     -120.885        7.528       57.460       67.224       41.353     3301.636     4519.109     1710.111        1.273        0.477      125.985       42.011        0.111      348.375       28.026      861.696
07/03/2014  10:23:00       47.740     -108.479      -11.300       63.910       66.585       43.930     4084.510     4433.583     1929.846        1.231        0.522      118.519       43.704        0.136      348.425       28.112      861.696
07/03/2014  10:24:00       66.978      -83.069       -3.261       53.275       67.738       45.299     2838.241     4588.501     2051.971        1.044        0.474      106.708       41.966        0.155      348.602       28.419      861.709
07/03/2014  10:25:00       37.966      -53.881       33.593       58.515      100.083       59.481     3424.063    10016.607     3537.960        1.122        0.849       65.913       65.357        0.983      348.719       28.620      861.711
07/03/2014  10:26:00       13.732     -100.529       -0.560       47.520       42.475       48.117     2258.187     1804.130     2315.228        0.834        0.319      101.463       17.754        0.031      348.294       27.886      861.709
07/03/2014  10:27:00       35.362      -56.544       17.053       46.826       59.799       47.685     2192.699     3575.974     2273.826        0.639        0.402       66.691       43.858        0.432      348.722       28.626      861.695
07/03/2014  10:28:00       23.090      -12.764       43.150       38.046       58.171       42.821     1447.509     3383.913     1833.656        0.461        0.333       26.383       42.520        2.597      349.000       29.107      861.690
07/03/2014  10:29:00       48.093      -24.907       17.952       54.987       56.982       36.179     3023.535     3246.912     1308.886        0.542        0.379       54.160       34.256        0.400      348.893       28.922      861.686
07/03/2014  10:30:00       41.803      -99.611       18.281       58.027       85.875       52.164     3367.127     7374.523     2721.072        1.273        0.673      108.027       47.771        0.196      348.753       28.679      861.688
07/03/2014  10:31:00       46.952      -64.834       27.037       68.450       82.549       56.369     4685.416     6814.263     3177.508        1.091        0.734       80.050       44.490        0.309      348.767       28.704      861.691
07/03/2014  10:32:00      -70.218      -35.794        0.897       65.789       65.332       36.610     4328.231     4268.318     1340.324        0.807        0.497       78.815       24.036        0.093      348.543       28.315      861.691
07/03/2014  10:33:00     -100.228      -42.825        4.948       71.130       57.223       39.967     5059.546     3274.485     1597.365        1.092        0.497      108.994       38.161        0.123      348.236       27.785      861.688
07/03/2014  10:34:00      -77.969      -51.608        2.863       45.555       56.086       28.798     2075.244     3145.664      829.318        0.740        0.303       93.502       20.396        0.048      348.139       27.618      861.668
07/03/2014  10:35:00      -99.668     -112.035        4.219       56.041       57.485       35.573     3140.568     3304.488     1265.406        1.511        0.386      149.952       31.875        0.045      348.113       27.572      861.674
07/03/2014  10:36:00     -172.408      -70.803       -2.580       57.480       48.065       31.583     3303.956     2310.287      997.504        2.068        0.331      186.380       21.568        0.013      348.104       27.554      861.673
07/03/2014  10:37:00     -133.986      -92.488        7.507       67.260       72.495       37.693     4523.915     5255.473     1420.726        1.888        0.560      162.807       39.879        0.060      348.381       28.033      861.665
07/03/2014  10:38:00     -107.312       -9.601      -24.935       49.828       52.318       37.797     2482.844     2737.223     1428.628        0.944        0.332      107.741       27.152        0.064      348.260       27.827      861.662
07/03/2014  10:39:00      -40.137      -54.910       10.732       44.331       96.184       33.439     1965.238     9251.311     1118.137        0.854        0.617       68.015       36.190        0.283      348.570       28.364      861.654
07/03/2014  10:40:00       -7.584      -97.605        9.315       74.696       66.688       47.363     5579.506     4447.356     2243.269        1.097        0.614       97.900       34.410        0.124      348.434       28.128      861.664
07/03/2014  10:41:00       11.473      -25.546       38.464       55.025       85.099       62.357     3027.775     7241.796     3888.386        0.821        0.708       28.004       57.470        4.211      349.122       29.318      861.654
07/03/2014  10:42:00      -14.446      -93.410       13.489       66.118       93.495       63.438     4371.628     8741.349     4024.442        1.312        0.857       94.521       66.550        0.496      348.627       28.460      861.667
07/03/2014  10:43:00       -9.204     -143.172      -20.122       67.243       81.105       45.561     4521.679     6577.944     2075.821        1.708        0.659      143.468       31.745        0.049      348.342       27.968      861.676
07/03/2014  10:44:00      -37.136     -151.453      -15.213       60.960       76.533       46.602     3716.105     5857.309     2171.731        1.814        0.587      155.939       34.832        0.050      348.697       28.581      861.658
07/03/2014  10:45:00       17.404      -54.895       19.547       70.804       87.383       53.479     5013.170     7635.752     2860.026        0.960        0.775       57.588       55.205        0.919      349.093       29.269      861.670
07/03/2014  10:46:00      -42.438      -43.065        0.592       49.957       71.491       55.953     2495.704     5110.964     3130.691        0.719        0.537       60.461       31.534        0.272      348.503       28.247      861.666
07/03/2014  10:47:00      -22.753        2.711       41.933       28.104       25.596       23.637      789.819      655.170      558.691        0.214        0.100       22.914       20.990        0.839      349.315       29.654      861.671
07/03/2014  10:48:00       43.228       40.813       62.861       43.989       55.157       46.871     1935.068     3042.270     2196.895        0.733        0.359       59.450       47.337        0.634      348.566       28.356      861.664
07/03/2014  10:49:00        7.516       -8.513       13.370       60.507       52.200       38.345     3661.037     2724.814     1470.353        0.408        0.393       11.356       35.711        9.889      348.640       28.483      861.665
07/03/2014  10:50:00     -126.849      -81.189        1.652      101.811       58.459       38.849    10365.480     3417.404     1509.235        1.899        0.765      150.606       43.522        0.084      348.330       27.946      861.660
07/03/2014  10:51:00     -127.621      -95.068       -4.210       62.385       69.893       31.233     3891.917     4884.971      975.480        1.755        0.488      159.138       28.889        0.033      348.232       27.776      861.648
07/03/2014  10:52:00     -162.640       -0.598      -25.359       45.670       45.485       21.336     2085.726     2068.867      455.207        1.585        0.230      162.641       15.029        0.009      348.063       27.484      861.648
07/03/2014  10:53:00      -15.292      -36.201      -11.212       33.190       38.782       19.653     1101.548     1504.005      386.228        0.233        0.150       39.298       17.661        0.202      348.180       27.689      861.637
07/03/2014  10:54:00      -12.033       18.641       24.430       31.376       24.386       24.745      984.425      594.674      612.312        0.164        0.110       22.187       20.084        0.819      349.191       29.438      861.628
07/03/2014  10:55:00       68.995       -9.823       50.849       76.166       72.410       54.941     5801.232     5243.158     3018.512        1.075        0.703       69.691       55.868        0.643      349.149       29.366      861.613
07/03/2014  10:56:00       51.255       56.417       61.192       41.147       33.299       29.901     1693.075     1108.845      894.091        0.662        0.185       76.223       22.762        0.089      348.698       28.583      861.609
07/03/2014  10:57:00       30.590        4.697       36.291       36.276       41.453       41.415     1315.933     1718.313     1715.203        0.351        0.237       30.948       26.601        0.739      349.127       29.328      861.582
07/03/2014  10:58:00       72.945      -84.685       44.719       67.632      112.367       61.353     4574.144    12626.453     3764.187        1.773        1.048      111.770       59.222        0.281      349.212       29.472      861.569
07/03/2014  10:59:00       38.674       24.661       42.984       68.144       65.195       49.526     4643.565     4250.324     2452.805        0.765        0.567       45.868       30.443        0.441      349.173       29.408      861.587
07/03/2014  11:00:00       82.236        3.074       54.443       63.209      117.599       65.184     3995.353    13829.455     4248.916        1.590        1.104       82.293       74.472        0.819      349.063       29.215      861.589
07/03/2014  11:01:00       44.204       58.973       74.166       82.246       88.366       83.061     6764.423     7808.623     6899.192        1.620        1.074       73.700       72.724        0.974      348.747       28.667      861.596
07/03/2014  11:02:00       61.598       88.059       89.030       78.582       73.543       48.408     6175.171     5408.636     2343.305        1.670        0.696      107.465       43.390        0.163      349.119       29.313      861.595
07/03/2014  11:03:00       76.538       76.404       69.802       59.171       42.443       39.198     3501.249     1801.443     1536.462        1.170        0.342      108.146       36.833        0.116      348.717       28.615      861.605
07/03/2014  11:04:00       70.720       46.469       91.228       73.852       67.974       51.142     5454.188     4620.429     2615.509        1.408        0.635       84.621       51.718        0.374      348.935       28.995      861.591
07/03/2014  11:05:00       71.926      -67.732       25.626       71.493      149.604       66.642     5111.266    22381.304     4441.131        2.117        1.597       98.798       95.752        0.939      348.726       28.631      861.587
07/03/2014  11:06:00       54.386      -52.437        2.187       57.067       75.954       52.125     3256.594     5769.045     2716.985        0.873        0.587       75.548       45.320        0.360      349.258       29.555      861.568
07/03/2014  11:07:00       95.290       29.245       49.958       99.854       63.214       47.270     9970.818     3995.983     2234.487        1.431        0.810       99.677       47.819        0.230      349.190       29.435      861.574
07/03/2014  11:08:00       97.857      -20.345       44.124       73.205       50.458       42.335     5358.949     2546.054     1792.243        1.082        0.485       99.950       36.265        0.132      349.198       29.449      861.573
07/03/2014  11:09:00       33.711      -96.178        0.133       53.071       91.672       46.457     2816.478     8403.727     2158.275        1.188        0.669      101.915       47.253        0.215      349.426       29.845      861.572
07/03/2014  11:10:00      104.358     -151.442      -15.262      109.495      104.364       56.317    11989.047    10891.916     3171.633        3.005        1.303      183.917       62.438        0.115      349.112       29.298      861.579
07/03/2014  11:11:00       23.326     -132.649       22.890      110.962      102.082       74.150    12312.473    10420.817     5498.194        2.344        1.412      134.684       69.566        0.267      349.287       29.604      861.564
07/03/2014  11:12:00       -4.459      -39.879        8.141       58.916       64.118       46.944     3471.124     4111.134     2203.752        0.573        0.489       40.127       42.371        1.115      349.689       30.303      861.584
07/03/2014  11:13:00      -27.471      -66.498        5.118       43.332       39.312       30.314     1877.658     1545.458      918.941        0.477        0.217       71.949       12.464        0.030      349.119       29.313      861.575
07/03/2014  11:14:00      -45.258      -64.180        8.504       52.672       62.578       32.797     2774.326     3916.028     1075.658        0.700        0.388       78.533       29.308        0.139      349.478       29.937      861.556
07/03/2014  11:15:00      -77.311      -69.956       15.471       75.520       66.563       38.676     5703.240     4430.686     1495.841        1.137        0.581      104.263       40.726        0.153      349.177       29.414      861.552
07/03/2014  11:16:00     -100.056     -123.558        4.275       81.772       82.988       43.057     6686.707     6886.988     1853.895        2.036        0.771      158.990       42.460        0.071      349.125       29.323      861.533
07/03/2014  11:17:00     -229.783     -148.706       -4.574      143.388       97.722       58.846    20560.154     9549.573     3462.908        5.425        1.679      273.704       62.139        0.052      348.707       28.596      861.527
07/03/2014  11:18:00     -186.588      -55.652        1.985       86.949       63.405       41.083     7560.075     4020.255     1687.813        2.559        0.663      194.711       45.573        0.055      348.803       28.762      861.524
07/03/2014  11:19:00     -199.001       18.551       -1.566      105.701       65.194       32.641    11172.784     4250.284     1065.453        2.822        0.824      199.864       43.159        0.047      348.785       28.733      861.496
07/03/2014  11:20:00      -74.417      -71.031       12.395       84.324       66.260       29.643     7110.474     4390.389      878.719        1.156        0.619      102.875       37.535        0.133      349.114       29.303      861.506
07/03/2014  11:21:00       -7.461      -27.252       -2.713       60.367       70.135       45.569     3644.231     4918.924     2076.548        0.572        0.532       28.255       36.608        1.679      349.448       29.883      861.486
07/03/2014  11:22:00       24.873      -40.002       39.603       75.952       96.253       73.653     5768.677     9264.582     5424.778        1.212        1.023       47.104       53.357        1.283      349.375       29.756      861.465
07/03/2014  11:23:00       35.599     -147.705      -16.861       58.684       73.165       58.386     3443.823     5353.109     3408.955        1.778        0.610      151.934       43.271        0.081      349.029       29.155      861.475
07/03/2014  11:24:00        2.328      -68.509       39.657       59.050      109.725       68.886     3486.851    12039.680     4745.251        1.327        1.014       68.549       56.383        0.677      349.798       30.490      861.459
07/03/2014  11:25:00      -16.092       -0.917       89.084       69.652      103.250       50.639     4851.373    10660.554     2564.340        1.313        0.904       16.118       59.941       13.830      349.499       29.972      861.472
07/03/2014  11:26:00       89.711      114.358       90.215       59.274       47.661       62.934     3513.364     2271.567     3960.708        1.950        0.487      145.347       48.572        0.112      348.565       28.353      861.475
07/03/2014  11:27:00       -1.166      -33.690      -14.317       32.849       53.477       29.347     1079.034     2859.831      861.242        0.307        0.240       33.710       21.695        0.414      348.871       28.882      861.454
07/03/2014  11:28:00       14.695      -44.116       15.116       41.501       69.002       34.978     1722.360     4761.258     1223.444        0.505        0.385       46.500       40.212        0.748      349.528       30.024      861.455
07/03/2014  11:29:00       54.130     -160.748       -9.111       64.567       71.959       60.143     4168.884     5178.050     3617.198        2.091        0.648      169.617       52.041        0.094      349.096       29.271      861.450
07/03/2014  11:30:00        8.664      -30.826       46.205       59.739       79.571       74.474     3568.746     6331.614     5546.351        0.930        0.772       32.021       63.539        3.938      349.441       29.873      861.433
07/03/2014  11:31:00       58.025      -40.595       53.781       92.732      149.494       89.651     8599.155    22348.532     8037.219        2.344        1.949       70.816      108.004        2.326      349.387       29.774      861.428
07/03/2014  11:32:00       49.499      -54.597       19.684       63.440       71.303       48.658     4024.587     5084.136     2367.614        0.865        0.574       73.696       53.513        0.527      349.506       29.984      861.438
07/03/2014  11:33:00       90.385     -109.664      -18.151       75.901       76.967       49.628     5760.897     5923.892     2462.978        1.733        0.707      142.112       53.963        0.144      349.116       29.306      861.422
07/03/2014  11:34:00       66.603       47.066       90.131       74.686      116.532       75.072     5578.062    13579.633     5635.792        1.978        1.240       81.554       80.211        0.967      349.294       29.616      861.413
07/03/2014  11:35:00       51.004      -72.707       42.446       87.828       83.101       57.368     7713.797     6905.840     3291.141        1.380        0.896       88.813       56.813        0.409      349.315       29.652      861.379
07/03/2014  11:36:00       26.721        8.392       77.961       60.674       78.729       50.574     3681.322     6198.249     2557.735        0.965        0.622       28.008       53.721        3.679      349.670       30.269      861.362
07/03/2014  11:37:00       50.816       39.362       81.924       74.437       65.137       55.790     5540.838     4242.820     3112.469        1.187        0.645       64.278       61.287        0.909      349.484       29.945      861.363
07/03/2014  11:38:00       78.465       94.323       81.270       80.375       59.615       44.004     6460.219     3553.986     1936.366        1.680        0.598      122.693       26.675        0.047      349.643       30.220      861.341
07/03/2014  11:39:00       10.906       26.461       60.067       32.292       49.988       37.006     1042.802     2498.844     1369.472        0.467        0.246       28.621       18.914        0.437      350.068       30.959      861.338
07/03/2014  11:40:00       60.959       68.470       19.426       60.001       37.528       40.597     3600.108     1408.359     1648.113        0.772        0.333       91.674       30.458        0.110      349.493       29.962      861.338
07/03/2014  11:41:00      110.318       98.571       27.926       52.364       38.373       40.289     2741.960     1472.467     1623.187        1.425        0.292      147.940       20.000        0.018      349.434       29.860      861.327
07/03/2014  11:42:00       37.819       92.960      110.983       65.858       68.670       52.755     4337.277     4715.581     2783.055        1.711        0.592      100.358       53.689        0.286      349.473       29.926      861.312
07/03/2014  11:43:00       96.920      -11.525       82.346       94.678      124.358       61.250     8963.906    15464.977     3751.560        2.224        1.409       97.603       59.567        0.372      349.604       30.153      861.292
07/03/2014  11:44:00      189.359       72.758       26.703      101.525       71.150       71.916    10307.290     5062.316     5171.947        3.120        1.027      202.856       56.184        0.077      349.188       29.430      861.279
07/03/2014  11:45:00      239.402      120.453       30.600       95.842       65.841       66.353     9185.660     4334.976     4402.699        4.534        0.896      267.997       46.633        0.030      349.234       29.509      861.259
07/03/2014  11:46:00       43.071       68.117       86.073       57.381       76.024       50.429     3292.622     5779.575     2543.065        1.276        0.581       80.592       36.740        0.208      349.889       30.648      861.276
07/03/2014  11:47:00      112.160     -101.099       25.035      151.944      177.430       73.738    23086.977    31481.529     5437.338        4.171        3.000      151.000      118.838        0.619      349.869       30.613      861.275
07/03/2014  11:48:00      157.123     -114.034       12.393      117.456      134.637       86.597    13795.873    18127.075     7499.015        3.863        1.971      194.143       89.160        0.211      349.679       30.282      861.245
07/03/2014  11:49:00      108.435      -33.214       59.542      117.476      166.697      110.659    13800.692    27788.018    12245.341        3.511        2.692      113.408      131.825        1.351      349.566       30.087      861.246
07/03/2014  11:50:00      180.862     -216.425       -6.744      109.905      156.533       85.428    12079.211    24502.425     7297.934        6.173        2.194      282.047      115.856        0.169      349.096       29.270      861.258
07/03/2014  11:51:00       62.777     -106.525      -11.476       56.373       50.202       39.877     3177.893     2520.278     1590.138        1.135        0.364      123.647       25.438        0.042      349.443       29.876      861.254
07/03/2014  11:52:00       99.198     -101.505      -13.655       57.167       65.586       37.097     3268.112     4301.571     1376.201        1.464        0.447      141.928       36.677        0.067      349.392       29.787      861.240
07/03/2014  11:53:00       38.675      -59.504       10.722       45.997       80.683       40.352     2115.770     6509.770     1628.266        0.770        0.513       70.968       44.475        0.393      349.884       30.640      861.226
07/03/2014  11:54:00       54.851      -17.816       43.679       51.304       82.624       55.075     2632.141     6826.670     3033.245        0.886        0.625       57.671       53.705        0.867      350.029       30.893      861.197
07/03/2014  11:55:00       13.727      -53.166       46.926       46.952       74.726       43.614     2204.477     5583.987     1902.146        0.745        0.485       54.910       42.452        0.598      349.965       30.780      861.173
07/03/2014  11:56:00       71.181     -157.621      -22.795       67.845       62.323       38.179     4602.881     3884.193     1457.648        2.019        0.497      172.949       37.377        0.047      349.766       30.432      861.193
07/03/2014  11:57:00       78.884      -84.379       12.840       48.214       49.223       50.445     2324.544     2422.929     2544.703        1.040        0.365      115.510       37.377        0.105      350.217       31.219      861.178
07/03/2014  11:58:00        1.055      -80.794       -6.652       77.789       78.128       44.416     6051.167     6103.907     1972.769        1.035        0.706       80.800       38.651        0.229      349.711       30.341      861.190
07/03/2014  11:59:00      -85.878     -171.581       -3.490       98.171       84.918       53.946     9637.467     7211.112     2910.132        2.829        0.988      191.873       51.859        0.073      349.407       29.809      861.227
07/03/2014  12:00:00     -107.956     -110.177        0.231       74.769       74.698       31.706     5590.424     5579.812     1005.253        1.798        0.609      154.252       30.261        0.038      349.265       29.563      861.237
07/03/2014  12:01:00     -172.141     -129.435        6.455       92.239       74.438       51.357     8507.952     5541.033     2637.514        3.155        0.834      215.374       50.400        0.055      349.240       29.519      861.244
07/03/2014  12:02:00     -155.653     -128.475       -5.753      103.608       62.135       41.780    10734.638     3860.765     1745.602        2.855        0.817      201.826       44.473        0.049      349.044       29.180      861.239
07/03/2014  12:03:00       12.343       41.772      -17.270       37.607       59.407       35.169     1414.300     3529.181     1236.849        0.419        0.309       43.558       23.045        0.280      349.316       29.653      861.223
07/03/2014  12:04:00       77.082       30.136      -23.783       31.191       33.499       37.134      972.895     1122.200     1378.941        0.544        0.174       82.763       21.545        0.068      349.013       29.130      861.207
07/03/2014  12:05:00       70.296       36.499       15.067       31.002       31.387       27.238      961.135      985.138      741.893        0.459        0.134       79.207       18.877        0.057      349.128       29.326      861.202
07/03/2014  12:06:00       70.978      -12.444       19.609       49.323       39.404       36.407     2432.767     1552.698     1325.466        0.544        0.266       72.060       22.685        0.099      349.518       30.004      861.187
07/03/2014  12:07:00       79.130       58.480       67.675      104.677      100.500       67.419    10957.223    10100.211     4545.345        1.993        1.280       98.394       60.243        0.375      349.754       30.411      861.168
07/03/2014  12:08:00       94.994       67.686      103.008      125.250       95.724       85.762    15687.451     9163.054     7355.088        2.821        1.610      116.641       99.595        0.729      349.723       30.358      861.179
07/03/2014  12:09:00       86.316      -39.395       63.950       82.700      142.681       80.147     6839.359    20357.962     6423.528        2.335        1.681       94.881       94.266        0.987      349.698       30.315      861.158
07/03/2014  12:10:00       38.237        0.072       65.854       70.373       82.935       71.245     4952.418     6878.154     5075.863        1.135        0.845       38.238       60.031        2.465      350.090       30.997      861.138
07/03/2014  12:11:00       52.230      -19.144       66.675       69.860      103.338       74.797     4880.478    10678.755     5594.618        1.434        1.058       55.628       75.275        1.831      350.075       30.972      861.164
07/03/2014  12:12:00      105.795      120.437      113.535       92.217       96.505       69.092     8503.992     9313.201     4773.749        3.059        1.130      160.305       61.310        0.146      349.533       30.030      861.153
07/03/2014  12:13:00      118.475       91.262       60.848       78.861       58.967       56.560     6219.001     3477.113     3199.064        1.948        0.645      149.549       31.425        0.044      349.517       30.000      861.147
07/03/2014  12:14:00      107.406      115.852        2.251       93.775       78.102       54.174     8793.664     6099.954     2934.771        2.139        0.891      157.980       44.030        0.078      349.582       30.113      861.129
07/03/2014  12:15:00       14.485      139.441       -3.439       53.320       94.021       45.630     2843.014     8839.858     2082.141        1.671        0.688      140.192       45.927        0.107      349.720       30.353      861.112
07/03/2014  12:16:00       80.670       90.691       11.791       41.230       71.506       39.344     1699.925     5113.067     1547.956        1.161        0.418      121.378       35.766        0.087      349.594       30.137      861.135
07/03/2014  12:17:00       -6.699       31.222       22.538       42.928       33.654       34.028     1842.851     1132.568     1157.922        0.283        0.207       31.932       14.992        0.220      350.058       30.942      861.173
07/03/2014  12:18:00      -18.245       39.686       30.092       26.824       27.949       27.036      719.536      781.123      730.921        0.252        0.112       43.680       18.461        0.179      350.392       31.523      861.168
07/03/2014  12:19:00       64.224       -5.046       19.273       67.636       59.829       49.353     4574.653     3579.510     2435.741        0.755        0.529       64.422       36.541        0.322      349.997       30.837      861.166
07/03/2014  12:20:00     -100.448     -182.420      -10.140       56.520       67.892       46.848     3194.534     4609.267     2194.757        2.673        0.500      208.247       27.847        0.018      349.457       29.895      861.147
07/03/2014  12:21:00      -30.513      -84.674       -3.004       97.936       82.074       39.239     9591.459     6736.167     1539.689        1.299        0.893       90.005       24.245        0.073      349.576       30.105      861.129
07/03/2014  12:22:00      136.212      -76.970       33.952      104.716      112.477       76.513    10965.490    12651.052     5854.188        2.755        1.474      156.455       73.611        0.221      350.013       30.862      861.088
07/03/2014  12:23:00       29.418      -93.494       49.480       90.588       80.811       56.450     8206.244     6530.369     3186.577        1.499        0.896       98.013       53.665        0.300      350.229       31.239      861.077
07/03/2014  12:24:00       24.588     -102.583        0.283       79.330       40.369       36.745     6293.326     1629.674     1350.216        1.020        0.464      105.489       23.141        0.048      350.029       30.892      861.096
07/03/2014  12:25:00       -2.608      -87.752       12.338       74.123       60.922       41.056     5494.287     3711.517     1685.557        0.937        0.545       87.791       41.469        0.223      350.283       31.333      861.093
07/03/2014  12:26:00       22.173      -36.740       43.263       55.540       56.603       36.774     3084.658     3203.877     1352.296        0.568        0.382       42.912       35.220        0.674      350.637       31.950      861.083
07/03/2014  12:27:00       37.133      -25.205       56.301       52.966       88.662       52.253     2805.369     7860.863     2730.333        0.929        0.670       44.880       57.553        1.645      350.347       31.445      861.073
07/03/2014  12:28:00       34.940       88.971      110.793       65.591       84.780       71.327     4302.218     7187.702     5087.480        1.899        0.829       95.585       67.539        0.499      350.152       31.104      861.057
07/03/2014  12:29:00       89.693       -3.807       63.811       92.716      110.682       70.385     8596.179    12250.493     4954.006        1.896        1.290       89.774       68.616        0.584      349.763       30.428      861.030
07/03/2014  12:30:00        0.070      -26.339        4.131       80.804       43.127       30.244     6529.320     1859.933      914.703        0.501        0.465       26.339       21.929        0.693      350.039       30.911      861.038
07/03/2014  12:31:00      -71.453      -67.696        4.981       61.596       90.239       35.688     3794.127     8143.081     1273.599        1.146        0.661       98.429       33.761        0.118      350.001       30.842      861.025
07/03/2014  12:32:00      -69.786     -106.433        6.454       78.698       67.143       45.218     6193.393     4508.210     2044.675        1.449        0.637      127.272       47.344        0.138      349.860       30.599      861.038
07/03/2014  12:33:00      -94.052     -123.553       12.879       79.063      127.987       66.931     6250.985    16380.566     4479.821        2.569        1.356      155.277       83.503        0.289      349.731       30.372      861.034
07/03/2014  12:34:00       51.042       69.975       85.152       73.730       81.270       50.168     5436.053     6604.867     2516.783        1.465        0.728       86.613       51.136        0.349      350.398       31.532      861.028
07/03/2014  12:35:00       57.777       45.006       39.545       52.834       45.774       38.253     2791.431     2095.297     1463.260        0.664        0.317       73.237       21.049        0.083      350.222       31.228      861.024
07/03/2014  12:36:00       55.505       19.200       29.747       57.435       48.144       34.334     3298.828     2317.821     1178.793        0.556        0.340       58.732       27.431        0.218      350.204       31.195      861.007
07/03/2014  12:37:00       78.260       55.094       42.214       74.371       95.950       65.350     5530.993     9206.460     4270.641        1.497        0.950       95.707       29.070        0.092      350.363       31.470      860.963
07/03/2014  12:38:00      -25.901      -94.145       16.863      122.079       80.898       61.119    14903.395     6544.439     3735.589        1.750        1.259       97.643       60.965        0.390      350.280       31.325      860.986
07/03/2014  12:39:00     -169.567     -102.991        1.161      132.875       73.661       44.667    17655.664     5425.913     1995.130        3.221        1.254      198.393       66.096        0.111      350.004       30.847      860.989
07/03/2014  12:40:00      -78.413      -88.912        7.341       99.545       58.387       49.228     9909.251     3408.993     2423.441        1.492        0.787      118.549       46.557        0.154      350.103       31.019      860.992
07/03/2014  12:41:00        7.768      -75.101       36.289       97.335       89.765       52.762     9474.074     8057.759     2783.863        1.366        1.016       75.502       49.365        0.427      350.557       31.810      860.992
07/03/2014  12:42:00       39.125      -54.372       42.886       78.244      130.969       70.113     6122.143    17152.991     4915.894        1.725        1.410       66.986       83.282        1.546      350.328       31.411      860.998
07/03/2014  12:43:00      -23.162       75.772      106.746       42.677       69.149       45.577     1821.314     4781.645     2077.253        1.317        0.434       79.233       45.697        0.333      350.520       31.746      860.973
07/03/2014  12:44:00        7.460      -84.054       28.263       69.750      104.191       58.889     4864.995    10855.747     3467.957        1.355        0.959       84.385       60.580        0.515      350.270       31.309      860.973
07/03/2014  12:45:00      103.778     -211.670        0.710      130.547      164.943       79.754    17042.507    27206.160     6360.724        5.308        2.530      235.742       92.872        0.155      350.018       30.870      860.954
07/03/2014  12:46:00      -20.791     -122.858        4.188      103.975       94.267       65.227    10810.839     8886.351     4254.533        1.974        1.198      124.605       53.506        0.184      349.797       30.489      860.988
07/03/2014  12:47:00      -60.319      -88.053        5.909       67.656       60.778       43.577     4577.337     3694.004     1898.994        1.080        0.509      106.732       37.476        0.123      349.961       30.772      860.987
07/03/2014  12:48:00      -29.209      -15.720       -2.224       54.475       52.592       34.329     2967.490     2765.916     1178.473        0.401        0.346       33.171       15.839        0.228      350.397       31.531      860.991
07/03/2014  12:49:00     -219.649      -73.502      -15.605       81.943       94.516       44.876     6714.607     8933.262     2013.868        3.577        0.883      231.621       40.704        0.031      349.844       30.567      860.992
07/03/2014  12:50:00     -201.322      -42.471       -7.663       50.504       69.177       44.631     2550.676     4785.431     1991.932        2.586        0.466      205.753       28.372        0.019      349.548       30.053      860.992
07/03/2014  12:51:00      -95.764      -37.274      -35.019       41.216       45.403       27.583     1698.738     2061.462      760.803        0.815        0.226      102.762       20.033        0.038      349.526       30.018      860.981
07/03/2014  12:52:00      -26.879      -31.460        7.749       46.050       48.323       26.955     2120.649     2335.067      726.558        0.348        0.259       41.379       20.782        0.252      349.936       30.730      860.988
07/03/2014  12:53:00      -81.181      -96.383      -13.737      116.456       65.948       30.095    13561.896     4349.162      905.682        1.744        0.941      126.016       32.304        0.066      349.758       30.421      860.979
07/03/2014  12:54:00       29.306     -131.303       -9.087      113.196       81.243       42.268    12813.224     6600.378     1786.555        1.969        1.060      134.534       46.016        0.117      349.886       30.642      860.968
07/03/2014  12:55:00      120.679      -86.575       41.699      137.931      197.353      106.753    19025.029    38948.333    11396.222        4.657        3.468      148.521      125.823        0.718      350.315       31.385      860.939
07/03/2014  12:56:00       44.941       75.469      138.092       89.076      160.579       87.503     7934.608    25785.670     7656.754        3.407        2.069       87.837      107.675        1.503      350.202       31.190      860.949
07/03/2014  12:57:00      271.283     -296.834      -54.748      127.849      151.256       72.881    16345.430    22878.342     5311.579       10.461        2.227      402.126       84.794        0.044      349.729       30.367      860.908
07/03/2014  12:58:00      159.498     -191.006      -51.380      141.842      144.810       65.975    20119.293    20969.970     4352.723        5.499        2.272      248.843       71.613        0.083      349.823       30.532      860.948
07/03/2014  12:59:00       12.600      -39.889       55.178       70.842      113.120       72.276     5018.581    12796.225     5223.831        1.391        1.152       41.832       54.454        1.695      350.347       31.445      860.958
07/03/2014  13:00:00       57.035     -122.931       11.202       85.555      138.629       70.375     7319.596    19218.059     4952.632        2.499        1.575      135.518       77.382        0.326      350.007       30.853      860.967
07/03/2014  13:01:00       33.303      -49.434       51.236       85.857       90.704       63.979     7371.364     8227.306     4093.309        1.293        0.985       59.606       63.311        1.128      350.281       31.329      860.971
07/03/2014  13:02:00      -92.090     -112.434      -18.587       44.803       47.976       27.134     2007.275     2301.740      736.256        1.326        0.252      145.334       20.163        0.019      349.421       29.835      860.971
07/03/2014  13:03:00      -81.162      -38.627      -14.781       37.089       53.928       21.811     1375.597     2908.246      475.715        0.653        0.238       89.885       23.041        0.066      349.353       29.719      860.942
07/03/2014  13:04:00       10.199      -67.919       16.806       51.663       82.685       47.076     2669.071     6836.856     2216.155        0.836        0.586       68.681       48.471        0.498      350.254       31.285      860.928
07/03/2014  13:05:00       71.851        7.148       74.954       95.197      132.122       73.808     9062.559    17456.168     5447.565        2.139        1.598       72.205       87.943        1.483      350.120       31.050      860.929
07/03/2014  13:06:00       58.672       38.846       39.755       82.791       72.002       43.584     6854.317     5184.328     1899.596        1.023        0.697       70.367       26.097        0.138      350.191       31.174      860.899
07/03/2014  13:07:00       -2.468      -30.591       11.028       26.783       27.300       25.012      717.317      745.278      625.611        0.158        0.104       30.691       10.629        0.120      350.452       31.627      860.889
07/03/2014  13:08:00       48.212       25.596       18.219       50.639       44.042       31.063     2564.306     1939.719      964.934        0.439        0.273       54.585       23.911        0.192      350.310       31.380      860.867
07/03/2014  13:09:00       92.030       53.222       52.063       76.332       55.852       67.664     5826.500     3119.450     4578.454        1.377        0.676      106.311       39.865        0.141      350.085       30.988      860.863
07/03/2014  13:10:00       57.361       38.291       79.507       90.873       80.099       55.076     8257.950     6415.875     3033.411        1.439        0.885       68.968       32.628        0.224      350.423       31.576      860.840
07/03/2014  13:11:00      164.041      131.541       80.066      127.616       93.953       67.531    16285.838     8827.093     4560.423        4.014        1.484      210.268       46.744        0.049      350.344       31.437      860.818
07/03/2014  13:12:00      228.766      145.828       86.224      151.802      106.352      104.212    23043.930    11310.700    10860.242        6.312        2.261      271.293       87.628        0.104      350.158       31.111      860.800
07/03/2014  13:13:00      105.885       53.171       -7.257       95.663       60.743       42.764     9151.397     3689.744     1828.726        1.438        0.733      118.486       40.398        0.116      349.818       30.525      860.840
07/03/2014  13:14:00      -39.676      145.688      -12.955       66.572      104.068       50.534     4431.834    10830.078     2553.731        2.039        0.891      150.994       42.382        0.079      350.200       31.189      860.808
07/03/2014  13:15:00      -15.241      177.490       13.035       82.770      113.355       68.263     6850.927    12849.326     4659.849        2.813        1.218      178.143       60.275        0.114      350.198       31.183      860.777
07/03/2014  13:16:00      -60.038       71.495       -3.435       72.218       89.438       43.024     5215.438     7999.090     1851.092        1.189        0.753       93.361       38.495        0.170      350.149       31.101      860.791
07/03/2014  13:17:00       49.853     -166.841      -34.701       67.674       84.794       29.466     4579.740     7190.011      868.217        2.208        0.632      174.130       31.142        0.032      350.084       30.985      860.800
07/03/2014  13:18:00      -62.284      -99.916       -1.245       58.020       75.910       44.152     3366.288     5762.346     1949.370        1.247        0.554      117.740       40.760        0.120      350.186       31.164      860.798
07/03/2014  13:19:00     -117.419     -100.960        0.657       61.448       75.678       46.257     3775.825     5727.163     2139.694        1.781        0.582      154.855       41.497        0.072      350.111       31.032      860.779
07/03/2014  13:20:00     -183.349      -51.919       -7.612       73.089       55.002       33.300     5341.956     3025.253     1108.874        2.292        0.474      190.558       27.510        0.021      350.023       30.881      860.776
07/03/2014  13:21:00     -159.692      -66.747       -3.301       45.894       38.724       26.727     2106.221     1499.526      714.306        1.714        0.216      173.080       23.903        0.019      350.022       30.878      860.768
07/03/2014  13:22:00     -139.335      -28.162      -15.199       35.083       25.908       27.953     1230.833      671.208      781.355        1.156        0.134      142.152       20.319        0.020      349.861       30.599      860.740
07/03/2014  13:23:00      -26.840      -33.199        0.465       41.141       32.601       20.407     1692.617     1062.833      416.429        0.250        0.159       42.691       15.757        0.136      350.304       31.370      860.718
07/03/2014  13:24:00      -34.301       -5.136        0.151       26.237       31.402       24.359      688.363      986.089      593.377        0.174        0.113       34.683       19.836        0.327      350.301       31.365      860.709
07/03/2014  13:25:00      -23.112      -32.560       14.640       76.183       63.108       28.246     5803.893     3982.564      797.835        0.619        0.529       39.929       36.513        0.836      350.644       31.961      860.709
07/03/2014  13:26:00       96.528      -83.223       23.201       88.312      116.525       64.573     7799.056    13578.011     4169.616        2.116        1.277      127.451       79.301        0.387      350.456       31.632      860.686
07/03/2014  13:27:00       42.237     -115.666       56.203       92.296      113.436       71.533     8518.605    12867.618     5116.964        2.241        1.325      123.136       70.097        0.324      350.776       32.191      860.664
07/03/2014  13:28:00       37.672       25.779       77.719       63.272       88.663       58.559     4003.322     7861.086     3429.180        1.171        0.765       45.648       52.406        1.318      350.935       32.468      860.665
07/03/2014  13:29:00      -55.152     -152.946        5.782       61.231      108.113       45.496     3749.210    11688.345     2069.885        2.198        0.875      162.586       54.077        0.111      350.451       31.624      860.687
07/03/2014  13:30:00      -77.316     -111.316       -2.328       74.980      112.238       48.988     5621.957    12597.295     2399.844        1.949        1.031      135.532       60.245        0.198      350.528       31.759      860.663
07/03/2014  13:31:00      -75.041      -28.979      -13.227       84.266       43.780       45.442     7100.702     1916.686     2064.992        0.886        0.554       80.442       36.482        0.206      350.537       31.776      860.647
07/03/2014  13:32:00       25.343      -70.922       15.437       45.578       83.947       38.781     2077.337     7047.067     1504.003        0.827        0.531       75.314       37.146        0.243      350.803       32.238      860.638
07/03/2014  13:33:00       60.225     -164.127       11.527       97.653      129.955       55.902     9536.146    16888.249     3125.052        3.012        1.477      174.827       53.135        0.092      350.514       31.734      860.649
07/03/2014  13:34:00       95.166     -144.013      -17.541       76.250       79.291       53.893     5814.124     6287.133     2904.501        2.255        0.750      172.616       40.924        0.056      350.496       31.701      860.649
07/03/2014  13:35:00       40.821      -59.438       30.455       77.479      101.170       75.915     6002.996    10235.438     5763.057        1.406        1.100       72.106       76.191        1.117      350.848       32.315      860.647
07/03/2014  13:36:00      -79.810      -29.782       -4.238       51.523       52.408       28.438     2654.612     2746.633      808.721        0.674        0.310       85.186       26.267        0.095      350.879       32.370      860.650
07/03/2014  13:37:00     -114.907      -59.905       -1.301       73.653       49.045       33.256     5424.771     2405.409     1105.992        1.286        0.447      129.584       10.909        0.007      350.510       31.729      860.635
07/03/2014  13:38:00     -224.901     -157.262      -14.708      148.999      101.010       52.907    22200.783    10202.935     2799.111        5.536        1.760      274.430       49.143        0.032      350.289       31.340      860.628
07/03/2014  13:39:00      -43.668     -147.747      -29.139      101.045       82.602       49.502    10210.149     6823.166     2450.475        2.203        0.974      154.065       22.857        0.022      350.672       32.009      860.634
07/03/2014  13:40:00      -75.735      -75.422       -1.588       93.022       65.308       53.740     8653.008     4265.159     2887.934        1.361        0.790      106.884       49.130        0.211      350.675       32.014      860.652
07/03/2014  13:41:00      -81.024     -153.214      -14.010       89.280       87.822       39.494     7970.930     7712.725     1559.767        2.374        0.862      173.319       37.226        0.046      350.596       31.874      860.662
07/03/2014  13:42:00     -129.221      -90.671       -2.657       65.648       73.091       34.659     4309.641     5342.362     1201.234        1.789        0.543      157.859       23.809        0.023      350.323       31.402      860.654
07/03/2014  13:43:00     -115.856     -123.331        0.056      128.268       71.549       49.390    16452.592     5119.223     2439.323        2.632        1.201      169.214       48.293        0.081      350.414       31.557      860.645
07/03/2014  13:44:00      -19.149      -27.342       23.799       37.706       50.374       37.166     1421.730     2537.530     1381.301        0.351        0.267       33.380       33.579        1.012      350.856       32.330      860.644
07/03/2014  13:45:00      -38.003        9.888        9.408       72.582       41.666       38.352     5268.165     1736.046     1470.894        0.505        0.424       39.268       48.205        1.507      350.579       31.849      860.640
07/03/2014  13:46:00      -38.765      -11.253       -2.834       57.169       25.399       29.100     3268.350      645.098      846.812        0.320        0.238       40.365       22.250        0.304      350.613       31.906      860.633
07/03/2014  13:47:00      -84.626      -57.876       -1.066       52.328       68.249       34.175     2738.233     4657.978     1167.947        0.954        0.428      102.524       27.104        0.070      350.514       31.736      860.612
07/03/2014  13:48:00     -157.462       50.539      -25.163       76.866       83.266       43.359     5908.396     6933.153     1880.019        2.135        0.736      165.374       37.172        0.051      350.351       31.449      860.612
07/03/2014  13:49:00     -106.112       55.624      -13.222       49.733       40.110       25.740     2473.332     1608.805      662.544        0.964        0.237      119.808       17.719        0.022      350.698       32.053      860.594
07/03/2014  13:50:00     -185.565      195.227      -50.185       75.609       66.497       49.393     5716.661     4421.845     2439.700        4.382        0.629      269.347       49.311        0.034      350.317       31.389      860.581
07/03/2014  13:51:00     -161.245      148.972      -41.789       55.072       61.464       39.121     3032.919     3777.851     1530.421        2.914        0.417      219.528       36.135        0.027      350.299       31.358      860.563
07/03/2014  13:52:00     -101.675      162.689      -16.800       68.297       77.088       50.029     4664.538     5942.635     2502.864        2.510        0.656      191.847       54.615        0.081      350.659       31.985      860.556
07/03/2014  13:53:00      -55.653      113.300      -11.655       65.249       62.913       56.121     4257.476     3958.101     3149.588        1.372        0.568      126.231       51.432        0.166      350.681       32.024      860.556
07/03/2014  13:54:00        8.052       30.464       39.169       59.682       25.920       31.985     3561.956      671.862     1023.016        0.389        0.263       31.510       34.902        1.227      350.736       32.121      860.560
07/03/2014  13:55:00     -266.015      -55.173      -21.137       95.460       68.861       41.788     9112.521     4741.860     1746.278        4.493        0.780      271.676       43.523        0.026      350.301       31.362      860.569
07/03/2014  13:56:00     -270.411     -119.822       -9.954      112.413      109.397       56.453    12636.682    11967.717     3186.960        5.768        1.390      295.769       59.097        0.040      350.442       31.607      860.547
07/03/2014  13:57:00     -188.735     -119.560       11.699      148.505       94.749       70.606    22053.757     8977.426     4985.190        4.303        1.801      223.418       83.262        0.139      350.740       32.125      860.540
07/03/2014  13:58:00     -212.614     -162.070       -5.233      150.475      113.774       58.091    22642.709    12944.426     3374.595        5.522        1.948      267.341       71.696        0.072      350.236       31.249      860.548
07/03/2014  13:59:00     -184.281      -13.776       -5.688      104.098      104.378       55.683    10836.475    10894.671     3100.548        2.950        1.242      184.796       47.561        0.066      350.645       31.961      860.512
07/03/2014  14:00:00     -129.511      -63.781       10.782       76.896       91.308       52.441     5913.020     8337.238     2750.067        1.898        0.850      144.364       43.660        0.091      350.607       31.896      860.513
07/03/2014  14:01:00      -67.617      -67.648       13.124       65.129       64.817       43.011     4241.754     4201.233     1849.923        0.981        0.515       95.647       33.254        0.121      350.959       32.509      860.490
07/03/2014  14:02:00      -38.006      -71.774       16.894      105.886      106.058       67.580    11211.861    11248.229     4567.016        1.695        1.351       81.215       71.648        0.778      350.564       31.821      860.442
07/03/2014  14:03:00       95.810     -124.349       15.220       97.315      120.678       54.020     9470.303    14563.205     2918.131        2.591        1.348      156.979       69.221        0.194      350.372       31.488      860.365
07/03/2014  14:04:00       19.556       37.585       87.547       41.707       83.332       50.327     1739.453     6944.175     2532.757        1.034        0.561       42.369       52.736        1.549      350.700       32.061      860.328
07/03/2014  14:05:00      -17.804       40.458        9.548       56.028       30.940       33.466     3139.192      957.305     1119.989        0.363        0.261       44.202       30.206        0.467      350.670       32.006      860.376
07/03/2014  14:06:00     -207.675      -78.706      -11.850       88.516       75.489       38.462     7835.113     5698.562     1479.306        3.224        0.751      222.089       43.776        0.039      350.622       31.920      860.439
07/03/2014  14:07:00     -154.321      -62.085        9.832      150.518       96.598       68.496    22655.638     9331.264     4691.749        3.222        1.834      166.342       90.450        0.296      350.514       31.733      860.411
07/03/2014  14:08:00     -255.411      -63.305       -9.973      151.311      100.614       48.503    22895.015    10123.210     2352.574        5.235        1.769      263.140       54.964        0.044      350.745       32.133      860.395
07/03/2014  14:09:00     -251.773     -114.230       -0.447      192.129      130.745       81.775    36913.631    17094.200     6687.105        6.856        3.035      276.475       88.326        0.102      350.825       32.273      860.369
07/03/2014  14:10:00     -195.706      -15.093        6.281      180.839      125.500       58.169    32702.875    15750.320     3383.619        4.519        2.592      196.287       73.969        0.142      350.795       32.223      860.373
07/03/2014  14:11:00     -191.249      117.432      -19.541       94.598      111.239       62.001     8948.790    12374.092     3844.162        3.795        1.258      224.425       56.777        0.064      350.881       32.371      860.385
07/03/2014  14:12:00     -208.160      -11.905      -13.651      101.362       69.829       44.918    10274.172     4876.032     2017.617        3.041        0.858      208.500       55.150        0.070      350.484       31.679      860.355
07/03/2014  14:13:00        2.961      103.910        7.890       47.195      102.695       40.222     2227.375    10546.302     1617.835        1.263        0.720      103.952       47.691        0.210      350.944       32.483      860.314
07/03/2014  14:14:00      -69.844      120.468        0.610       56.215       74.453       50.042     3160.090     5543.209     2504.184        1.530        0.560      139.251       39.183        0.079      350.850       32.319      860.316
07/03/2014  14:15:00     -299.684      -24.376       -6.217      185.652      122.857       61.257    34466.588    15093.817     3752.452        7.187        2.666      300.674       89.664        0.089      350.646       31.964      860.342
07/03/2014  14:16:00     -163.035       45.863      -20.967      146.815      128.013       52.118    21554.531    16387.362     2716.273        3.488        2.033      169.363       64.767        0.146      350.724       32.098      860.341
07/03/2014  14:17:00     -214.841      145.871      -36.152      133.477      150.897       57.914    17816.114    22770.036     3354.072        5.633        2.197      259.682       70.292        0.073      350.438       31.598      860.307
07/03/2014  14:18:00     -164.129      176.888      -34.036       73.395       92.721       48.051     5386.884     8597.126     2308.868        3.784        0.815      241.304       49.238        0.042      350.257       31.285      860.332
07/03/2014  14:19:00     -107.312      170.661      -16.713       70.967      121.498       53.935     5036.383    14761.739     2909.029        3.181        1.135      201.596       52.787        0.069      350.455       31.630      860.333
07/03/2014  14:20:00      -78.104       67.001        5.237       72.276       66.153       40.678     5223.860     4376.192     1654.673        1.093        0.563      102.905       43.533        0.179      350.583       31.856      860.341
07/03/2014  14:21:00     -182.411       12.270      -14.620      115.940       45.810       44.791    13442.198     2098.533     2006.270        2.559        0.877      182.823       61.218        0.112      350.686       32.031      860.307
07/03/2014  14:22:00     -154.304        9.766       -3.640      104.140       74.412       47.982    10845.150     5537.074     2302.249        2.130        0.934      154.612       48.805        0.100      350.830       32.283      860.281
07/03/2014  14:23:00     -110.048       -9.617      -13.950       86.667       65.940       32.444     7511.204     4348.036     1052.585        1.265        0.646      110.468       35.787        0.105      351.136       32.817      860.307
07/03/2014  14:24:00     -101.497      -31.176        8.442      111.307       62.989       45.952    12389.213     3967.601     2111.614        1.490        0.923      106.177       54.075        0.259      351.156       32.850      860.296
07/03/2014  14:25:00     -105.428      -80.164        6.993       99.079       68.888       49.322     9816.625     4745.545     2432.617        1.729        0.850      132.444       56.591        0.183      350.812       32.252      860.282
07/03/2014  14:26:00     -287.245     -112.556      -22.921      110.320      101.395       48.892    12170.591    10280.861     2390.423        6.027        1.242      308.510       36.394        0.014      350.423       31.571      860.259
07/03/2014  14:27:00     -210.128     -127.150        2.457      117.689       96.641       61.856    13850.778     9339.538     3826.205        4.367        1.351      245.603       69.661        0.080      350.565       31.820      860.245
07/03/2014  14:28:00     -265.355     -151.741        6.260      125.012      114.241       64.323    15627.956    13050.895     4137.499        6.314        1.641      305.677       58.394        0.036      350.911       32.421      860.238
07/03/2014  14:29:00     -315.822     -100.071      -24.008      134.739      144.582       54.276    18154.525    20903.831     2945.850        7.616        2.100      331.297       44.115        0.018      350.461       31.637      860.236
07/03/2014  14:30:00     -138.152     -110.062       18.809      137.928      104.464       61.488    19023.998    10912.692     3780.730        3.263        1.686      176.634       60.529        0.117      350.923       32.443      860.215
07/03/2014  14:31:00     -270.993     -193.437        2.297      180.346      106.480       65.448    32524.796    11338.069     4283.435        7.950        2.407      332.949       71.269        0.046      350.746       32.137      860.236
07/03/2014  14:32:00     -410.843     -301.820      -29.231      218.492      181.611      101.212    47738.877    32982.428    10243.835       17.584        4.548      509.791       96.825        0.036      350.493       31.694      860.232
07/03/2014  14:33:00     -372.062     -111.330       -0.220      203.022      166.089       94.110    41217.983    27585.625     8856.631       11.423        3.883      388.362       95.215        0.060      350.653       31.973      860.170
07/03/2014  14:34:00     -566.994     -147.356      -27.260      165.016      118.841       76.876    27230.135    14123.288     5909.907       19.559        2.363      585.829       74.208        0.016      350.561       31.814      860.144
07/03/2014  14:35:00     -290.942     -150.706       -3.932      195.945      119.878       66.380    38394.274    14370.669     4406.314        8.226        2.859      327.657       68.003        0.043      350.798       32.227      860.155
07/03/2014  14:36:00     -163.373     -169.530       12.912      117.556       95.958       67.019    13819.354     9207.971     4491.492        4.155        1.376      235.438       67.775        0.083      350.708       32.070      860.147
07/03/2014  14:37:00     -106.362      -23.082        7.262      103.013       84.797       40.966    10611.743     7190.524     1678.240        1.569        0.974      108.838       42.899        0.155      350.995       32.573      860.123
07/03/2014  14:38:00     -153.477       20.058      -12.164      119.248       58.163       45.575    14220.017     3382.923     2077.067        2.189        0.984      154.782       58.823        0.144      351.195       32.918      860.125
07/03/2014  14:39:00     -423.470       -2.972      -25.561      228.034      175.627       90.956    51999.279    30844.715     8273.032       13.554        4.556      423.481      109.906        0.067      351.067       32.693      860.069
07/03/2014  14:40:00     -390.863     -111.686       -5.688      201.211      186.192      105.300    40485.829    34667.445    11088.071       12.575        4.312      406.506      112.012        0.076      351.119       32.784      860.065
07/03/2014  14:41:00     -340.571       18.947      -13.272      192.292      131.920       76.302    36976.071    17402.988     5822.016        8.835        3.010      341.098       80.399        0.056      351.173       32.880      860.103
07/03/2014  14:42:00     -390.369      -48.073       -7.661      166.705      141.786       80.840    27790.576    20103.158     6535.056       10.458        2.721      393.318       94.690        0.058      350.778       32.191      860.098
07/03/2014  14:43:00     -234.450      -84.649       -2.076      169.810       95.561       63.953    28835.272     9131.879     4089.945        5.209        2.103      249.263       78.725        0.100      350.908       32.418      860.097
07/03/2014  14:44:00     -191.973      -90.196       -8.776      150.537       87.857       65.158    22661.419     7718.884     4245.541        3.984        1.731      212.106       57.550        0.074      351.173       32.879      860.108
07/03/2014  14:45:00     -228.775     -144.280        4.473      123.217       94.545       57.192    15182.311     8938.770     3270.941        5.028        1.370      270.471       60.473        0.050      350.655       31.977      860.131
07/03/2014  14:46:00     -242.150      -41.757       -8.231       86.755       84.985       48.196     7526.412     7222.495     2322.833        3.876        0.854      245.724       50.021        0.041      350.510       31.724      860.085
07/03/2014  14:47:00     -197.917     -187.366       -7.821      111.701       96.526       66.224    12477.219     9317.269     4385.616        5.025        1.309      272.538       73.139        0.072      350.655       31.978      860.068
07/03/2014  14:48:00     -196.534      -95.674       -6.607       89.929       97.748       47.180     8087.183     9554.691     2225.977        3.384        0.993      218.584       43.235        0.039      350.810       32.246      860.062
07/03/2014  14:49:00     -140.877      -19.198        9.004      108.801       81.092       50.722    11837.614     6575.880     2572.708        2.064        1.049      142.179       48.571        0.117      351.071       32.703      860.055
07/03/2014  14:50:00     -169.777       38.924      -12.049      113.015       75.381       42.560    12772.371     5682.365     1811.366        2.537        1.013      174.182       54.233        0.097      350.903       32.410      860.035
07/03/2014  14:51:00     -196.509      -53.027       -7.785      128.695      135.109       55.298    16562.360    18254.452     3057.843        3.968        1.894      203.537       55.480        0.074      350.797       32.224      859.994
07/03/2014  14:52:00     -450.515     -110.392       -4.411      205.607      149.145       77.196    42274.434    22244.098     5959.245       14.281        3.524      463.843       88.812        0.037      350.898       32.400      860.002
07/03/2014  14:53:00     -650.030     -156.227      -20.147      214.723      170.576      109.934    46106.107    29096.259    12085.422       26.731        4.364      668.540      117.313        0.031      350.650       31.969      859.942
07/03/2014  14:54:00     -404.620     -136.371       -5.270      175.579      155.664       85.052    30827.858    24231.356     7233.768       12.231        3.115      426.983       90.517        0.045      350.842       32.303      859.986
07/03/2014  14:55:00     -520.668     -383.523      -18.577      218.627      197.099      113.507    47797.668    38848.050    12883.773       25.901        4.976      646.673      127.744        0.039      350.498       31.704      859.977
07/03/2014  14:56:00     -451.660     -221.247      -24.691      175.400      135.003       92.534    30765.290    18225.781     8562.538       15.555        2.878      502.939       92.546        0.034      350.563       31.817      859.969
07/03/2014  14:57:00     -270.646      -35.083       -9.859      178.220      148.999       87.091    31762.352    22200.767     7584.770        6.805        3.077      272.910       86.061        0.099      350.905       32.413      859.996
07/03/2014  14:58:00     -143.845      -84.861       16.262      136.401      136.902       56.322    18605.152    18742.186     3172.181        3.433        2.026      167.011       49.709        0.089      351.065       32.692      860.016
07/03/2014  14:59:00     -161.628       15.161        3.664      130.965       76.400       52.941    17151.877     5837.009     2802.744        2.607        1.290      162.338       69.921        0.186      350.961       32.511      859.987
07/03/2014  15:00:00     -532.672     -314.961      -28.905      277.843      222.314      100.003    77196.886    49423.598    10000.583       26.018        6.831      618.822      111.947        0.033      350.789       32.210      859.925
07/03/2014  15:01:00     -433.305     -268.013      -29.702      208.429      162.316      103.525    43442.714    26346.619    10717.407       17.047        4.025      509.494      100.565        0.039      350.641       31.953      859.985
07/03/2014  15:02:00     -399.910     -151.269      -23.720      207.230      194.489       85.113    42944.217    37825.783     7244.266       13.568        4.401      427.563       99.193        0.054      350.635       31.941      859.986
07/03/2014  15:03:00     -271.772     -168.890        6.121      204.533      171.227       75.926    41833.639    29318.654     5764.757        8.966        3.846      319.975      102.741        0.103      350.767       32.171      859.982
07/03/2014  15:04:00     -297.893     -180.371      -13.901      157.485      136.660       63.079    24801.381    18675.853     3978.974        8.445        2.373      348.244       67.087        0.037      350.882       32.373      859.980
07/03/2014  15:05:00     -272.511     -197.067      -19.863      183.308      127.635       74.410    33601.820    16290.702     5536.831        8.445        2.771      336.300       66.310        0.039      350.750       32.142      859.992
07/03/2014  15:06:00     -343.300     -157.913      -28.236      133.398      117.412       62.489    17794.904    13785.641     3904.814        8.953        1.774      377.878       57.919        0.023      350.747       32.136      860.026
07/03/2014  15:07:00     -167.743     -214.257       -6.360      119.660      102.663       51.565    14318.624    10539.738     2658.979        5.080        1.376      272.110       51.763        0.036      350.625       31.926      860.017
07/03/2014  15:08:00     -195.490     -163.701       -3.155      121.236       82.084       54.494    14698.163     6737.848     2969.587        4.471        1.220      254.979       60.292        0.056      350.849       32.315      860.004
07/03/2014  15:09:00     -147.822      -55.894       -1.982      102.840       77.204       38.945    10576.026     5960.389     1516.694        2.151        0.903      158.036       49.120        0.097      351.088       32.734      860.007
07/03/2014  15:10:00     -131.234     -136.630       10.756      135.624      141.003       55.174    18393.936    19881.821     3044.219        3.866        2.066      189.447       49.142        0.067      351.191       32.910      859.981
07/03/2014  15:11:00     -305.641     -114.934       -4.730      151.542      114.320       66.410    22964.849    13069.167     4410.267        7.354        2.022      326.537       70.320        0.046      351.011       32.597      859.968
07/03/2014  15:12:00     -395.945      -56.938      -19.029      110.123      127.660       61.562    12127.139    16297.190     3789.882        9.629        1.611      400.018       52.214        0.017      350.982       32.546      859.950
07/03/2014  15:13:00     -345.143      -79.162       -8.523      166.036      201.818       81.671    27567.959    40730.546     6670.211       10.020        3.748      354.105       66.225        0.035      351.034       32.637      859.957
07/03/2014  15:14:00     -282.511     -183.174       -1.184      154.637      102.709       70.526    23912.643    10549.051     4973.908        7.639        1.972      336.697       72.639        0.047      350.623       31.920      859.932
07/03/2014  15:15:00     -496.452      -78.810      -23.850      208.309      166.576       79.282    43392.795    27747.679     6285.691       16.532        3.871      502.668       74.706        0.022      350.870       32.351      859.926
07/03/2014  15:16:00     -353.943      -63.941      -12.695      183.339      137.807       75.121    33613.268    18990.854     5643.157        9.388        2.912      359.672       80.380        0.050      350.964       32.514      859.957
07/03/2014  15:17:00     -296.888      -98.113       -6.861      209.718      153.769      102.972    43981.519    23644.958    10603.234        8.801        3.911      312.680      103.612        0.110      350.898       32.401      859.956
07/03/2014  15:18:00     -430.144     -118.224      -38.553      187.128      157.217       77.291    35017.043    24717.213     5973.878       13.309        3.285      446.095       78.932        0.031      350.710       32.071      859.973
07/03/2014  15:19:00     -221.300     -137.347      -18.924      136.016       77.239       39.491    18500.407     5965.850     1559.569        4.711        1.301      260.457       52.651        0.041      350.354       31.454      859.973
07/03/2014  15:20:00     -172.139     -138.240        2.685      134.471      110.333       60.467    18082.454    12173.317     3656.280        4.132        1.696      220.776       65.485        0.088      350.721       32.093      859.940
07/03/2014  15:21:00     -230.019      -12.510      -16.301       97.017       81.448       53.276     9412.234     6633.748     2838.358        3.610        0.944      230.359       51.145        0.049      351.084       32.723      859.934
07/03/2014  15:22:00     -153.627      -54.877        7.801      143.266      121.340       60.031    20525.246    14723.470     3603.770        3.276        1.943      163.134       59.826        0.134      351.285       33.076      859.951
07/03/2014  15:23:00     -184.775      -51.250        1.973      106.786       76.944       60.494    11403.319     5920.430     3659.558        2.887        1.049      191.750       57.746        0.091      351.338       33.169      859.937
07/03/2014  15:24:00     -332.606      -17.201      -28.427      177.251      123.864       68.008    31417.747    15342.306     4625.093        8.155        2.569      333.051       65.044        0.038      351.060       32.682      859.923
07/03/2014  15:25:00     -545.092       34.203      -33.411      217.891      201.553       98.827    47476.444    40623.486     9766.836       19.862        4.893      546.164      107.713        0.039      351.007       32.590      859.883
07/03/2014  15:26:00     -502.354     -305.287       -6.228      256.786      237.331      104.324    65939.169    56325.850    10883.446       23.935        6.657      587.843      131.243        0.050      350.726       32.101      859.931
07/03/2014  15:27:00     -352.799     -169.412        3.553      261.864      261.289      106.801    68572.741    68271.984    11406.411       15.069        7.413      391.366      141.908        0.131      350.845       32.309      859.926
07/03/2014  15:28:00     -272.975      -60.968       -2.394      147.251       98.762       54.466    21682.919     9753.834     2966.593        5.631        1.720      279.700       64.375        0.053      351.010       32.597      859.974
07/03/2014  15:29:00     -362.895     -160.205       -3.380      136.079      120.985       68.657    18517.361    14637.384     4713.765        9.761        1.893      396.684       60.491        0.023      350.904       32.410      859.955
07/03/2014  15:30:00     -240.035      -95.322       -4.086      156.555       93.714       60.084    24509.423     8782.375     3610.052        5.180        1.845      258.270       69.372        0.072      350.959       32.506      859.945
07/03/2014  15:31:00     -224.459     -111.990        2.246      140.392       90.621       53.678    19709.923     8212.182     2881.339        4.686        1.540      250.846       54.821        0.048      351.100       32.753      859.913
07/03/2014  15:32:00      -52.498     -129.454       24.750       95.596       86.623       49.201     9138.630     7503.610     2420.764        1.959        0.953      139.693       50.682        0.132      351.162       32.861      859.913
07/03/2014  15:33:00     -275.829     -279.646       12.581      251.747      212.345       80.748    63376.319    45090.492     6520.207       13.470        5.749      392.790       97.853        0.062      350.937       32.470      859.880
07/03/2014  15:34:00     -352.644     -226.985       -7.642      167.923      156.148       86.146    28198.211    24382.289     7421.197       11.796        3.000      419.381       76.899        0.034      350.716       32.082      859.877
07/03/2014  15:35:00     -544.663     -241.610      -17.576      203.393      168.631       89.822    41368.677    28436.443     8068.025       21.659        3.894      595.846       85.642        0.021      350.815       32.255      859.896
07/03/2014  15:36:00     -159.462      -46.926        5.047      123.145       98.624       53.950    15164.695     9726.754     2910.631        2.772        1.390      166.223       54.526        0.108      351.300       33.100      859.929
07/03/2014  15:37:00     -350.811      -31.687      -13.997      230.041      169.752       99.306    52918.827    28815.903     9861.665       10.792        4.580      352.240      123.780        0.123      350.979       32.540      859.901
07/03/2014  15:38:00     -382.840       -8.281      -31.354      158.429      130.210       77.746    25099.616    16954.548     6044.507        9.785        2.405      382.930       67.012        0.031      350.870       32.351      859.892
07/03/2014  15:39:00     -311.121      -97.883      -19.747      192.539      110.061       77.140    37071.262    12113.524     5950.630        8.094        2.757      326.156       84.625        0.067      350.839       32.298      859.859
07/03/2014  15:40:00     -292.893     -110.091       -3.087      146.935      116.169       69.845    21590.009    13495.238     4878.304        6.893        1.998      312.900       47.393        0.023      350.730       32.107      859.829
07/03/2014  15:41:00     -170.734     -117.011      -16.147      101.176       66.700       54.877    10236.515     4448.829     3011.525        3.040        0.885      206.982       47.498        0.053      350.879       32.367      859.848
07/03/2014  15:42:00     -129.889      -17.584       15.715      139.827       78.143       52.740    19551.718     6106.335     2781.482        2.293        1.422      131.074       68.469        0.273      351.277       33.061      859.860
07/03/2014  15:43:00     -233.125      -98.831       27.852      204.431      187.097       87.131    41792.114    35005.138     7591.734        7.463        4.219      253.209      107.578        0.181      351.239       32.993      859.867
07/03/2014  15:44:00     -326.025     -130.741        4.644      196.563      157.336       68.226    38637.083    24754.536     4654.738        9.572        3.402      351.263       76.093        0.047      350.842       32.302      859.904
07/03/2014  15:45:00     -299.546     -233.837       16.942      208.884      130.975       81.640    43632.531    17154.428     6665.071       10.606        3.373      380.010       89.014        0.055      350.757       32.154      859.870
07/03/2014  15:46:00     -345.632     -324.334       -5.543      193.522      154.730       79.097    37450.670    23941.347     6256.318       14.616        3.382      473.977       87.529        0.034      350.679       32.018      859.865
07/03/2014  15:47:00     -536.923     -322.642      -18.481      285.765      180.496      113.072    81661.621    32578.892    12785.258       25.985        6.351      626.406      134.406        0.046      350.676       32.013      859.847
07/03/2014  15:48:00     -402.984     -159.187        1.217      193.218      150.750       91.428    37333.326    22725.581     8359.110       12.807        3.421      433.286      100.007        0.053      350.722       32.094      859.859
07/03/2014  15:49:00     -415.945     -239.682       -2.578      223.705      144.180       80.963    50043.846    20787.870     6554.948       15.391        3.869      480.060       95.850        0.040      350.708       32.070      859.835
07/03/2014  15:50:00     -438.843     -218.495       -3.283      193.515      154.451       89.165    37448.053    23854.978     7950.392       15.478        3.463      490.228       91.145        0.035      350.686       32.031      859.818
07/03/2014  15:51:00     -385.768     -236.578       -4.295      180.191      168.165       91.247    32468.870    28279.466     8326.036       13.693        3.454      452.533       88.841        0.039      350.719       32.088      859.798
07/03/2014  15:52:00     -242.622     -180.145        5.584      171.183      143.227       82.496    29303.683    20513.914     6805.651        7.398        2.831      302.188       95.042        0.099      351.056       32.675      859.844
07/03/2014  15:53:00     -287.237     -208.574       15.847      192.775      158.212       93.009    37162.116    25031.182     8650.655        9.854        3.542      354.976      110.290        0.097      350.687       32.032      859.852
07/03/2014  15:54:00     -263.507     -170.761        3.257      172.413      116.654       64.848    29726.199    13608.201     4205.303        7.306        2.377      313.999       69.990        0.050      350.746       32.136      859.844
07/03/2014  15:55:00     -211.244     -122.563       15.500      168.339      128.360       74.207    28337.889    16476.332     5506.714        5.510        2.516      244.225       78.021        0.102      350.803       32.235      859.829
07/03/2014  15:56:00     -199.320     -377.789        1.690      202.272      210.524       98.059    40914.012    44320.290     9615.607       13.864        4.742      427.145      111.708        0.068      350.593       31.870      859.814
07/03/2014  15:57:00       -1.289     -188.851      -13.989      120.990      155.791       56.284    14638.665    24270.792     3167.942        3.896        2.104      188.855       58.558        0.096      350.690       32.039      859.798
07/03/2014  15:58:00     -294.147     -162.922       -0.787      161.167       93.282       45.215    25974.943     8701.454     2044.394        7.489        1.836      336.253       54.116        0.026      350.795       32.221      859.799
07/03/2014  15:59:00     -338.556        8.163      -29.726      198.159      111.639       57.921    39266.948    12463.256     3354.829        8.532        2.754      338.655       75.942        0.050      350.924       32.446      859.794
07/03/2014  16:00:00     -306.739      -92.066       -4.602      149.769      112.688       73.592    22430.661    12698.697     5415.822        7.156        2.027      320.258       72.194        0.051      351.074       32.705      859.803
07/03/2014  16:01:00     -194.309     -206.791       -4.309      138.380      145.638       77.615    19149.059    21210.551     6024.080        6.345        2.319      283.758       65.028        0.053      351.118       32.784      859.797
07/03/2014  16:02:00     -195.373     -173.192       15.406      143.663      152.014       69.855    20639.011    23108.254     4879.668        5.851        2.431      261.087       77.012        0.087      350.871       32.352      859.768
07/03/2014  16:03:00     -394.646     -150.192      -14.712      187.188      155.655       83.164    35039.206    24228.512     6916.179       12.234        3.309      422.259       80.451        0.036      350.983       32.548      859.811
07/03/2014  16:04:00     -351.767     -150.884       -8.096      186.703      141.550       82.719    34858.137    20036.439     6842.442       10.414        3.087      382.761       91.608        0.057      350.652       31.971      859.798
07/03/2014  16:05:00     -394.177     -130.406       -8.743      187.398      141.969       71.466    35118.118    20155.140     5107.352       11.641        3.019      415.189       77.190        0.035      350.607       31.894      859.786
07/03/2014  16:06:00     -420.092      -97.186      -13.964      154.940      126.017       76.132    24006.281    15880.312     5796.138       11.589        2.284      431.187       79.118        0.034      350.596       31.873      859.803
07/03/2014  16:07:00     -282.431     -213.761        5.324      144.155      142.852       80.260    20780.579    20406.812     6441.722        8.655        2.381      354.205       90.550        0.065      350.669       32.001      859.798
07/03/2014  16:08:00     -215.735     -161.573        5.297      169.512      121.027       63.264    28734.351    14647.580     4002.392        6.002        2.369      269.532       64.426        0.057      350.628       31.930      859.761
07/03/2014  16:09:00     -191.313     -263.607       -7.789      126.114      111.484       59.104    15904.867    12428.728     3493.300        6.898        1.591      325.713       53.188        0.027      350.568       31.825      859.719
07/03/2014  16:10:00     -311.498     -273.665        8.985      193.459      147.866       96.171    37426.297    21864.454     9248.837       12.026        3.427      414.636       94.751        0.052      350.754       32.149      859.702
07/03/2014  16:11:00     -401.540     -193.451      -39.043      237.760      148.323       74.941    56530.043    21999.593     5616.118       14.215        4.207      445.710       77.368        0.030      350.664       31.991      859.739
07/03/2014  16:12:00     -319.201     -215.328       -8.159      158.162      167.329       76.074    25015.263    27999.047     5787.179       10.355        2.940      385.039       76.515        0.039      350.796       32.221      859.709
07/03/2014  16:13:00     -421.828     -173.407       -9.538      229.375      151.565       97.162    52612.691    22971.814     9440.494       14.655        4.251      456.079      105.062        0.053      350.852       32.319      859.714
07/03/2014  16:14:00     -355.010     -111.779      -17.480      164.856      171.765       73.234    27177.657    29503.142     5363.233       10.043        3.102      372.192       72.154        0.038      351.037       32.642      859.711
07/03/2014  16:15:00     -267.314     -105.118       27.755      195.152      221.047      101.994    38084.470    48861.975    10402.859        9.030        4.867      287.240       76.036        0.070      351.063       32.689      859.683
07/03/2014  16:16:00     -304.787     -207.741       -5.818      173.120      151.156       81.653    29970.498    22848.076     6667.192        9.778        2.974      368.852       77.138        0.044      350.942       32.477      859.714
07/03/2014  16:17:00     -350.492     -367.746       -6.625      196.256      173.560       98.995    38516.517    30123.244     9800.022       16.827        3.922      508.018       98.253        0.037      350.744       32.132      859.695
07/03/2014  16:18:00     -395.503     -191.625      -13.681      216.648      138.949       89.071    46936.189    19306.711     7933.683       13.374        3.709      439.480      101.414        0.053      350.762       32.164      859.706
07/03/2014  16:19:00     -255.239     -216.364      -12.321      187.250      145.355       94.175    35062.650    21128.208     8868.903        8.858        3.253      334.605       74.531        0.050      350.712       32.077      859.697
07/03/2014  16:20:00     -350.955     -107.040      -16.728      130.741      125.992       70.822    17093.158    15873.904     5015.806        8.644        1.899      366.916       59.830        0.027      350.858       32.329      859.704
07/03/2014  16:21:00     -406.269      -25.113       -8.734      195.865      130.251       88.492    38363.194    16965.252     7830.778       11.445        3.158      407.044       94.891        0.054      351.053       32.669      859.729
07/03/2014  16:22:00     -344.184     -186.203      -12.161      156.340      145.648       84.346    24442.230    21213.245     7114.199       10.302        2.638      391.324       75.203        0.037      350.946       32.483      859.744
07/03/2014  16:23:00     -276.202     -204.377       -1.309      201.582      160.659       87.883    40635.413    25811.360     7723.345        9.610        3.709      343.595      103.578        0.091      350.860       32.334      859.720
07/03/2014  16:24:00     -280.492      -87.923       -1.194      152.419      138.292       70.093    23231.655    19124.733     4912.981        6.683        2.363      293.949       71.561        0.059      350.935       32.466      859.740
07/03/2014  16:25:00     -324.387      -65.526        0.885      173.246      128.439       72.368    30014.079    16496.587     5237.153        8.063        2.587      330.939       83.741        0.064      350.810       32.247      859.742
07/03/2014  16:26:00     -293.187     -128.124       -9.520      160.729      169.447       75.078    25833.889    28712.437     5636.679        8.131        3.009      319.960       78.848        0.061      350.792       32.216      859.731
07/03/2014  16:27:00     -288.525     -180.377        7.295      144.398      131.885       73.492    20850.666    17393.703     5401.006        7.973        2.182      340.268       82.345        0.059      350.809       32.245      859.689
07/03/2014  16:28:00     -320.392     -243.174       -1.463      202.747      120.827       88.583    41106.210    14599.057     7847.007       11.266        3.178      402.224      101.856        0.064      350.764       32.167      859.671
07/03/2014  16:29:00     -252.338     -196.724       -6.598      166.504      150.650       87.398    27723.615    22695.355     7638.450        8.023        2.903      319.961       98.747        0.095      351.049       32.661      859.660
07/03/2014  16:30:00     -410.454     -230.561       -0.437      212.685      179.760      101.635    45234.985    32313.714    10329.643       15.474        4.394      470.777      111.323        0.056      350.933       32.461      859.697
07/03/2014  16:31:00     -492.556     -262.974      -15.952      232.925      149.263       99.384    54253.902    22279.390     9877.119       19.920        4.321      558.361       98.734        0.031      350.698       32.051      859.668
07/03/2014  16:32:00     -359.865     -282.915       -7.209      212.029      150.278       97.648    44956.105    22583.484     9535.219       14.332        3.854      457.759       99.929        0.048      350.776       32.187      859.687
07/03/2014  16:33:00     -205.073      -78.000       13.561      157.317      113.850       68.284    24748.529    12961.917     4662.637        4.534        2.119      219.406       71.404        0.106      350.886       32.380      859.686
07/03/2014  16:34:00     -264.573     -192.068       11.079      224.756      187.540      119.083    50515.227    35171.099    14180.855       10.342        4.993      326.939      132.156        0.163      350.761       32.161      859.684
07/03/2014  16:35:00     -511.339     -107.958      -22.637      222.663      186.155       84.631    49578.591    34653.564     7162.342       18.250        4.570      522.611       98.214        0.035      350.679       32.019      859.711
07/03/2014  16:36:00     -644.321      -85.261      -35.584      221.022      141.902       94.545    48850.716    20136.176     8938.833       25.079        3.896      649.938      112.730        0.030      350.594       31.872      859.726
07/03/2014  16:37:00     -310.072     -180.272      -11.981      167.474      156.629       88.433    28047.415    24532.797     7820.412        9.458        3.020      358.668       87.938        0.060      350.821       32.265      859.730
07/03/2014  16:38:00     -346.723     -187.954        4.215      189.912      180.562       94.309    36066.446    32602.644     8894.149       11.655        3.878      394.390       95.892        0.059      350.771       32.178      859.718
07/03/2014  16:39:00     -256.717     -210.761      -13.652      169.532      129.996       85.572    28741.147    16898.884     7322.495        8.173        2.648      332.150       72.329        0.047      350.728       32.104      859.715
07/03/2014  16:40:00     -359.770     -206.510        0.779      182.808      138.930       85.501    33418.710    19301.468     7310.488       11.605        3.002      414.827       97.913        0.056      350.743       32.130      859.692
07/03/2014  16:41:00     -218.059     -122.876       10.040      190.995      146.775       85.053    36478.958    21542.955     7233.949        6.399        3.263      250.296       95.695        0.146      350.788       32.209      859.691
07/03/2014  16:42:00     -168.118     -113.771       -6.485      119.580      116.203       64.344    14299.398    13503.218     4140.198        3.659        1.597      202.996       64.439        0.101      350.778       32.191      859.688
07/03/2014  16:43:00     -385.089     -143.955      -22.391       97.626      111.890       61.870     9530.820    12519.424     3827.912        9.769        1.294      411.116       35.367        0.007      350.679       32.019      859.674
07/03/2014  16:44:00     -320.560     -110.922        0.360      210.231      159.816       79.338    44197.086    25541.033     6294.467        9.553        3.802      339.209       73.834        0.047      350.695       32.047      859.656
07/03/2014  16:45:00     -250.401      -29.533       -3.365      141.680      114.830       59.166    20073.314    13185.965     3500.665        5.017        1.838      252.137       63.265        0.063      350.834       32.290      859.625
07/03/2014  16:46:00     -402.210      -44.700      -28.296      182.709      142.891       75.598    33382.550    20417.873     5715.115       11.203        2.976      404.686       88.891        0.048      350.858       32.330      859.608
07/03/2014  16:47:00     -449.583     -189.849       -7.612      197.892      190.491       96.420    39161.130    36286.658     9296.800       16.147        4.237      488.024       93.389        0.037      350.871       32.353      859.613
07/03/2014  16:48:00     -334.041     -218.825       -2.934      237.861      202.896      100.122    56578.060    41166.819    10024.355       13.360        5.388      399.335       83.805        0.044      350.771       32.179      859.573
07/03/2014  16:49:00     -336.234     -175.645       24.045      288.641      219.305      108.365    83313.783    48094.712    11743.068       14.379        7.158      379.347      140.656        0.137      350.795       32.221      859.534
07/03/2014  16:50:00     -429.608      -43.094      -39.229      239.798      168.204       85.169    57502.992    28292.427     7253.805       14.049        4.652      431.764       86.835        0.040      350.829       32.282      859.566
07/03/2014  16:51:00     -582.057      -54.510      -31.264      227.958      182.679       98.805    51964.689    33371.623     9762.424       21.890        4.755      584.604      100.928        0.030      350.684       32.026      859.554
07/03/2014  16:52:00     -562.307        7.451      -56.769      165.016      174.124       80.665    27230.206    30319.003     6506.886       19.175        3.203      562.357       54.890        0.010      350.686       32.030      859.537
07/03/2014  16:53:00     -416.118       52.428      -48.479      165.487      182.559       75.231    27386.054    33327.663     5659.730       12.230        3.319      419.408       78.532        0.035      350.759       32.158      859.552
07/03/2014  16:54:00     -465.702        2.308      -59.485      216.294      141.678       76.463    46783.015    20072.585     5846.528       14.655        3.635      465.708       66.321        0.020      350.613       31.902      859.566
07/03/2014  16:55:00     -211.818       -5.673       -0.732      163.051       94.072       62.937    26585.654     8849.534     3961.053        4.214        1.970      211.894       83.253        0.154      350.874       32.360      859.548
07/03/2014  16:56:00     -140.247       66.665       10.920      126.803      168.020       61.921    16078.972    28230.742     3834.250        3.618        2.407      155.285       70.156        0.204      350.928       32.453      859.506
07/03/2014  16:57:00     -347.051      189.817      -44.920      210.019      216.268       95.831    44108.115    46771.980     9183.581       12.926        5.003      395.570       86.765        0.048      350.627       31.927      859.461
07/03/2014  16:58:00     -424.271      -45.261      -28.170      180.742      180.459       94.255    32667.823    32565.497     8883.971       12.847        3.706      426.679       86.773        0.041      350.926       32.449      859.470
07/03/2014  16:59:00     -329.014      -73.903      -22.924      143.650      131.321       70.840    20635.257    17245.131     5018.316        7.856        2.145      337.212       70.000        0.043      351.042       32.649      859.573
07/03/2014  17:00:00     -454.276      -71.012       -4.635      229.908      166.970       92.158    52857.813    27878.937     8493.061       15.032        4.461      459.793      112.464        0.060      350.863       32.339      859.568
07/03/2014  17:01:00     -409.478     -184.360      -20.766      267.681      159.875       79.537    71653.276    25560.103     6326.132       15.280        5.177      449.066      100.833        0.050      350.529       31.758      859.574
07/03/2014  17:02:00     -592.941      -64.274      -36.112      166.732      176.209       86.194    27799.619    31049.638     7429.455       21.164        3.314      596.414       82.463        0.019      350.486       31.682      859.543
07/03/2014  17:03:00     -410.553     -104.220      -33.222      187.054      122.047       78.429    34989.169    14895.356     6151.051       11.827        2.802      423.574       70.765        0.028      350.739       32.123      859.559
07/03/2014  17:04:00     -266.592      -36.461      -33.623      147.564      106.121       54.128    21775.162    11261.622     2929.808        5.474        1.798      269.074       31.174        0.013      351.019       32.610      859.580
07/03/2014  17:05:00     -271.449      -70.870      -10.086      159.385      128.422       65.514    25403.438    16492.164     4292.027        6.249        2.309      280.548       82.411        0.086      350.767       32.171      859.563
07/03/2014  17:06:00     -330.893      -34.714      -18.688      235.394      131.514       69.733    55410.212    17295.972     4862.697        9.429        3.878      332.709      102.963        0.096      350.944       32.481      859.595
07/03/2014  17:07:00     -415.908     -116.227      -17.484      216.514      132.862       92.262    46878.245    17652.268     8512.238       12.991        3.652      431.843      109.438        0.064      350.847       32.311      859.594
07/03/2014  17:08:00     -377.430     -108.969       -1.931      246.347      148.653       81.153    60686.878    22097.704     6585.844       12.184        4.469      392.845      110.537        0.079      350.723       32.096      859.600
07/03/2014  17:09:00     -285.397      -35.287        8.785      259.108      148.703       92.095    67136.897    22112.570     8481.484        9.024        4.887      287.570      123.615        0.185      350.905       32.411      859.596
07/03/2014  17:10:00     -367.598      -67.703      -18.512      140.548      167.122       83.046    19753.839    27929.754     6896.593        9.731        2.729      373.781       79.597        0.045      350.748       32.140      859.598
07/03/2014  17:11:00     -527.680     -158.737      -32.976      208.951      168.450       83.657    43660.595    28375.466     6998.478       19.187        3.952      551.039       64.602        0.014      350.572       31.833      859.555
07/03/2014  17:12:00     -610.257      -29.271      -36.995      232.767      200.996       99.314    54180.320    40399.233     9863.201       23.952        5.222      610.958      105.225        0.030      350.606       31.891      859.496
07/03/2014  17:13:00     -565.024      -71.979      -46.879      211.043      170.839       95.689    44539.211    29186.094     9156.328       20.474        4.144      569.590       98.095        0.030      350.669       32.002      859.483
07/03/2014  17:14:00     -443.950      -83.618      -13.341      290.854      215.952      116.493    84596.218    46635.477    13570.681       17.451        7.240      451.756      138.264        0.094      350.680       32.021      859.489
07/03/2014  17:15:00     -284.132     -179.248      -11.887      186.520      136.125       73.842    34789.620    18529.982     5452.635        8.588        2.939      335.948       77.231        0.053      350.789       32.210      859.523
07/03/2014  17:16:00     -375.151     -211.926       -1.102      215.812      159.547       86.347    46575.005    25455.381     7455.759       13.256        3.974      430.873      107.188        0.062      350.720       32.090      859.535
07/03/2014  17:17:00     -307.651      -68.601       -9.280      129.604      106.225       58.103    16797.186    11283.646     3375.986        6.544        1.573      315.206       63.256        0.040      350.889       32.385      859.537
07/03/2014  17:18:00     -398.463      -73.369      -37.105      237.653      168.057       75.137    56479.019    28243.295     5645.553       12.794        4.518      405.161       96.112        0.056      350.869       32.350      859.538
07/03/2014  17:19:00     -251.403      -30.534       16.208      181.556      159.046       96.758    32962.750    25295.484     9362.115        6.600        3.381      253.250      101.630        0.161      350.968       32.522      859.499
07/03/2014  17:20:00     -586.799       24.012      -31.032      304.307      197.815      103.601    92602.483    39130.816    10733.202       24.415        7.123      587.290      134.178        0.052      350.723       32.096      859.424
07/03/2014  17:21:00     -601.256     -191.508      -27.218      245.019      173.189       84.980    60034.201    29994.282     7221.530       24.807        4.863      631.018      102.619        0.026      350.555       31.802      859.472
07/03/2014  17:22:00     -371.926     -113.288       -7.869      234.388      157.391       96.654    54937.520    24771.809     9342.068       12.012        4.453      388.798      110.453        0.081      350.607       31.893      859.476
07/03/2014  17:23:00     -282.613      -48.345       -1.474      208.119      184.892       76.162    43313.453    34185.013     5800.701        8.274        4.165      286.718       80.067        0.078      350.732       32.112      859.463
07/03/2014  17:24:00     -384.364     -116.655      -12.466      192.044      153.210       77.810    36880.720    23473.169     6054.333       11.394        3.320      401.676       83.582        0.043      350.877       32.363      859.477
07/03/2014  17:25:00     -371.108     -235.075        2.764      223.225      228.209      104.785    49829.369    52079.362    10979.873       15.292        5.644      439.297      129.394        0.087      350.756       32.154      859.534
07/03/2014  17:26:00     -336.724     -133.955      -17.426      271.705      152.532       94.190    73823.606    23265.865     8871.676       11.878        5.298      362.391      103.285        0.081      350.522       31.744      859.508
07/03/2014  17:27:00     -403.975     -165.519       -6.950      208.223      147.726       75.181    43356.777    21822.891     5652.224       13.072        3.542      436.569       86.241        0.039      350.537       31.770      859.515
07/03/2014  17:28:00     -343.669     -133.521       -5.742      160.841      128.734       75.817    25869.805    16572.361     5748.188        9.207        2.410      368.695       62.407        0.029      350.595       31.871      859.475
07/03/2014  17:29:00     -237.076     -106.443      -25.612      205.442      129.362       68.957    42206.574    16734.527     4755.000        6.593        3.185      259.875       92.218        0.126      350.676       32.013      859.444
07/03/2014  17:30:00     -375.839      -17.074      -16.611      184.349      137.909       65.562    33984.513    19018.986     4298.414        9.955        2.865      376.226       84.909        0.051      350.857       32.329      859.446
07/03/2014  17:31:00     -389.259      -33.172        0.114      217.822      123.448       88.251    47446.489    15239.387     7788.170       11.154        3.524      390.669      104.805        0.072      350.726       32.102      859.460
07/03/2014  17:32:00     -226.150     -134.466        5.871      163.401      149.777       73.098    26699.970    22433.291     5343.256        6.186        2.724      263.107       84.506        0.103      350.877       32.363      859.480
07/03/2014  17:33:00     -156.583      -94.906       45.164      210.258      174.580      103.936    44208.541    30478.206    10802.737        6.051        4.274      183.100      100.646        0.302      350.746       32.135      859.457
07/03/2014  17:34:00     -375.991     -200.286      -19.176      176.075      193.456       95.610    31002.256    37425.367     9141.329       12.970        3.878      426.009       98.793        0.054      350.603       31.887      859.443
07/03/2014  17:35:00     -481.223     -197.094      -30.030      187.930      115.673       79.535    35317.713    13380.336     6325.800       16.316        2.751      520.021       76.111        0.021      350.499       31.703      859.416
07/03/2014  17:36:00     -314.518     -189.068       15.348      219.375      160.348       87.594    48125.217    25711.513     7672.663       10.819        4.075      366.972       97.501        0.071      350.644       31.958      859.396
07/03/2014  17:37:00     -347.118     -118.440        8.330      186.610      158.548       83.204    34823.377    25137.571     6922.911       10.073        3.344      366.769       90.626        0.061      350.596       31.874      859.415
07/03/2014  17:38:00     -441.828      -99.308        1.015      271.319      185.669       97.402    73614.084    34473.048     9487.122       16.131        5.879      452.851      122.732        0.073      350.582       31.849      859.400
07/03/2014  17:39:00     -404.226     -228.769      -18.141      162.014      173.764       88.373    26248.535    30193.962     7809.747       14.015        3.213      464.472       91.666        0.039      350.613       31.904      859.424
07/03/2014  17:40:00     -453.119     -410.553      -11.717      300.772      222.640      136.641    90463.705    49568.496    18670.683       26.633        7.935      611.450      148.541        0.059      350.470       31.654      859.405
07/03/2014  17:41:00     -377.576     -261.235      -11.068      207.776      157.843       93.404    43171.006    24914.272     8724.369       14.386        3.840      459.138      101.687        0.049      350.513       31.728      859.457
07/03/2014  17:42:00     -385.377     -144.172        0.869      266.813      193.781       85.798    71189.040    37551.242     7361.355       14.268        5.805      411.462      111.807        0.074      350.549       31.792      859.447
07/03/2014  17:43:00     -394.036     -231.686      -14.867      292.868      196.495       84.186    85771.652    38610.094     7087.292       17.029        6.573      457.102      116.595        0.065      350.480       31.673      859.444
07/03/2014  17:44:00     -360.519     -244.892       -7.650      170.594      177.426       90.838    29102.383    31480.014     8251.599       12.941        3.442      435.828       98.943        0.052      350.476       31.665      859.434
07/03/2014  17:45:00     -480.676     -384.703        1.409      302.366      215.206      120.549    91425.274    46313.766    14532.135       26.563        7.614      615.667      153.368        0.062      350.416       31.561      859.413
07/03/2014  17:46:00     -378.743     -180.169       -3.815      236.040      159.595       89.858    55714.931    25470.481     8074.503       13.258        4.463      419.413      114.747        0.075      350.434       31.592      859.437
07/03/2014  17:47:00     -455.598     -222.643       -6.937      220.584      186.769      101.776    48657.135    34882.793    10358.451       17.553        4.695      507.089      117.041        0.053      350.497       31.701      859.453
07/03/2014  17:48:00     -526.340      -75.591      -15.127      247.783      154.045      106.512    61396.609    23729.951    11344.821       18.971        4.824      531.740      116.835        0.048      350.463       31.640      859.466
07/03/2014  17:49:00     -291.544     -173.780       10.139      230.973      158.821       96.203    53348.693    25224.059     9255.039       10.155        4.391      339.407      120.676        0.126      350.510       31.725      859.467
07/03/2014  17:50:00     -263.360     -130.236        7.894      189.301      147.864       90.620    35834.804    21863.824     8211.956        7.614        3.296      293.803       89.667        0.093      350.511       31.726      859.484
07/03/2014  17:51:00     -404.909      -86.015      -20.501      218.029      153.997       82.953    47536.642    23715.191     6881.253       12.494        3.907      413.944      107.449        0.067      350.422       31.571      859.471
07/03/2014  17:52:00     -356.602     -182.712       -0.678      193.633      188.139      101.843    37493.779    35396.411    10372.049       12.189        4.163      400.686      100.145        0.062      350.396       31.526      859.443
07/03/2014  17:53:00     -234.105     -174.488       -0.406      190.647      153.034       80.506    36346.309    23419.489     6481.266        7.574        3.312      291.978       96.015        0.108      350.518       31.738      859.412
07/03/2014  17:54:00     -296.128     -128.190       -0.352      162.041      173.136       77.715    26257.424    29976.086     6039.565        8.319        3.114      322.683       64.650        0.040      350.555       31.804      859.435
07/03/2014  17:55:00     -341.370     -208.462       -4.143      191.747      164.740       81.442    36767.022    27139.316     6632.725       11.526        3.527      399.987       85.361        0.046      350.545       31.785      859.439
07/03/2014  17:56:00     -364.525     -199.208      -11.526      175.049      159.946       87.338    30642.137    25582.702     7627.861       11.826        3.193      415.406       82.987        0.040      350.525       31.750      859.429
07/03/2014  17:57:00     -460.749     -165.120      -16.163      210.618      188.929       94.055    44359.737    35694.143     8846.389       16.434        4.445      489.443       96.353        0.039      350.475       31.664      859.440
07/03/2014  17:58:00     -320.391      -50.720      -13.512      162.790      160.374       72.954    26500.441    25719.660     5322.305        8.146        2.877      324.381       69.527        0.046      350.487       31.683      859.448
07/03/2014  17:59:00     -376.207     -179.852      -37.369      122.066      121.663       70.161    14900.088    14801.926     4922.542       10.494        1.731      416.988       63.707        0.023      350.414       31.557      859.458
07/03/2014  18:00:00     -174.046     -144.190        2.104      168.638      132.336       72.542    28438.655    17512.790     5262.297        5.114        2.561      226.015       79.759        0.125      350.500       31.708      859.429
07/03/2014  18:01:00     -190.342      -37.404       36.800      211.368      147.977       87.621    44676.637    21897.178     7677.500        5.660        3.713      193.982      115.461        0.354      350.538       31.774      859.410
07/03/2014  18:02:00     -531.620       -8.780      -35.512      223.733      162.178       84.649    50056.463    26301.785     7165.509       18.373        4.176      531.693       85.848        0.026      350.391       31.519      859.479
07/03/2014  18:03:00     -544.673       -3.623      -32.552      196.269      157.091      105.806    38521.327    24677.570    11194.873       18.606        3.720      544.686      109.857        0.041      350.353       31.449      859.480
07/03/2014  18:04:00     -347.626     -126.370      -12.638      163.743      185.472       96.256    26811.906    34399.984     9265.268       10.371        3.524      369.883       93.730        0.064      350.417       31.562      859.465
07/03/2014  18:05:00     -462.629      -99.857      -19.034      229.212      190.722       95.867    52538.070    36374.793     9190.472       16.121        4.905      473.283      108.563        0.053      350.342       31.432      859.475
07/03/2014  18:06:00     -346.669      -45.896       -0.313      188.592      157.608       90.210    35566.900    24840.227     8137.827        9.540        3.427      349.694       92.499        0.070      350.398       31.531      859.495
07/03/2014  18:07:00     -255.678     -213.700       18.773      203.782      192.360       98.953    41526.946    37002.235     9791.795        9.984        4.416      333.225      108.802        0.107      350.308       31.375      859.492
07/03/2014  18:08:00     -371.176     -156.083      -12.408      167.725      223.503       87.849    28131.644    49953.484     7717.477       12.403        4.290      402.658       96.525        0.057      350.270       31.307      859.505
07/03/2014  18:09:00     -339.975      -56.624        2.502      247.862      206.187       95.185    61435.483    42513.151     9060.160       11.588        5.650      344.658       96.110        0.078      350.336       31.422      859.496
07/03/2014  18:10:00     -478.731      -97.709      -31.832      217.161      151.387       76.331    47158.979    22918.149     5826.368       15.781        3.795      488.600       82.757        0.029      350.250       31.273      859.521
07/03/2014  18:11:00     -334.721     -204.840       -3.082      155.670      133.184       72.251    24233.254    17738.071     5220.137       10.059        2.360      392.425       77.607        0.039      350.194       31.174      859.496
07/03/2014  18:12:00     -253.386     -175.557       -7.678      177.892      143.347       72.569    31645.451    20548.398     5266.236        7.626        2.873      308.261       81.067        0.069      350.343       31.436      859.512
07/03/2014  18:13:00     -568.074      -17.277      -42.678      174.015      158.432       80.743    30281.386    25100.556     6519.463       19.335        3.095      568.337       74.277        0.017      350.224       31.225      859.520
07/03/2014  18:14:00     -297.442       28.753      -25.294      170.858      131.603       68.079    29192.598    17319.223     4634.805        7.053        2.557      298.828       75.137        0.063      350.321       31.397      859.501
07/03/2014  18:15:00     -449.274      -68.125      -11.345      223.791      155.321       91.630    50082.280    24124.606     8395.982       14.460        4.130      454.409      106.970        0.055      350.293       31.347      859.499
07/03/2014  18:16:00     -387.452     -106.200       -7.903      189.567      165.253       81.265    35935.672    27308.511     6603.957       11.564        3.492      401.743      101.407        0.064      350.319       31.392      859.518
07/03/2014  18:17:00     -396.795      -75.300       -2.383      196.587      131.545       89.022    38646.293    17304.147     7924.965       11.349        3.194      403.877       98.454        0.059      350.322       31.397      859.532
07/03/2014  18:18:00     -304.309     -179.338        4.237      173.263      133.197       79.328    30020.102    17741.385     6292.869        8.941        2.703      353.222       91.275        0.067      350.401       31.535      859.529
07/03/2014  18:19:00     -310.884     -242.680      -12.999      264.642      214.010      105.478    70035.131    45800.386    11125.593       14.131        6.348      394.388      129.555        0.108      350.301       31.361      859.509
07/03/2014  18:20:00     -496.353     -388.787       -6.282      307.792      191.923      128.565    94736.075    36834.265    16529.077       27.281        7.405      630.493      145.375        0.053      350.097       31.005      859.462
07/03/2014  18:21:00     -393.613     -234.976       -8.055      230.746      245.640      106.800    53243.856    60339.206    11406.331       16.758        6.249      458.415      117.478        0.066      350.200       31.186      859.488
07/03/2014  18:22:00     -239.996      -13.995      -12.664      201.143      106.183       83.260    40458.484    11274.924     6932.237        5.830        2.933      240.403       98.407        0.168      350.197       31.180      859.531
07/03/2014  18:23:00     -371.057      -16.264       -9.188      151.826      184.155       83.167    23051.026    33912.882     6916.824       10.095        3.194      371.413       73.577        0.039      350.236       31.247      859.545
07/03/2014  18:24:00     -569.657     -176.237      -23.484      302.420      180.648      104.386    91457.809    32633.694    10896.500       24.553        6.749      596.296      132.397        0.049      350.130       31.062      859.545
07/03/2014  18:25:00     -344.255     -100.514       -4.439      213.841      113.516       79.671    45727.877    12885.984     6347.485        9.679        3.248      358.628      106.608        0.088      350.188       31.165      859.547
07/03/2014  18:26:00     -190.824     -132.222       12.167      188.251      136.351       81.275    35438.578    18591.701     6605.652        5.733        3.032      232.156       91.471        0.155      350.222       31.225      859.517
07/03/2014  18:27:00     -323.396     -161.414       -2.644      201.751      145.325       91.480    40703.468    21119.231     8368.648       10.041        3.510      361.441       90.932        0.063      350.199       31.181      859.534
07/03/2014  18:28:00     -276.661     -117.388       18.891      262.958      208.614      102.155    69146.924    43519.642    10435.603       10.687        6.155      300.535      118.186        0.155      350.214       31.210      859.513
07/03/2014  18:29:00     -454.884      -95.819      -12.646      197.635      172.015      108.177    39059.404    29589.320    11702.201       14.829        4.018      464.867      107.483        0.053      350.093       30.999      859.540
07/03/2014  18:30:00     -398.655      -68.759       -5.539      261.179      173.376      103.613    68214.557    30059.280    10735.735       13.633        5.450      404.542      120.392        0.089      350.085       30.985      859.564
07/03/2014  18:31:00     -295.487     -151.182       12.601      199.638      182.128       98.328    39855.299    33170.468     9668.490        9.650        4.135      331.916      101.698        0.094      350.122       31.050      859.553
07/03/2014  18:32:00     -342.657     -181.698      -11.184      196.794      164.154       96.213    38727.951    26946.402     9257.029       11.273        3.747      387.850       97.109        0.063      350.059       30.940      859.530
07/03/2014  18:33:00     -365.311     -193.405        6.358      169.865      163.716       93.655    28854.021    26802.781     8771.226       11.765        3.221      413.349       95.788        0.054      350.057       30.937      859.530
07/03/2014  18:34:00     -376.871     -114.597      -15.318      173.294      152.113       78.625    30030.826    23138.477     6181.916       10.737        2.968      393.909       73.200        0.035      350.104       31.017      859.544
07/03/2014  18:35:00     -551.957     -167.984      -10.509      287.797      234.424      111.035    82827.336    54954.742    12328.749       24.152        7.506      576.953      132.808        0.053      349.999       30.837      859.539
07/03/2014  18:36:00     -252.236     -132.752      -17.647      212.322      143.022       92.229    45080.520    20455.376     8506.199        7.779        3.702      285.036       94.991        0.111      350.077       30.973      859.537
07/03/2014  18:37:00     -384.931     -219.883        3.136      227.860      206.758      110.504    51920.337    42748.927    12211.094       15.169        5.344      443.306      123.708        0.078      349.995       30.828      859.548
07/03/2014  18:38:00     -299.910     -175.796        9.950      218.815      145.900       90.882    47879.884    21286.760     8259.513        9.917        3.871      347.635       97.885        0.079      350.036       30.899      859.589
07/03/2014  18:39:00     -393.618     -117.240      -17.473      178.352      157.056       86.270    31809.419    24666.699     7442.565       11.644        3.196      410.707       95.979        0.055      350.076       30.969      859.596
07/03/2014  18:40:00     -396.036     -108.929       -1.988      251.433      209.953       90.618    63218.787    44080.315     8211.638       14.209        5.776      410.743      103.706        0.064      349.999       30.837      859.592
07/03/2014  18:41:00     -322.270      -36.128        6.284      240.152      133.625       95.356    57672.865    17855.578     9092.853        9.490        4.231      324.289      114.043        0.124      350.047       30.920      859.582
07/03/2014  18:42:00     -394.832     -120.485        2.312      231.229      185.530       95.378    53466.759    34421.341     9096.885       13.368        4.849      412.806      101.075        0.060      349.947       30.746      859.567
07/03/2014  18:43:00     -231.999      -68.367        2.330      166.162      110.699       79.180    27609.665    12254.255     6269.427        5.231        2.307      241.863       77.823        0.104      350.063       30.947      859.584
07/03/2014  18:44:00     -290.674     -136.921      -16.443      167.413      147.265       62.916    28027.145    21686.886     3958.371        7.858        2.684      321.308       55.912        0.030      350.068       30.956      859.618
07/03/2014  18:45:00     -412.077     -301.547      -10.274      239.044      188.773      114.569    57142.089    35635.421    13125.974       18.336        5.295      510.625      139.647        0.075      349.984       30.812      859.611
07/03/2014  18:46:00     -457.076     -266.851      -15.890      187.962      170.530      101.323    35329.539    29080.452    10266.338       17.752        3.734      529.271       97.981        0.034      349.901       30.667      859.604
07/03/2014  18:47:00     -398.902      -98.024       -5.257      247.355      163.293      103.104    61184.399    26664.446    10630.396       13.360        4.924      410.769      118.741        0.084      349.937       30.730      859.631
07/03/2014  18:48:00     -441.061     -129.948      -16.505      172.921      120.087       73.127    29901.538    14420.956     5347.610       13.067        2.484      459.806       78.628        0.029      349.933       30.721      859.626
07/03/2014  18:49:00     -147.145     -100.310       18.026      195.286      141.046       91.964    38136.566    19893.931     8457.355        4.925        3.324      178.083      106.459        0.357      350.057       30.937      859.638
07/03/2014  18:50:00     -270.396     -202.391       15.582      264.689      244.472      113.480    70060.469    59766.346    12877.722       12.849        7.135      337.752      138.259        0.168      349.921       30.703      859.624
07/03/2014  18:51:00     -331.085     -252.665        1.707      257.075      224.475      118.910    66087.470    50389.114    14139.501       15.202        6.531      416.482      137.502        0.109      349.927       30.711      859.633
07/03/2014  18:52:00     -321.679     -200.677      -16.023      215.866      201.255      107.234    46598.199    40503.682    11499.162       12.129        4.930      379.142      111.897        0.087      349.897       30.660      859.655
07/03/2014  18:53:00     -307.240     -210.238        8.144      241.512      168.696      106.809    58327.895    28458.419    11408.215       11.841        4.910      372.286      129.287        0.121      349.904       30.672      859.668
07/03/2014  18:54:00     -394.188     -229.110      -12.309      270.516      180.540      106.962    73178.673    32594.676    11440.841       16.260        5.861      455.934      121.363        0.071      349.819       30.524      859.682
07/03/2014  18:55:00     -533.793     -252.330      -15.695      356.969      197.707      127.943   127426.907    39088.141    16369.347       26.584        9.144      590.429      144.840        0.060      349.721       30.353      859.667
07/03/2014  18:56:00     -373.277     -179.617       -7.965      227.812      191.193      100.157    51898.195    36554.673    10031.424       13.506        4.924      414.244      114.426        0.076      349.771       30.439      859.671
07/03/2014  18:57:00     -492.014     -283.394       -4.909      246.829      183.557      116.884    60924.641    33693.230    13661.981       21.533        5.414      567.794      148.461        0.068      349.706       30.326      859.674
07/03/2014  18:58:00     -411.219     -230.595      -14.540      169.559      172.648       89.795    28750.194    29807.160     8063.100       14.454        3.331      471.461       82.249        0.030      349.755       30.412      859.649
07/03/2014  18:59:00     -249.751     -103.411       11.394      203.681      110.866       75.862    41486.011    12291.347     5755.115        6.636        2.977      270.313      103.626        0.147      349.818       30.523      859.689
07/03/2014  19:00:00     -352.448     -319.043       -4.207      222.022      237.941       85.386    49293.962    56615.967     7290.742       16.959        5.660      475.403       92.234        0.038      349.817       30.519      859.694
07/03/2014  19:01:00     -500.060     -322.039       -8.658      227.450      184.827      108.287    51733.520    34161.196    11726.051       22.572        4.881      594.785      130.889        0.048      349.704       30.321      859.677
07/03/2014  19:02:00     -432.478     -229.566      -17.382      262.620      268.714      124.770    68969.090    72207.039    15567.631       19.837        7.837      489.630      133.434        0.074      349.734       30.376      859.684
07/03/2014  19:03:00     -511.895      -62.780      -13.918      262.610      241.826      101.350    68963.895    58479.908    10271.724       20.192        6.886      515.731      124.538        0.058      349.730       30.368      859.690
07/03/2014  19:04:00     -471.651     -340.962       -8.269      240.627      202.449       98.976    57901.550    40985.744     9796.229       22.371        5.434      581.987      124.207        0.046      349.670       30.263      859.688
07/03/2014  19:05:00     -504.273     -252.548       -7.412      216.756      148.016      103.162    46983.296    21908.853    10642.399       19.882        3.977      563.978      100.543        0.032      349.692       30.301      859.708
07/03/2014  19:06:00     -355.696     -302.006        1.661      229.448      173.318      106.350    52646.290    30039.067    11310.378       15.585        4.700      466.613      121.238        0.068      349.731       30.371      859.721
07/03/2014  19:07:00     -380.091     -193.890      -14.540      218.253      162.841       81.128    47634.467    26517.314     6581.821       13.149        4.037      426.688       98.040        0.053      349.762       30.424      859.739
07/03/2014  19:08:00     -339.393     -222.962        2.405      207.725      166.949       96.744    43149.694    27871.810     9359.392       12.263        4.019      406.078      104.782        0.067      349.752       30.407      859.739
07/03/2014  19:09:00     -296.588     -182.309       -9.588      199.937      152.914       84.210    39974.804    23382.751     7091.291        9.586        3.522      348.140       94.601        0.074      349.794       30.479      859.758
07/03/2014  19:10:00     -459.764     -221.118      -12.632      256.741      164.045       93.992    65915.786    26910.678     8834.453       18.103        5.083      510.173      110.758        0.047      349.670       30.264      859.765
07/03/2014  19:11:00     -430.989     -220.900      -29.937      198.451      143.624       91.026    39382.825    20627.750     8285.711       15.186        3.415      484.302       76.268        0.025      349.670       30.265      859.803
07/03/2014  19:12:00     -338.366     -186.105       16.704      249.138      210.320      118.309    62069.875    44234.487    13997.061       13.483        6.015      386.169      133.522        0.120      349.620       30.179      859.772
07/03/2014  19:13:00     -456.646     -145.842      -37.386      208.612      230.028      108.198    43518.775    52913.051    11706.748       16.965        5.407      479.370      118.579        0.061      349.586       30.119      859.796
07/03/2014  19:14:00     -358.368     -200.607       -5.121      207.760      167.279      102.710    43164.162    27982.166    10549.375       12.518        4.085      410.695       97.934        0.057      349.556       30.068      859.766
07/03/2014  19:15:00     -338.000     -256.568        4.330      233.713      187.099       99.117    54621.915    35006.191     9824.277       13.975        4.973      424.347      113.747        0.072      349.540       30.040      859.781
07/03/2014  19:16:00     -656.797     -267.597       -3.231      289.512      279.371      129.253    83817.431    78048.306    16706.316       34.076        8.929      709.218      131.496        0.034      349.519       30.002      859.743
07/03/2014  19:17:00     -336.909     -214.446      -10.330      227.040      201.395      100.991    51547.305    40560.096    10199.279       13.094        5.115      399.368       94.669        0.056      349.532       30.024      859.794
07/03/2014  19:18:00     -271.901     -188.643       16.457      287.079      191.108      102.947    82414.359    36522.212    10598.081       11.964        6.477      330.933      133.156        0.162      349.522       30.009      859.798
07/03/2014  19:19:00     -343.331     -211.078        0.241      167.295      169.927       81.087    27987.492    28875.157     6575.103       11.292        3.172      403.026       82.409        0.042      349.544       30.046      859.794
07/03/2014  19:20:00     -260.368     -188.961       19.667      247.702      159.119      108.134    61356.304    25318.805    11692.864       10.111        4.918      321.710      129.724        0.163      349.567       30.087      859.786
07/03/2014  19:21:00     -337.351     -222.171        2.360      218.006      179.832      106.759    47526.438    32339.651    11397.484       12.720        4.563      403.938      124.492        0.095      349.536       30.033      859.795
07/03/2014  19:22:00     -522.714     -308.741      -33.389      199.379      187.893       90.662    39751.994    35303.886     8219.604       22.646        4.164      607.084       99.327        0.027      349.465       29.910      859.808
07/03/2014  19:23:00     -391.379     -108.161       -0.102      255.971      152.561       95.855    65521.084    23274.781     9188.167       13.141        4.899      406.050      114.266        0.079      349.484       29.942      859.826
07/03/2014  19:24:00     -275.506     -182.207       17.104      231.594      189.495      115.016    53635.671    35908.286    13228.690       10.607        5.139      330.307      130.500        0.156      349.461       29.903      859.832
07/03/2014  19:25:00     -408.525     -195.871       -1.399      266.966      182.891       94.016    71270.602    33449.035     8839.091       15.939        5.678      453.054      103.571        0.052      349.439       29.864      859.840
07/03/2014  19:26:00     -468.913     -252.947      -21.215      282.477      238.402      110.007    79793.403    56835.703    12101.586       21.650        7.437      532.787      130.562        0.060      349.425       29.840      859.824
07/03/2014  19:27:00     -449.514     -142.344      -41.221      207.975      138.235       83.553    43253.745    19108.949     6981.089       14.667        3.467      471.513       81.582        0.030      349.449       29.881      859.856
07/03/2014  19:28:00     -437.361     -191.798      -13.460      226.888      191.721       96.435    51478.200    36756.910     9299.779       16.288        4.877      477.568      101.891        0.046      349.427       29.841      859.835
07/03/2014  19:29:00     -347.441     -103.329       -4.002      218.448      151.063       92.501    47719.407    22819.999     8556.453       10.524        3.955      362.480      106.174        0.086      349.420       29.830      859.883
07/03/2014  19:30:00     -344.046     -144.903       -0.421      259.265      167.770       98.234    67218.506    28146.730     9649.896       12.217        5.251      373.315      120.646        0.104      349.392       29.781      859.863
07/03/2014  19:31:00     -392.118     -278.912       -4.310      204.353      191.142       93.018    41760.158    36535.123     8652.370       15.924        4.347      481.195       95.795        0.040      349.374       29.751      859.872
07/03/2014  19:32:00     -394.401     -229.475      -19.541      274.510      182.215      123.313    75355.998    33202.250    15206.020       16.616        6.188      456.301      126.820        0.077      349.341       29.694      859.859
07/03/2014  19:33:00     -404.918     -182.541      -12.896      176.838      183.422       88.835    31271.561    33643.509     7891.650       13.511        3.640      444.162       80.248        0.033      349.362       29.731      859.877
07/03/2014  19:34:00     -329.021     -197.882       -4.169      206.318      141.256       95.764    42567.052    19953.230     9170.797       10.955        3.585      383.943      102.431        0.071      349.385       29.770      859.891
07/03/2014  19:35:00     -268.074     -216.770       24.023      208.809      208.521      103.809    43601.241    43480.964    10776.327       10.863        4.893      344.751      106.059        0.095      349.373       29.752      859.899
07/03/2014  19:36:00     -323.263     -118.910        3.811      251.902      173.528      113.672    63454.565    30111.876    12921.250       11.255        5.324      344.440      135.737        0.155      349.340       29.693      859.897
07/03/2014  19:37:00     -589.254     -334.562      -46.391      339.557      214.998      117.738   115298.837    46224.141    13862.278       31.832        8.769      677.607      151.724        0.050      349.292       29.611      859.892
07/03/2014  19:38:00     -371.728     -214.610       -3.679      209.731      163.670       95.418    43987.284    26787.939     9104.664       13.205        3.994      429.231      113.235        0.070      349.309       29.640      859.908
07/03/2014  19:39:00     -242.376      -66.874        4.441      188.481      117.015       82.529    35525.216    13692.451     6811.012        5.962        2.801      251.432       94.903        0.142      349.310       29.640      859.924
07/03/2014  19:40:00     -335.668     -138.065        4.824      231.471      185.789      107.745    53578.909    34517.713    11609.010       11.572        4.985      362.953      115.519        0.101      349.276       29.583      859.934
07/03/2014  19:41:00     -246.626       -4.449        5.473      175.668      126.986       86.880    30859.318    16125.392     7548.061        5.769        2.727      246.667      101.697        0.170      349.303       29.629      859.938
07/03/2014  19:42:00     -420.157     -203.893      -19.855      242.315      164.158      107.299    58716.781    26947.860    11512.992       15.782        4.859      467.016      119.315        0.065      349.251       29.539      859.918
07/03/2014  19:43:00     -398.268     -273.054       19.004      297.480      243.669      122.988    88494.228    59374.603    15126.103       19.824        8.150      482.883      138.601        0.082      349.228       29.499      859.899
07/03/2014  19:44:00     -237.191     -130.536       31.980      234.014      180.428       99.822    54762.418    32554.430     9964.486        8.579        4.864      270.738      117.426        0.188      349.260       29.557      859.912
07/03/2014  19:45:00     -511.973     -277.570       -9.252      236.233      200.391      107.190    55806.043    40156.388    11489.779       22.333        5.373      582.375      112.536        0.037      349.202       29.453      859.936
07/03/2014  19:46:00     -346.854     -184.604       -9.871      188.919      161.586       88.628    35690.265    26109.978     7854.943       11.206        3.483      392.920       90.250        0.053      349.220       29.484      859.946
07/03/2014  19:47:00     -388.325     -186.287       -6.018      227.362      184.535       99.639    51693.346    34053.304     9927.893       14.059        4.784      430.696      107.037        0.062      349.201       29.452      859.957
07/03/2014  19:48:00     -354.609     -231.802       -9.228      223.618      180.929       98.796    50005.206    32735.352     9760.672       13.602        4.625      423.650      110.976        0.069      349.175       29.405      859.948
07/03/2014  19:49:00     -333.220     -109.554       -9.767      176.749      134.765       73.311    31240.122    18161.730     5374.536        8.895        2.739      350.767       75.697        0.047      349.202       29.454      860.002
07/03/2014  19:50:00     -314.782     -262.762       27.463      235.529      189.049      113.714    55473.783    35739.448    12930.925       13.650        5.207      410.038      128.177        0.098      349.171       29.400      859.968
07/03/2014  19:51:00     -326.512     -177.341        3.486      244.806      211.233      112.295    59930.218    44619.289    12610.113       12.760        5.858      371.564      137.730        0.137      349.145       29.355      859.958
07/03/2014  19:52:00     -355.156      -99.391        3.556      120.668      134.947       72.468    14560.748    18210.715     5251.556        8.702        1.901      368.801       61.016        0.027      349.168       29.393      859.978
07/03/2014  19:53:00     -355.882     -148.985      -17.169      288.057      182.149      111.251    82976.574    33178.085    12376.818       13.882        6.427      385.809      134.649        0.122      349.102       29.279      859.997
07/03/2014  19:54:00     -310.214     -174.131       -6.337      223.089      194.924      113.064    49768.530    37995.543    12783.432       11.355        5.027      355.745      113.225        0.101      349.071       29.226      859.982
07/03/2014  19:55:00     -262.628     -204.898       11.038      205.334      155.020      104.375    42161.960    24031.221    10894.105        9.407        3.854      333.101      118.262        0.126      349.031       29.156      859.998
07/03/2014  19:56:00     -463.064     -254.383      -12.106      232.312      150.673       97.051    53968.748    22702.250     9418.803       18.267        4.304      528.336      110.325        0.044      348.995       29.095      860.019
07/03/2014  19:57:00     -422.678     -260.664       -4.495      213.656      199.964      122.892    45649.007    39985.528    15102.492       17.366        5.037      496.591      131.062        0.070      348.980       29.070      860.017
07/03/2014  19:58:00     -178.299       18.487       15.436      189.092      131.039       87.371    35755.646    17171.243     7633.647        4.646        3.028      179.254       85.299        0.226      348.979       29.068      860.009
07/03/2014  19:59:00     -375.326     -160.653      -13.476      305.925      233.680      109.293    93590.135    54606.550    11945.022       16.347        8.007      408.263      127.293        0.097      348.941       29.000      860.005
07/03/2014  20:00:00     -575.202     -274.963      -35.357      265.973      202.646      126.954    70741.880    41065.207    16117.282       26.780        6.396      637.543      127.130        0.040      348.922       28.968      859.978
07/03/2014  20:01:00     -498.983     -274.452      -22.585      242.060      204.327       96.909    58592.971    41749.365     9391.429       21.726        5.487      569.480      111.382        0.038      348.916       28.959      860.021
07/03/2014  20:02:00     -466.943     -165.423      -17.447      195.418      186.704       84.001    38188.187    34858.505     7056.201       16.289        4.005      495.379       71.849        0.021      348.913       28.954      860.038
07/03/2014  20:03:00     -342.035     -160.193      -10.952      200.985      159.773       83.744    40394.950    25527.418     7013.125       10.784        3.647      377.690       93.322        0.061      348.882       28.899      860.061
07/03/2014  20:04:00     -433.679     -319.942      -20.270      259.818      167.948      111.057    67505.628    28206.391    12333.721       19.943        5.402      538.925      125.512        0.054      348.856       28.854      860.058
07/03/2014  20:05:00     -389.988     -179.882       -9.296      207.952      134.750       96.133    43244.189    18157.668     9241.561       12.758        3.532      429.474      108.511        0.064      348.850       28.845      860.041
07/03/2014  20:06:00     -324.164     -154.880        3.159      170.316      153.769       92.544    29007.441    23645.022     8564.458        9.514        3.061      359.263      101.177        0.079      348.838       28.821      860.062
07/03/2014  20:07:00     -369.853     -173.993       -0.166      269.477      233.029      125.565    72617.930    54302.470    15766.564       15.485        7.134      408.736      148.136        0.131      348.795       28.748      860.064
07/03/2014  20:08:00     -291.110      -85.607      -14.213      218.260      159.589       96.491    47637.430    25468.670     9310.491        8.733        4.121      303.437      107.191        0.125      348.807       28.769      860.058
07/03/2014  20:09:00     -441.230     -155.972       -9.281      209.985      230.813      110.845    44093.786    53274.679    12286.577       16.436        5.483      467.986      106.101        0.051      348.781       28.723      860.076
07/03/2014  20:10:00     -511.590     -235.573      -15.518      239.096      184.823       86.918    57166.728    34159.712     7554.703       20.815        4.944      563.222       95.000        0.028      348.770       28.704      860.085
07/03/2014  20:11:00     -406.122     -229.329       -7.154      211.223      195.690      112.189    44615.113    38294.694    12586.467       15.652        4.775      466.398      113.382        0.059      348.763       28.693      860.114
07/03/2014  20:12:00     -415.184     -139.186       -3.266      226.147      129.662       87.655    51142.672    16812.199     7683.335       13.369        3.782      437.894      109.389        0.062      348.737       28.648      860.128
07/03/2014  20:13:00     -338.577      -87.206        1.457      213.373      157.656       83.725    45528.244    24855.516     7009.918        9.980        3.870      349.628       98.218        0.079      348.735       28.647      860.127
07/03/2014  20:14:00     -357.919     -102.072      -22.695      197.522      120.386       87.997    39015.122    14492.860     7743.499       10.014        3.063      372.189       93.640        0.063      348.711       28.605      860.163
07/03/2014  20:15:00     -508.657     -194.002       -8.097      249.284      204.558       91.186    62142.439    41844.016     8314.850       20.435        5.615      544.397      106.003        0.038      348.682       28.553      860.168
07/03/2014  20:16:00     -399.862     -116.334       -6.606      178.291      193.832       90.249    31787.727    37571.008     8144.859       12.547        3.875      416.442       83.833        0.041      348.678       28.545      860.177
07/03/2014  20:17:00     -323.326     -114.685       -7.535      202.900      127.232       83.088    41168.501    16187.998     6903.615        9.099        3.213      343.063       94.638        0.076      348.673       28.538      860.188
07/03/2014  20:18:00     -372.057     -240.255        4.750      206.854      193.888      110.998    42788.518    37592.523    12320.601       14.442        4.635      442.887      123.762        0.078      348.638       28.477      860.168
07/03/2014  20:19:00     -350.412     -187.961       -4.241      228.756      180.049       94.247    52329.169    32417.753     8882.499       12.587        4.681      397.641       96.422        0.059      348.642       28.484      860.165
07/03/2014  20:20:00     -236.087     -141.234        9.519      190.982      146.477       95.971    36474.127    21455.503     9210.435        7.145        3.357      275.108       96.790        0.124      348.603       28.418      860.176
07/03/2014  20:21:00     -428.990     -262.626       -0.749      198.157      150.203       91.563    39266.270    22561.046     8383.764       16.160        3.511      502.996       94.993        0.036      348.593       28.398      860.198
07/03/2014  20:22:00     -334.233     -149.847      -16.304      191.344      151.760       88.398    36612.359    23031.235     7814.277       10.093        3.373      366.287       96.653        0.070      348.577       28.370      860.203
07/03/2014  20:23:00     -295.540     -208.545       -4.501      185.406      130.122       83.155    34375.306    16931.845     6914.817        9.453        2.911      361.711       75.108        0.043      348.566       28.350      860.210
07/03/2014  20:24:00     -300.381     -211.470      -13.303      169.387      140.103       88.616    28692.066    19628.799     7852.751        9.564        2.809      367.353       76.980        0.044      348.534       28.296      860.197
07/03/2014  20:25:00     -399.703     -268.203        0.955      298.055      226.097      106.010    88837.078    51119.751    11238.033       19.142        7.560      481.348      144.563        0.090      348.521       28.273      860.204
07/03/2014  20:26:00     -303.657     -142.743        0.427      186.024      154.706       81.279    34605.092    23933.979     6606.329        8.885        3.257      335.534       66.479        0.039      348.520       28.272      860.221
07/03/2014  20:27:00     -446.866     -190.963      -18.675      192.548      157.882       97.002    37074.829    24926.774     9409.464       15.395        3.571      485.959       97.736        0.040      348.503       28.242      860.246
07/03/2014  20:28:00     -409.909      -79.814      -21.097      164.719      154.896       88.113    27132.247    23992.911     7763.822       11.686        2.944      417.607       80.115        0.037      348.487       28.217      860.269
07/03/2014  20:29:00     -269.587     -139.238        2.606      186.197      131.716       81.714    34669.346    17348.982     6677.111        7.537        2.935      303.422       83.878        0.076      348.470       28.185      860.276
07/03/2014  20:30:00     -332.533      -96.006       -0.898      166.176      160.544       86.620    27614.445    25774.423     7503.074        9.033        3.045      346.115       87.223        0.064      348.434       28.124      860.282
07/03/2014  20:31:00     -375.536     -110.326      -17.835      160.019      179.221       79.184    25606.237    32120.093     6270.127       10.875        3.200      391.406       78.770        0.041      348.431       28.119      860.279
07/03/2014  20:32:00     -354.392     -103.265      -14.530      214.123      170.607       80.022    45848.535    29106.747     6403.474       10.890        4.068      369.131       82.155        0.050      348.404       28.073      860.280
07/03/2014  20:33:00     -358.099     -191.474       -4.933      202.037      191.694       99.919    40818.921    36746.439     9983.766       12.622        4.377      406.076      115.568        0.081      348.377       28.025      860.312
07/03/2014  20:34:00     -406.584     -108.664       -2.408      315.186      183.022       93.798    99342.074    33497.089     8798.099       15.936        7.082      420.855      123.211        0.086      348.402       28.068      860.332
07/03/2014  20:35:00     -348.633     -131.656      -29.074      164.758      148.998       82.268    27145.291    22200.376     6768.058        9.791        2.806      372.664       80.989        0.047      348.380       28.030      860.344
07/03/2014  20:36:00     -372.529      -75.343       -8.601      159.963      166.535       87.345    25588.305    27733.908     7629.236       10.273        3.048      380.072       76.096        0.040      348.340       27.960      860.354
07/03/2014  20:37:00     -350.170     -107.258       -0.392      205.555      129.485       82.094    42253.060    16766.240     6739.409        9.993        3.288      366.228       95.674        0.068      348.310       27.909      860.367
07/03/2014  20:38:00     -200.855      -95.725       26.531      199.982      134.789       77.083    39992.914    18168.074     5941.843        5.715        3.205      222.499       94.224        0.179      348.275       27.850      860.376
07/03/2014  20:39:00     -478.709     -133.447       -9.350      188.220      202.468       81.810    35426.802    40993.262     6692.902       16.507        4.156      496.961       70.204        0.020      348.290       27.873      860.393
07/03/2014  20:40:00     -267.413      -81.716        3.586      177.522      139.479       86.922    31514.051    19454.272     7555.513        6.835        2.926      279.620       88.004        0.099      348.268       27.837      860.416
07/03/2014  20:41:00     -324.646     -169.350        5.260      153.069      125.689       75.862    23430.008    15797.674     5755.037        8.954        2.249      366.162       85.930        0.055      348.245       27.795      860.419
07/03/2014  20:42:00     -260.635     -130.251       13.812      186.368      165.423       82.364    34733.010    27364.810     6783.832        7.697        3.444      291.369       97.461        0.112      348.209       27.735      860.422
07/03/2014  20:43:00     -245.733     -155.804       -1.647      159.089      139.280       70.014    25309.399    19398.874     4902.027        6.713        2.481      290.964       79.430        0.075      348.203       27.724      860.410
07/03/2014  20:44:00     -369.321      -56.554      -22.911      188.465      139.357       84.365    35519.013    19420.502     7117.446       10.108        3.103      373.626       97.994        0.069      348.167       27.663      860.449
07/03/2014  20:45:00     -325.923     -164.944       -7.255      211.337      156.238       93.741    44663.367    24410.393     8787.410       10.566        3.893      365.284      110.554        0.092      348.170       27.668      860.454
07/03/2014  20:46:00     -378.220     -186.063       -1.671      200.801      189.379      101.847    40321.185    35864.308    10372.717       13.210        4.328      421.509      107.264        0.065      348.173       27.673      860.456
07/03/2014  20:47:00     -263.933     -143.070        3.194      130.843      120.846       59.486    17119.841    14603.707     3538.590        6.270        1.763      300.216       62.150        0.043      348.139       27.615      860.477
07/03/2014  20:48:00     -254.673     -133.231        5.284      203.595      151.211       90.337    41450.926    22864.834     8160.837        7.754        3.624      287.417      108.176        0.142      348.148       27.630      860.469
07/03/2014  20:49:00     -514.368     -180.468       -7.681      223.792      147.151       91.353    50082.823    21653.392     8345.305       18.863        4.004      545.109      113.563        0.043      348.149       27.632      860.447
07/03/2014  20:50:00     -324.913     -120.571      -12.000      152.532      150.476       79.415    23266.130    22643.106     6306.751        8.622        2.611      346.563       59.805        0.030      348.107       27.559      860.427
07/03/2014  20:51:00     -291.091      -86.565        2.519      221.612      135.278       84.253    49111.663    18300.123     7098.572        8.336        3.726      303.690      104.901        0.119      348.067       27.490      860.450
07/03/2014  20:52:00     -321.796     -178.782      -14.469      150.078      128.754       74.662    22523.386    16577.649     5574.380        9.019        2.234      368.125       71.151        0.037      348.083       27.517      860.473
07/03/2014  20:53:00     -256.536      -88.771        8.583      212.993      143.588       83.009    45366.227    20617.389     6890.577        7.331        3.644      271.461       94.004        0.120      348.066       27.489      860.456
07/03/2014  20:54:00     -368.882     -164.536       -9.342      157.503      134.788       83.885    24807.122    18167.913     7036.612       10.661        2.501      403.914       87.885        0.047      348.063       27.481      860.466
07/03/2014  20:55:00     -551.573      -39.792      -37.126      277.163      145.151      100.628    76819.065    21068.771    10126.044       20.759        5.401      553.006      125.861        0.052      348.052       27.463      860.462
07/03/2014  20:56:00     -279.847      -88.405        0.021      223.179      201.307       89.933    49808.665    40524.643     8088.026        9.226        4.921      293.479      116.815        0.158      347.999       27.371      860.468
07/03/2014  20:57:00     -289.466     -179.517      -15.537      179.367      167.571       88.194    32172.575    28079.915     7778.097        9.213        3.402      340.613       81.962        0.058      348.015       27.400      860.491
07/03/2014  20:58:00     -289.633     -149.852        5.243      252.570      146.606      106.806    63791.806    21493.404    11407.435       10.152        4.835      326.103      133.972        0.169      347.985       27.349      860.510
07/03/2014  20:59:00     -263.619      -77.619       -3.693      149.114      137.512       59.915    22234.935    18909.568     3589.817        6.013        2.237      274.808       64.704        0.055      347.956       27.300      860.551
07/03/2014  21:00:00     -370.613     -174.729       -9.863      196.544      142.604       84.413    38629.558    20336.012     7125.554       11.703        3.305      409.737      103.613        0.064      347.982       27.343      860.555
07/03/2014  21:01:00     -341.791      -54.025      -18.459      172.261      115.847       78.566    29674.016    13420.577     6172.553        8.467        2.463      346.035       88.332        0.065      347.925       27.243      860.547
07/03/2014  21:02:00     -328.953      -21.493      -21.442      166.365      104.724       66.261    27677.457    10967.136     4390.483        7.608        2.152      329.654       75.376        0.052      347.918       27.233      860.553
07/03/2014  21:03:00     -314.815     -111.379       -7.993      199.911      106.787       72.990    39964.390    11403.370     5327.505        8.413        2.835      333.937      106.435        0.102      347.872       27.154      860.541
07/03/2014  21:04:00     -268.949      -81.128       -8.886      204.751      191.193       80.777    41922.900    36554.592     6524.874        8.198        4.250      280.918       99.575        0.126      347.855       27.123      860.503
07/03/2014  21:05:00     -406.837      -50.086      -29.457      130.881      124.659       70.138    17129.845    15539.778     4919.330       10.323        1.879      409.908       66.303        0.026      347.863       27.136      860.507
07/03/2014  21:06:00     -331.328      -48.545        7.281      264.246      166.279      107.869    69825.776    27648.794    11635.662       11.063        5.456      334.866      127.274        0.144      347.836       27.092      860.466
07/03/2014  21:07:00     -505.846        3.391      -30.650      286.041      168.049      102.696    81819.729    28240.541    10546.432       18.870        6.030      505.857      106.736        0.045      347.876       27.159      860.472
07/03/2014  21:08:00     -248.207      -24.637       12.527      171.805      139.682      101.874    29516.799    19511.104    10378.308        6.088        2.970      249.427      109.108        0.191      347.816       27.054      860.503
07/03/2014  21:09:00     -392.870      -88.497      -10.995      171.220      161.584       90.895    29316.459    26109.413     8261.923       11.298        3.184      402.714       82.780        0.042      347.835       27.088      860.567
07/03/2014  21:10:00     -444.946     -111.162      -19.214      175.727      179.414       89.017    30879.814    32189.300     7924.039       14.084        3.550      458.622       88.551        0.037      347.822       27.067      860.597
07/03/2014  21:11:00     -383.446        9.121      -29.761      181.420      135.859       83.337    32913.382    18457.754     6944.993       10.315        2.916      383.554       89.522        0.054      347.802       27.029      860.632
07/03/2014  21:12:00     -315.048     -101.140       -9.366      241.952      152.172       91.025    58540.845    23156.439     8285.546        9.976        4.499      330.885      114.715        0.120      347.788       27.008      860.619
07/03/2014  21:13:00     -294.093      -82.655      -12.752      182.157      141.147       68.468    33181.032    19922.361     4687.807        7.563        2.890      305.488       68.807        0.051      347.745       26.935      860.635
07/03/2014  21:14:00     -332.800      -86.072       -6.721      255.223      179.937       93.741    65138.988    32377.433     8787.441       11.224        5.315      343.750      105.622        0.094      347.783       27.000      860.644
07/03/2014  21:15:00     -373.166     -205.423      -15.325      152.589      137.273       70.954    23283.484    18843.761     5034.495       11.442        2.358      425.971       64.212        0.023      347.780       26.993      860.680
07/03/2014  21:16:00     -260.027     -116.881       -8.065      173.555      127.652       77.062    30121.474    16295.052     5938.530        6.684        2.618      285.088       83.879        0.087      347.719       26.890      860.702
07/03/2014  21:17:00     -228.068      -75.823       20.759      198.640      181.437      111.277    39457.850    32919.391    12382.608        7.146        4.238      240.342      108.662        0.204      347.765       26.968      860.717
07/03/2014  21:18:00     -269.372      -31.458       -9.744      151.414      147.554       64.140    22926.215    21772.262     4113.994        6.122        2.441      271.203       56.915        0.044      347.783       26.999      860.759
07/03/2014  21:19:00     -392.412     -188.370      -19.725      187.482      149.321       78.894    35149.483    22296.771     6224.325       12.675        3.184      435.282       78.632        0.033      347.753       26.948      860.789
07/03/2014  21:20:00     -127.160      -34.760       10.890      128.796      123.621       72.903    16588.423    15282.140     5314.824        2.733        1.859      131.826       76.005        0.332      347.703       26.863      860.811
07/03/2014  21:21:00     -331.303     -113.400      -10.223      203.094      149.592       76.790    41247.063    22377.695     5896.739        9.611        3.476      350.173       79.077        0.051      347.696       26.847      860.844
07/03/2014  21:22:00     -152.076      -85.240        4.112      132.689      134.375       77.394    17606.463    18056.634     5989.781        3.602        2.083      174.335       58.678        0.113      347.678       26.818      860.856
07/03/2014  21:23:00     -277.558      -85.625      -17.347      145.592      125.724       70.752    21197.048    15806.550     5005.845        6.333        2.100      290.465       74.392        0.066      347.660       26.787      860.892
07/03/2014  21:24:00     -279.109      -99.091        5.280      206.721      144.061       71.682    42733.410    20753.645     5138.340        7.818        3.431      296.177       95.518        0.104      347.642       26.755      860.913
07/03/2014  21:25:00      -97.724        3.024       21.006      128.572       73.484       52.932    16530.860     5399.838     2801.828        1.736        1.237       97.771       63.946        0.428      347.576       26.645      860.977
07/03/2014  21:26:00     -329.699       36.383      -23.010       97.832      111.783       63.475     9571.038    12495.373     4029.050        6.832        1.305      331.700       47.353        0.020      347.626       26.728      861.034
07/03/2014  21:27:00     -261.045       52.802      -16.373      164.096       95.086       57.355    26927.587     9041.278     3289.550        5.522        1.963      266.331       59.415        0.050      347.609       26.701      861.074
07/03/2014  21:28:00     -279.582       20.584      -23.057      182.852      142.746       73.374    33435.028    20376.469     5383.764        6.915        2.960      280.339       82.270        0.086      347.544       26.588      861.107
07/03/2014  21:29:00     -214.121      -86.012       -2.369      110.827       99.320       49.424    12282.590     9864.462     2442.719        3.892        1.229      230.750       50.162        0.047      347.584       26.657      861.149
07/03/2014  21:30:00     -135.971      -55.701        0.782       75.980      106.847       37.511     5772.912    11416.265     1407.043        2.009        0.930      146.938       34.752        0.056      347.597       26.681      861.207
07/03/2014  21:31:00     -148.236     -118.530       20.018      154.699      113.258       56.263    23931.909    12827.379     3165.481        3.817        1.996      189.798       67.341        0.126      347.542       26.584      861.243
07/03/2014  21:32:00     -194.352     -130.345        6.361      194.895      114.406       71.014    37983.898    13088.731     5043.042        5.545        2.806      234.014       74.950        0.103      347.568       26.630      861.278
07/03/2014  21:33:00     -348.909        7.896      -22.630      199.840       96.418       68.621    39936.085     9296.344     4708.830        8.812        2.697      348.998       94.409        0.073      347.538       26.575      861.292
07/03/2014  21:34:00     -151.303       24.391      -12.382      117.781      115.564       47.735    13872.481    13354.995     2278.640        2.657        1.475      153.257       42.342        0.076      347.483       26.482      861.297
07/03/2014  21:35:00     -204.526      -37.545      -14.586      115.170       99.112       49.689    13264.059     9823.104     2468.965        3.450        1.278      207.944       55.511        0.071      347.465       26.450      861.323
07/03/2014  21:36:00     -225.387      -21.481       -8.796      142.032      124.837       50.933    20173.096    15584.183     2594.212        4.484        1.918      226.409       62.892        0.077      347.418       26.369      861.353
07/03/2014  21:37:00     -180.359      -48.674      -18.992       66.155       78.594       37.750     4376.498     6176.985     1425.099        2.362        0.599      186.811       32.571        0.030      347.462       26.445      861.367
07/03/2014  21:38:00     -170.964       -6.456      -16.776       83.056      100.789       50.559     6898.287    10158.476     2556.167        2.458        0.981      171.086       39.012        0.052      347.370       26.288      861.358
07/03/2014  21:39:00     -313.020      -84.364      -23.291      130.054       87.249       52.822    16914.125     7612.342     2790.157        6.647        1.366      324.189       50.346        0.024      347.427       26.383      861.378
07/03/2014  21:40:00     -147.045        6.461      -16.044       80.163       69.846       29.493     6426.074     4878.481      869.829        1.705        0.609      147.187       30.344        0.043      347.360       26.271      861.398
07/03/2014  21:41:00     -119.897       56.979       -1.631       69.531       44.284       37.020     4834.513     1961.066     1370.467        1.289        0.408      132.748       22.855        0.030      347.300       26.169      861.401
07/03/2014  21:42:00     -336.435      -32.054      -36.475      163.591       72.775       44.381    26761.934     5296.157     1969.708        7.478        1.701      337.959       55.298        0.027      347.387       26.316      861.409
07/03/2014  21:43:00     -153.313      -22.463       -7.952      119.103       86.683       45.945    14185.517     7513.999     2110.901        2.394        1.191      154.950       51.556        0.111      347.302       26.171      861.388
07/03/2014  21:44:00     -316.659       17.706      -45.509       84.685      102.876       48.477     7171.499    10583.520     2349.988        6.138        1.005      317.154       42.816        0.018      347.289       26.146      861.382
07/03/2014  21:45:00     -305.781      -47.264      -32.695      132.210       90.138       53.453    17479.413     8124.786     2857.187        6.263        1.423      309.412       48.332        0.024      347.271       26.114      861.369
07/03/2014  21:46:00     -240.595      -72.325      -15.268      100.537      100.090       69.499    10107.605    10017.918     4830.046        4.415        1.248      251.231       45.731        0.033      347.239       26.060      861.381
07/03/2014  21:47:00     -452.626        8.608      -53.378      157.185      136.693       72.130    24707.132    18684.918     5202.769       12.819        2.430      452.708       78.103        0.030      347.230       26.046      861.412
07/03/2014  21:48:00     -392.052      -67.714      -30.525      211.103      153.485       82.964    44564.607    23557.570     6882.987       11.710        3.750      397.857      103.160        0.067      347.245       26.071      861.442
07/03/2014  21:49:00     -404.595      -69.324      -31.204      104.997      102.689       56.404    11024.295    10545.083     3181.415        9.711        1.238      410.491       49.412        0.014      347.236       26.054      861.487
07/03/2014  21:50:00     -380.883      -88.237      -20.084      123.381      109.261       65.213    15222.982    11937.862     4252.674        9.233        1.571      390.970       58.420        0.022      347.219       26.025      861.524
07/03/2014  21:51:00     -290.354        6.170       -6.566      171.353      119.348       69.681    29361.827    14243.829     4855.510        6.642        2.423      290.420       76.371        0.069      347.191       25.979      861.544
07/03/2014  21:52:00     -242.691     -115.799        2.309      162.416      123.143       67.528    26378.929    15164.177     4560.067        5.920        2.305      268.902       71.977        0.072      347.188       25.974      861.544
07/03/2014  21:53:00     -240.779     -101.154      -21.212       85.922       81.624       45.530     7382.623     6662.499     2073.020        4.238        0.806      261.165       35.678        0.019      347.151       25.909      861.576
07/03/2014  21:54:00     -302.146      -59.345      -19.000      120.644      110.279       50.169    14554.966    12161.494     2516.927        6.220        1.462      307.919       33.183        0.012      347.146       25.900      861.581
07/03/2014  21:55:00     -166.650      -95.666      -11.067      100.932       84.424       50.656    10187.269     7127.347     2565.988        2.846        0.994      192.157       40.090        0.044      347.145       25.899      861.609
07/03/2014  21:56:00      -74.288      -21.696        9.500      122.324       66.535       59.792    14963.264     4426.938     3575.069        1.452        1.148       77.391       67.529        0.761      347.059       25.751      861.621
07/03/2014  21:57:00     -265.547      -27.493      -16.266      139.096       99.086       51.596    19347.608     9818.060     2662.096        5.168        1.591      266.967       58.627        0.048      347.054       25.741      861.638
07/03/2014  21:58:00     -173.017      -42.008      -11.642      109.250       79.982       50.722    11935.554     6397.076     2572.683        2.637        1.045      178.044       56.457        0.101      347.051       25.737      861.645
07/03/2014  21:59:00     -142.426      -25.044        5.883       96.070       68.121       48.389     9229.417     4640.474     2341.538        1.858        0.811      144.611       49.531        0.117      346.971       25.602      861.653
07/03/2014  22:00:00     -236.772      -96.917       -6.446      132.408      103.231       56.838    17531.881    10656.685     3230.502        4.845        1.571      255.839       59.902        0.055      346.965       25.591      861.683
07/03/2014  22:01:00     -289.764      -25.982      -14.906      130.741      101.806       54.322    17093.220    10364.423     2950.930        5.763        1.520      290.926       45.475        0.024      346.985       25.624      861.701
07/03/2014  22:02:00     -160.116      -61.637      -19.884      122.134       86.178       46.553    14916.776     7426.721     2167.166        2.717        1.226      171.570       36.906        0.046      346.976       25.609      861.709
07/03/2014  22:03:00     -141.352      -57.813        8.927      131.879       77.205       57.464    17391.949     5960.625     3302.138        2.502        1.333      152.718       59.218        0.150      346.930       25.531      861.702
07/03/2014  22:04:00     -240.386      -61.360      -12.828      195.828      108.274       60.302    38348.735    11723.183     3636.367        5.770        2.685      248.094       73.687        0.088      346.924       25.518      861.704
07/03/2014  22:05:00     -340.290      -12.518      -26.632      238.827      105.581       58.924    57038.377    11147.415     3472.021        9.415        3.583      340.521       80.595        0.056      346.976       25.609      861.702
07/03/2014  22:06:00     -263.683      -14.470      -16.713      175.587      109.152       67.268    30830.736    11914.163     4524.976        5.864        2.363      264.080       78.994        0.089      346.963       25.585      861.702
07/03/2014  22:07:00     -235.309       16.149      -34.440       95.796      110.563       58.406     9176.866    12224.233     3411.281        4.081        1.241      235.862       54.917        0.054      346.955       25.570      861.691
07/03/2014  22:08:00     -123.383      -34.890       14.667      118.835      120.543       63.291    14121.662    14530.527     4005.710        2.465        1.633      128.221       71.456        0.311      346.869       25.424      861.711
07/03/2014  22:09:00     -263.798      -64.405      -29.096      137.628       93.625       52.513    18941.413     8765.581     2757.594        5.252        1.523      271.547       49.674        0.033      346.859       25.406      861.707
07/03/2014  22:10:00     -245.290      -22.613      -35.468      116.477      103.654       56.478    13566.932    10744.105     3189.799        4.471        1.375      246.330       51.600        0.044      346.891       25.462      861.712
07/03/2014  22:11:00     -190.613      -30.259      -18.422      110.899       69.305       48.504    12298.690     4803.184     2352.600        2.852        0.973      193.000       47.881        0.062      346.863       25.414      861.712
07/03/2014  22:12:00     -122.015       10.763      -20.297       92.923       93.719       46.176     8634.635     8783.160     2132.177        1.748        0.977      122.489       29.396        0.058      346.808       25.321      861.710
07/03/2014  22:13:00     -188.615      104.281      -36.581       86.169      109.249       46.089     7425.125    11935.391     2124.195        3.463        1.074      215.523       45.680        0.045      346.810       25.321      861.709
07/03/2014  22:14:00     -101.111       39.648      -15.460       73.980       75.185       43.115     5473.082     5652.805     1858.946        1.251        0.649      108.607       34.825        0.103      346.780       25.272      861.728
07/03/2014  22:15:00     -170.154      -11.491      -23.316       81.699       75.846       41.430     6674.764     5752.663     1716.446        2.188        0.707      170.541       29.563        0.030      346.739       25.201      861.731
07/03/2014  22:16:00     -146.860       19.095      -23.855       62.651       73.975       40.057     3925.147     5472.302     1604.557        1.675        0.550      148.096       32.680        0.049      346.684       25.107      861.738
07/03/2014  22:17:00     -115.272      -52.055      -12.293       80.590       66.983       47.456     6494.693     4486.740     2252.066        1.469        0.662      126.481       27.685        0.048      346.652       25.053      861.752
07/03/2014  22:18:00     -181.958       24.304      -29.263       88.994       86.623       43.014     7919.937     7503.464     1850.168        2.591        0.864      183.574       47.844        0.068      346.654       25.055      861.758
07/03/2014  22:19:00     -141.659      109.128       -9.857      106.140      107.424       66.432    11265.667    11540.018     4413.275        2.964        1.361      178.819       63.297        0.125      346.671       25.085      861.758
07/03/2014  22:20:00     -132.880       50.902      -13.172      104.008       83.354       52.176    10817.631     6947.927     2722.327        2.045        1.024      142.296       58.179        0.167      346.650       25.050      861.734
07/03/2014  22:21:00     -149.445       46.494      -12.426       79.599       74.347       41.593     6336.048     5527.454     1729.997        1.912        0.680      156.510       31.551        0.041      346.752       25.223      861.736
07/03/2014  22:22:00     -231.825      -58.089       -9.438      113.620      126.393       68.361    12909.470    15975.283     4673.220        4.538        1.678      238.992       66.894        0.078      346.728       25.182      861.729
07/03/2014  22:23:00     -233.351      -63.873      -15.540      144.883       99.586       56.301    20990.969     9917.343     3169.799        4.642        1.704      241.935       61.391        0.064      346.710       25.151      861.739
07/03/2014  22:24:00     -219.095      -72.827      -19.601       61.681       66.333       50.386     3804.491     4400.070     2538.748        3.222        0.537      230.882       31.759        0.019      346.702       25.136      861.765
07/03/2014  22:25:00     -276.004      -56.658      -19.534       94.606       71.600       44.812     8950.382     5126.570     2008.090        4.792        0.804      281.759       40.355        0.021      346.693       25.119      861.795
07/03/2014  22:26:00     -258.438      -56.987       -4.658      112.303      101.569       55.570    12612.029    10316.171     3088.012        4.803        1.301      264.646       53.589        0.041      346.644       25.038      861.798
07/03/2014  22:27:00     -251.496      -96.055      -13.650       82.675       82.106       44.496     6835.153     6741.318     1979.868        4.411        0.778      269.215       27.108        0.010      346.610       24.977      861.816
07/03/2014  22:28:00     -248.615      -62.410      -27.478       60.185       67.270       41.343     3622.267     4525.244     1709.255        3.816        0.493      256.329       28.526        0.012      346.606       24.969      861.825
07/03/2014  22:29:00     -259.082      -80.492      -11.510       83.762       71.879       54.367     7016.061     5166.538     2955.761        4.443        0.757      271.298       45.919        0.029      346.622       24.997      861.858
07/03/2014  22:30:00     -220.288      -57.083       -7.736      104.790       96.609       53.399    10980.929     9333.321     2851.466        3.750        1.158      227.564       51.463        0.051      346.555       24.883      861.859
07/03/2014  22:31:00     -257.762      -35.985      -17.759      158.519       76.309       51.393    25128.217     5823.003     2641.236        5.082        1.680      260.262       63.813        0.060      346.561       24.894      861.879
07/03/2014  22:32:00     -101.053      -47.406       -2.710      122.825       84.542       54.308    15086.079     7147.312     2949.394        1.882        1.259      111.620       55.641        0.248      346.575       24.919      861.899
07/03/2014  22:33:00     -207.636      -48.773       -9.903      125.669      127.768       63.794    15792.821    16324.735     4069.652        4.088        1.809      213.288       65.796        0.095      346.676       25.094      861.918
07/03/2014  22:34:00     -330.148      -49.887      -37.373      135.552       84.356       44.867    18374.307     7115.991     2013.004        7.019        1.375      333.896       37.544        0.013      346.754       25.226      861.935
07/03/2014  22:35:00     -246.921      -37.177       -8.246      101.494       80.078       44.144    10301.003     6412.564     1948.701        4.054        0.933      249.704       42.250        0.029      346.674       25.089      861.950
07/03/2014  22:36:00     -336.258      -46.664      -27.705      112.813       99.765       62.065    12726.720     9953.021     3852.010        7.127        1.327      339.481       65.496        0.037      346.708       25.146      861.948
07/03/2014  22:37:00     -265.239      -76.268      -29.704      113.406       96.930       52.708    12860.822     9395.349     2778.178        5.104        1.252      275.986       42.540        0.024      346.645       25.038      861.929
07/03/2014  22:38:00     -167.996        5.875      -13.301       73.370       52.355       40.166     5383.197     2741.057     1613.296        1.908        0.487      168.098       32.447        0.037      346.672       25.086      861.918
07/03/2014  22:39:00     -211.054      -17.587      -11.094       87.690       93.133       52.994     7689.541     8673.721     2808.414        3.207        0.959      211.786       47.144        0.050      346.669       25.080      861.906
07/03/2014  22:40:00     -305.102      -90.160      -37.408      114.827      109.703       59.455    13185.315    12034.855     3534.890        6.568        1.438      318.144       55.549        0.030      346.656       25.057      861.923
07/03/2014  22:41:00     -324.855      -41.660      -32.450      105.733       92.035       53.428    11179.463     8470.377     2854.522        6.541        1.125      327.516       52.240        0.025      346.660       25.063      861.911
07/03/2014  22:42:00     -291.329     -118.474       -2.153      137.587       93.727       64.901    18930.089     8784.678     4212.123        6.541        1.596      314.498       61.743        0.039      346.631       25.014      861.920
07/03/2014  22:43:00     -311.394      -76.183      -25.352      110.399      141.396       61.766    12187.842    19992.920     3814.992        6.970        1.800      320.578       58.205        0.033      346.662       25.065      861.923
07/03/2014  22:44:00     -233.956      -62.226        3.185      163.249      130.699       67.417    26650.277    17082.233     4545.110        5.344        2.414      242.090       71.326        0.087      346.672       25.085      861.933
07/03/2014  22:45:00     -407.447      -50.325      -26.659      142.614       96.762       64.140    20338.855     9362.885     4113.899       10.153        1.691      410.543       66.109        0.026      346.758       25.232      861.944
07/03/2014  22:46:00     -353.677       -3.245      -31.559      115.624      117.305       49.182    13369.021    13760.532     2418.838        7.782        1.477      353.692       49.825        0.020      346.743       25.204      861.927
07/03/2014  22:47:00     -390.626      -24.549      -34.258      155.531       92.524       64.883    24190.020     8560.667     4209.847        9.566        1.848      391.397       75.842        0.038      346.819       25.338      861.930
07/03/2014  22:48:00     -279.407      -75.863       -7.324      138.804      116.654       72.062    19266.653    13608.229     5192.923        6.097        1.903      289.523       72.547        0.063      346.720       25.167      861.916
07/03/2014  22:49:00     -314.689      -88.807      -17.371      185.830      101.888       71.524    34532.880    10381.243     5115.682        7.862        2.501      326.980       81.944        0.063      346.768       25.250      861.930
07/03/2014  22:50:00     -317.568      -78.332      -16.336      123.529      137.531       62.547    15259.423    18914.895     3912.075        7.266        1.904      327.087       59.897        0.034      346.816       25.334      861.926
07/03/2014  22:51:00     -307.521      -47.981      -14.025      107.545      101.614       58.754    11565.981    10325.323     3452.064        6.120        1.267      311.242       55.725        0.032      346.763       25.240      861.932
07/03/2014  22:52:00     -296.275      -81.343       -9.322      126.686      111.086       53.734    16049.430    12340.019     2887.370        6.287        1.564      307.239       60.954        0.039      346.730       25.184      861.934
07/03/2014  22:53:00     -327.916      -40.212      -29.635      138.427      116.539       53.057    19162.157    13581.271     2815.012        7.279        1.778      330.372       58.227        0.031      346.786       25.279      861.926
07/03/2014  22:54:00     -274.290      -65.378      -17.467      125.760      102.450       62.819    15815.518    10496.004     3946.226        5.503        1.513      281.974       63.838        0.051      346.712       25.152      861.929
07/03/2014  22:55:00     -371.854      -65.632      -14.434      134.703       97.296       62.689    18144.826     9466.581     3929.968        8.716        1.577      377.601       54.497        0.021      346.755       25.227      861.932
07/03/2014  22:56:00     -321.194      -87.076      -23.555      113.351      137.852       48.560    12848.454    19003.291     2358.083        7.275        1.710      332.788       40.006        0.014      346.778       25.266      861.933
07/03/2014  22:57:00     -264.962     -116.176       -9.737      141.360      118.600       60.494    19982.766    14065.987     3659.467        6.075        1.885      289.313       65.704        0.052      346.754       25.226      861.931
07/03/2014  22:58:00     -331.004      -81.774       -5.854      163.232      111.570       61.433    26644.589    12447.912     3773.999        7.957        2.143      340.956       72.460        0.045      346.727       25.181      861.950
07/03/2014  22:59:00     -316.509      -52.300      -25.819      148.411       99.884       54.070    22025.962     9976.844     2923.545        6.925        1.746      320.800       47.654        0.022      346.783       25.275      861.947
07/03/2014  23:00:00     -323.003      -50.203      -12.579      174.559      113.267       67.891    30470.730    12829.340     4609.129        7.745        2.395      326.881       80.499        0.061      346.732       25.187      861.949
07/03/2014  23:01:00     -406.539      -79.295      -23.203      194.189       85.576       69.486    37709.479     7323.236     4828.247       11.097        2.493      414.200       74.305        0.032      346.807       25.317      861.963
07/03/2014  23:02:00     -304.315      -47.026      -24.805      131.486       96.841       60.527    17288.607     9378.170     3663.479        6.288        1.517      307.927       48.230        0.025      346.774       25.259      861.958
07/03/2014  23:03:00     -225.560      -76.350        4.895      175.042      144.994       79.179    30639.793    21023.137     6269.269        5.732        2.897      238.131       87.059        0.134      346.770       25.254      861.945
07/03/2014  23:04:00     -377.484      -22.093      -19.716      192.869      129.528       77.039    37198.399    16777.624     5934.962       10.163        2.996      378.130       95.131        0.063      346.856       25.401      861.968
07/03/2014  23:05:00     -295.925     -116.535      -20.170      155.318      129.062       73.251    24123.702    16657.006     5365.762        7.384        2.307      318.044       72.683        0.052      346.853       25.398      861.984
07/03/2014  23:06:00     -226.019      -60.071        2.051      138.843      103.729       58.035    19277.347    10759.778     3368.039        4.405        1.670      233.865       59.186        0.064      346.787       25.284      861.986
07/03/2014  23:07:00     -339.190      -85.274      -18.038      136.053      109.960       73.743    18510.464    12091.186     5438.007        7.934        1.802      349.745       81.892        0.055      346.818       25.335      862.008
07/03/2014  23:08:00     -293.212      -13.302       -8.209      202.675      103.627       72.719    41077.095    10738.548     5288.092        7.165        2.855      293.513       95.570        0.106      346.780       25.271      862.015
07/03/2014  23:09:00     -163.417       -7.826        5.037      120.817       82.920       60.478    14596.819     6875.663     3657.567        2.596        1.257      163.605       68.936        0.178      346.710       25.151      862.014
07/03/2014  23:10:00     -265.290      -53.241      -14.682       94.617       98.178       62.161     8952.393     9638.866     3863.949        4.794        1.123      270.580       50.070        0.034      346.770       25.252      862.016
07/03/2014  23:11:00     -220.926      -38.865      -12.744      123.143       79.248       53.244    15164.184     6280.172     2834.949        3.738        1.214      224.318       57.711        0.066      346.706       25.143      862.015
07/03/2014  23:12:00     -266.393      -68.506       -8.114      124.202       82.487       69.247    15426.234     6804.149     4795.088        5.137        1.351      275.060       67.964        0.061      346.697       25.127      862.031
07/03/2014  23:13:00     -253.603      -88.637      -14.509      149.710       76.418       52.406    22412.964     5839.756     2746.397        5.169        1.550      268.647       65.755        0.060      346.672       25.085      862.029
07/03/2014  23:14:00     -341.561      -74.112      -26.473      111.567       86.012       51.100    12447.187     7398.065     2611.161        7.265        1.123      349.509       43.552        0.016      346.723       25.171      862.036
07/03/2014  23:15:00     -369.862      -52.995      -24.613      131.164      113.180       57.850    17203.880    12809.738     3346.678        8.678        1.668      373.640       64.605        0.030      346.750       25.218      862.041
07/03/2014  23:16:00     -257.293      -66.251      -27.505      147.260       98.711       58.668    21685.364     9743.818     3441.928        5.310        1.744      265.686       66.825        0.063      346.696       25.126      862.043
07/03/2014  23:17:00     -180.502      -65.732       -0.970      134.625       83.151       51.549    18123.818     6914.154     2657.325        3.229        1.385      192.098       50.394        0.069      346.653       25.054      862.036
07/03/2014  23:18:00     -153.636      -54.445       15.900      102.978      103.441       55.010    10604.533    10699.971     3026.086        2.557        1.217      162.998       54.541        0.112      346.621       24.999      862.044
07/03/2014  23:19:00     -199.974      -52.843       -4.142      100.356      105.946       50.228    10071.390    11224.521     2522.891        3.330        1.191      206.838       51.414        0.062      346.628       25.009      862.039
07/03/2014  23:20:00     -235.304       40.659        5.072      159.584      115.158       79.492    25467.061    13261.278     6319.002        5.104        2.252      238.791       80.049        0.112      346.628       25.010      862.021
07/03/2014  23:21:00     -271.697       -9.156       -6.084      116.231      100.902       58.787    13509.546    10181.192     3455.927        5.054        1.357      271.851       49.663        0.033      346.659       25.062      862.011
07/03/2014  23:22:00     -254.346      -61.985       -4.935      116.457       98.867       57.050    13562.313     9774.632     3254.654        4.757        1.330      261.790       53.879        0.042      346.662       25.068      862.017
07/03/2014  23:23:00     -148.481      -20.508       11.182      112.924      105.071       55.354    12751.786    11039.847     3064.083        2.472        1.343      149.890       61.061        0.166      346.631       25.016      861.997
07/03/2014  23:24:00     -368.575      -43.705      -25.665      166.586      143.829       69.392    27750.768    20686.719     4815.223        9.583        2.663      371.158       76.620        0.043      346.742       25.204      861.973
07/03/2014  23:25:00     -262.766      -75.193       -8.406      138.510      102.353       59.253    19185.072    10476.147     3510.923        5.397        1.659      273.313       60.237        0.049      346.694       25.122      861.972
07/03/2014  23:26:00     -390.597      -90.802      -28.466      123.940      103.120       62.422    15361.218    10633.706     3896.486        9.575        1.495      401.012       67.635        0.028      346.730       25.183      861.987
07/03/2014  23:27:00     -328.001      -64.703       -2.616      129.474      111.468       52.164    16763.501    12425.091     2721.075        7.184        1.595      334.322       54.661        0.027      346.728       25.180      861.981
07/03/2014  23:28:00     -249.720      -37.980      -14.536      101.690       78.339       50.735    10340.854     6137.010     2574.003        4.153        0.953      252.592       49.725        0.039      346.657       25.058      861.968
07/03/2014  23:29:00     -230.809       -5.726       13.023      166.403      107.828       63.214    27689.964    11626.922     3996.009        4.839        2.166      230.880       60.037        0.068      346.631       25.015      861.967
07/03/2014  23:30:00     -193.312      -46.070        1.809      145.048      105.660       67.904    21039.055    11163.997     4610.983        3.815        1.841      198.726       79.531        0.160      346.619       24.993      861.980
07/03/2014  23:31:00     -181.116      -29.357      -14.689       98.923       83.151       55.330     9785.817     6914.166     3061.407        2.682        0.988      183.480       57.161        0.097      346.626       25.007      861.971
07/03/2014  23:32:00     -106.353      -49.733       21.054       98.517      113.474       55.428     9705.507    12876.312     3072.281        1.994        1.283      117.406       56.270        0.230      346.601       24.965      861.949
07/03/2014  23:33:00     -105.130      -28.287        3.358      103.671       95.599       52.716    10747.681     9139.112     2778.957        1.726        1.133      108.870       44.482        0.167      346.569       24.909      861.938
07/03/2014  23:34:00     -251.308      -42.941       -0.902      149.459       76.129       57.502    22337.959     5795.631     3306.473        4.821        1.572      254.950       72.796        0.082      346.578       24.925      861.961
07/03/2014  23:35:00     -312.553      -49.908      -12.163      121.492      136.402       67.461    14760.249    18605.628     4550.947        6.912        1.896      316.512       60.669        0.037      346.635       25.019      861.956
07/03/2014  23:36:00     -267.654       -6.719      -17.513      151.260      107.145       67.140    22879.560    11480.149     4507.822        5.542        1.943      267.739       81.218        0.092      346.621       24.996      861.964
07/03/2014  23:37:00     -264.343       -5.382      -20.397      127.379       75.000       53.098    16225.374     5624.968     2819.382        4.749        1.233      264.397       60.093        0.052      346.642       25.033      861.974
07/03/2014  23:38:00     -221.997      -31.824      -25.515       81.719       80.046       39.463     6678.017     6407.436     1557.309        3.279        0.732      224.266       30.906        0.019      346.575       24.919      861.985
07/03/2014  23:39:00     -191.745      -89.371       -2.964      108.995      102.475       50.408    11879.926    10501.061     2540.991        3.484        1.246      211.550       50.924        0.058      346.523       24.828      862.006
07/03/2014  23:40:00     -366.047      -56.555      -25.743      162.753       83.087       73.893    26488.381     6903.424     5460.148        8.835        1.943      370.390       86.998        0.055      346.626       25.006      861.997
07/03/2014  23:41:00     -231.074      -33.040       -1.614      128.466      126.751       58.303    16503.487    16065.706     3399.196        4.522        1.798      233.424       57.325        0.060      346.587       24.938      861.995
07/03/2014  23:42:00     -326.030      -44.183      -16.998      139.864       93.246       64.757    19561.966     8694.864     4193.481        7.049        1.623      329.011       65.727        0.040      346.598       24.955      862.007
07/03/2014  23:43:00     -219.177     -118.671       -8.415       93.005       93.544       56.779     8650.014     8750.393     3223.844        4.140        1.031      249.241       48.105        0.037      346.532       24.842      862.015
07/03/2014  23:44:00     -196.795      -44.728      -13.765      162.058       87.265       61.728    26262.707     7615.175     3810.309        3.930        1.884      201.814       77.664        0.148      346.516       24.817      862.017
07/03/2014  23:45:00     -334.328      -62.169      -15.720      118.390       88.956       56.867    14016.199     7913.259     3233.813        7.052        1.258      340.059       54.748        0.026      346.537       24.852      862.026
07/03/2014  23:46:00     -183.264      -73.712        9.548      101.115       75.684       46.875    10224.294     5728.100     2197.220        2.863        0.907      197.533       49.428        0.063      346.473       24.743      862.036
07/03/2014  23:47:00     -215.121      -29.890       -7.934       74.220       73.897       49.147     5508.677     5460.762     2415.404        3.031        0.669      217.188       41.330        0.036      346.459       24.719      862.050
07/03/2014  23:48:00     -159.442      -41.890        2.599       95.335       60.953       45.326     9088.673     3715.220     2054.422        2.102        0.743      164.853       48.246        0.086      346.441       24.688      862.065
07/03/2014  23:49:00     -165.756      -80.167       -4.408       64.102       69.856       35.984     4109.059     4879.855     1294.825        2.210        0.514      184.125       34.974        0.036      346.480       24.757      862.076
07/03/2014  23:50:00     -148.898      -53.922       15.730      146.894       67.805       40.334    21577.861     4597.554     1626.851        2.656        1.390      158.361       59.070        0.139      346.391       24.601      862.100
07/03/2014  23:51:00     -164.261      -24.672       -3.715       87.469       58.376       41.329     7650.799     3407.700     1708.053        2.018        0.638      166.104       48.093        0.084      346.397       24.614      862.123
07/03/2014  23:52:00     -116.729      -43.270       -4.872       76.792       71.214       41.403     5896.950     5071.458     1714.193        1.410        0.634      124.491       41.059        0.109      346.432       24.674      862.153
07/03/2014  23:53:00     -170.640      -57.910       -2.981       73.210       81.103       42.382     5359.741     6577.700     1796.223        2.310        0.687      180.199       39.610        0.048      346.511       24.808      862.161
07/03/2014  23:54:00     -141.471       10.142        2.548       69.514       62.777       35.378     4832.174     3940.956     1251.619        1.507        0.501      141.834       27.928        0.039      346.438       24.683      862.183
07/03/2014  23:55:00      -49.265      -20.874       13.276       93.731       66.673       46.210     8785.483     4445.231     2135.371        0.920        0.768       53.504       46.406        0.752      346.407       24.631      862.216
07/03/2014  23:56:00      -32.139      -28.815        4.417       42.386       49.744       26.522     1796.536     2474.470      703.401        0.343        0.249       43.165       21.142        0.240      346.379       24.584      862.241
07/03/2014  23:57:00       26.309      -21.432       20.306       41.823       36.483       26.715     1749.141     1331.030      713.710        0.268        0.190       33.933       10.871        0.103      346.224       24.317      862.250
07/03/2014  23:58:00       14.738       11.766       14.451       33.727       25.168       13.419     1137.507      633.438      180.071        0.126        0.098       18.858       13.542        0.516      346.115       24.131      862.259
07/03/2014  23:59:00       47.811       25.858       12.335       24.147       23.884       19.487      583.055      570.445      379.750        0.232        0.077       54.355       14.634        0.072      346.121       24.139      862.276
